Date StartTime U_cm/s V_cm/s W_cm/s Ustd_cm/s Vstd_cm/s Wstd_cm/s Uvar_(cm/s)^2 Vvar_(cm/s)^2 Wvar_(cm/s)^2 KE_(m/s)^2 TurbulentKE_(m/s)^2 HorizWindSpeed_cm/s FrictionSpeec_cm/s DragCoef SpeedOfSound_m/s SonicTemperature_C Pressure_mb 
09/10/2014  00:00:00      -88.810       -6.725      -19.456       10.972        9.824        8.863      120.378       96.518       78.550        0.430        0.015       89.064        5.942        0.004      342.328       17.661      862.807
09/10/2014  00:01:00      -94.884      -15.203      -15.098       16.669       19.415       12.638      277.848      376.945      159.727        0.514        0.041       96.095       13.106        0.019      342.198       17.439      862.847
09/10/2014  00:02:00      -78.108       37.561      -24.337       20.043       40.506       13.671      401.727     1640.708      186.885        0.517        0.111       86.670       11.528        0.018      342.610       18.140      862.858
09/10/2014  00:03:00      -14.664       68.310       -6.740       28.797       28.635       14.240      829.273      819.939      202.769        0.339        0.093       69.867       14.787        0.045      343.676       19.956      862.853
09/10/2014  00:04:00      -53.275      -14.208       -3.097       36.462       28.690       14.392     1329.467      823.140      207.143        0.270        0.118       55.137       13.553        0.060      343.061       18.907      862.855
09/10/2014  00:05:00      -93.813       17.370      -17.797       18.232       23.547       11.813      332.400      554.451      139.552        0.522        0.051       95.408        9.397        0.010      342.807       18.478      862.872
09/10/2014  00:06:00      -59.893      -21.773      -11.921       14.430       29.035       12.172      208.222      843.024      148.153        0.270        0.060       63.728        7.679        0.015      342.568       18.069      862.890
09/10/2014  00:07:00      -42.835      -47.379      -11.954       20.522       27.705       10.505      421.161      767.592      110.346        0.276        0.065       63.872        7.400        0.013      343.062       18.910      862.894
09/10/2014  00:08:00      -18.798       14.197       -2.476       12.909        9.806        6.361      166.640       96.160       40.469        0.043        0.015       23.557        5.506        0.055      343.607       19.837      862.880
09/10/2014  00:09:00      -70.868      -17.128      -14.392       22.533       14.701        8.184      507.749      216.126       66.982        0.316        0.040       72.908        9.577        0.017      342.674       18.248      862.887
09/10/2014  00:10:00      -75.823      -22.856      -12.462        9.575        8.798        7.595       91.674       77.403       57.685        0.333        0.011       79.193        4.866        0.004      342.428       17.830      862.892
09/10/2014  00:11:00      -71.184       -6.977      -11.995        9.516       16.295        8.683       90.559      265.531       75.394        0.285        0.022       71.525        6.941        0.009      342.892       18.619      862.901
09/10/2014  00:12:00      -84.448      -30.264      -14.672       23.166       16.738        8.525      536.644      280.151       72.672        0.458        0.044       89.707        6.127        0.005      342.525       17.996      862.918
09/10/2014  00:13:00      -91.906      -25.410      -13.284       18.726       15.303       13.157      350.647      234.191      173.118        0.501        0.038       95.354       12.004        0.016      342.467       17.897      862.924
09/10/2014  00:14:00     -109.662      -20.768      -14.061       17.071       10.716        7.587      291.421      114.837       57.565        0.656        0.023      111.611        7.092        0.004      342.573       18.079      862.928
09/10/2014  00:15:00      -98.251      -26.237      -12.368       14.517       12.875        9.490      210.742      165.773       90.056        0.548        0.023      101.694        6.661        0.004      342.504       17.960      862.941
09/10/2014  00:16:00     -111.058      -40.650       -7.373       17.719       21.120       12.333      313.980      446.046      152.097        0.748        0.046      118.264       11.519        0.009      342.548       18.035      862.950
09/10/2014  00:17:00     -121.089      -49.133       -2.076       30.595       30.398       20.271      936.065      924.064      410.900        0.968        0.114      130.677       14.151        0.012      342.304       17.619      862.949
09/10/2014  00:18:00     -105.055      -17.068       -7.170       37.449       32.830       18.403     1402.399     1077.795      338.681        0.710        0.141      106.432       15.893        0.022      342.176       17.403      862.946
09/10/2014  00:19:00     -103.157      -20.254        3.554       32.344       29.977       20.569     1046.156      898.636      423.088        0.672        0.118      105.127       19.130        0.033      342.214       17.467      862.941
09/10/2014  00:20:00      -97.148      -14.768       -5.544       27.369       24.132       17.917      749.073      582.373      321.023        0.567        0.083       98.264       14.099        0.021      342.282       17.583      862.925
09/10/2014  00:21:00     -134.526      -27.482      -14.737       33.485       20.175       18.635     1121.267      407.019      347.245        1.047        0.094      137.304       18.705        0.019      342.345       17.690      862.917
09/10/2014  00:22:00     -115.477        4.037       -8.222       44.334       38.058       25.330     1965.537     1448.390      641.600        0.874        0.203      115.548       26.673        0.053      342.203       17.448      862.918
09/10/2014  00:23:00     -116.026       12.290      -10.772       56.914       42.389       28.289     3239.254     1796.850      800.262        0.978        0.292      116.675       27.595        0.056      342.442       17.854      862.920
09/10/2014  00:24:00     -138.637       22.642       -9.048       44.260       31.635       21.825     1958.922     1000.761      476.337        1.162        0.172      140.474       19.814        0.020      342.485       17.928      862.907
09/10/2014  00:25:00     -190.822       21.401      -14.320       30.897       30.564       16.844      954.647      934.144      283.728        1.962        0.109      192.018       10.085        0.003      342.593       18.112      862.908
09/10/2014  00:26:00     -164.560       53.335      -15.940       46.462       31.678       20.231     2158.734     1003.527      409.302        1.687        0.179      172.987       12.090        0.005      342.690       18.276      862.913
09/10/2014  00:27:00     -163.373       35.263       -8.567       25.085       24.897       16.024      629.270      619.864      256.761        1.476        0.075      167.136        8.944        0.003      342.810       18.480      862.928
09/10/2014  00:28:00     -137.917       33.389      -13.587       28.060       23.480       17.974      787.358      551.328      323.061        1.099        0.083      141.901       13.491        0.009      342.690       18.277      862.937
09/10/2014  00:29:00     -122.144       28.620      -14.738       38.327       21.991       18.914     1468.974      483.602      357.730        0.913        0.116      125.452       16.939        0.018      342.702       18.296      862.939
09/10/2014  00:30:00     -124.020       48.365      -20.935       45.963       35.488       27.756     2112.552     1259.420      770.378        1.115        0.207      133.117       19.063        0.021      342.627       18.170      862.948
09/10/2014  00:31:00     -169.199       37.227      -11.404       45.168       26.720       16.900     2040.107      713.973      285.617        1.659        0.152      173.246       17.699        0.010      342.620       18.157      862.964
09/10/2014  00:32:00     -185.340       45.626      -21.877       51.885       39.035       24.732     2692.005     1523.694      611.686        2.087        0.241      190.874       19.037        0.010      342.567       18.066      862.977
09/10/2014  00:33:00     -165.673       14.739      -20.592       37.562       42.226       17.181     1410.902     1783.061      295.201        1.579        0.174      166.327       11.203        0.005      342.576       18.081      862.968
09/10/2014  00:34:00     -131.940        1.114      -14.683       35.390       33.013       19.789     1252.481     1089.877      391.609        1.018        0.137      131.945       14.290        0.012      342.418       17.814      862.957
09/10/2014  00:35:00     -153.160       -0.671      -18.918       43.960       25.968       15.447     1932.485      674.324      238.606        1.333        0.142      153.162       15.547        0.010      342.497       17.948      862.960
09/10/2014  00:36:00      -86.446       -4.156       -8.063       25.459       23.678       14.419      648.172      560.668      207.906        0.449        0.071       86.546       12.632        0.021      342.450       17.868      862.975
09/10/2014  00:37:00      -72.419       -0.990      -16.473       21.645       21.313       11.989      468.488      454.224      143.730        0.329        0.053       72.425        6.448        0.008      342.538       18.017      862.975
09/10/2014  00:38:00      -39.097       -5.899       -3.185       31.961       17.132       13.383     1021.514      293.507      179.097        0.153        0.075       39.539       14.765        0.139      342.612       18.144      862.974
09/10/2014  00:39:00      -39.711        4.967       -6.194       18.397       17.857       10.674      338.450      318.858      113.940        0.121        0.039       40.020        8.439        0.044      342.638       18.188      862.980
09/10/2014  00:40:00      -61.891      -10.650      -13.596       15.303       15.298        9.850      234.167      234.016       97.031        0.235        0.028       62.801        9.832        0.025      342.669       18.241      862.989
09/10/2014  00:41:00      -57.123      -16.569       -9.558       14.773       11.480       10.942      218.250      131.792      119.725        0.205        0.023       59.478        8.135        0.019      342.467       17.896      862.988
09/10/2014  00:42:00      -76.802      -29.125      -13.944       13.668       16.605       11.331      186.827      275.740      128.387        0.377        0.030       82.139        8.356        0.010      342.311       17.630      862.985
09/10/2014  00:43:00      -60.624      -32.295      -20.730       15.017       20.433        9.771      225.507      417.513       95.475        0.294        0.037       68.689        7.068        0.011      342.281       17.579      862.993
09/10/2014  00:44:00      -49.629      -16.578      -10.368       13.807       13.622        9.820      190.620      185.557       96.426        0.166        0.024       52.325        5.668        0.012      342.587       18.101      863.003
09/10/2014  00:45:00      -60.715      -30.840      -13.107       23.913       21.995        9.315      571.809      483.769       86.764        0.298        0.057       68.099       10.996        0.026      342.631       18.176      863.014
09/10/2014  00:46:00      -86.140        7.885      -15.988       18.552       11.874       11.345      344.191      140.984      128.706        0.418        0.031       86.500        6.980        0.007      342.269       17.560      863.015
09/10/2014  00:47:00      -67.751       -0.830      -12.348       12.163        8.080       10.455      147.946       65.285      109.312        0.253        0.016       67.756        8.515        0.016      342.621       18.159      863.024
09/10/2014  00:48:00      -96.310      -27.630      -16.518       15.013       12.803        7.820      225.382      163.929       61.156        0.538        0.023      100.195        5.180        0.003      342.192       17.429      863.040
09/10/2014  00:49:00     -116.536      -45.040       -7.096       11.830       11.333        6.907      139.938      128.431       47.700        0.799        0.016      124.937        5.812        0.002      342.204       17.452      863.054
09/10/2014  00:50:00      -96.635      -43.165       -9.298       16.880       10.475        9.112      284.925      109.734       83.026        0.588        0.024      105.838        4.985        0.002      342.253       17.532      863.053
09/10/2014  00:51:00      -48.413      -36.596       -7.557       16.310       12.582        9.596      266.025      158.294       92.079        0.213        0.026       60.688        6.075        0.010      342.300       17.613      863.063
09/10/2014  00:52:00      -53.008      -35.580       -7.728       17.216       12.177        8.738      296.382      148.281       76.355        0.233        0.026       63.842        7.872        0.015      342.584       18.095      863.071
09/10/2014  00:53:00      -74.958       -8.370      -15.624       13.405       14.039        7.427      179.695      197.095       55.165        0.318        0.022       75.424        6.227        0.007      342.466       17.895      863.080
09/10/2014  00:54:00     -110.056      -17.081      -14.182       16.842       19.418       12.331      283.642      377.075      152.063        0.671        0.041      111.374        9.313        0.007      342.063       17.211      863.083
09/10/2014  00:55:00     -115.197      -40.517       -9.351       16.422       12.152        8.226      269.689      147.677       67.661        0.774        0.024      122.114        6.401        0.003      342.052       17.192      863.084
09/10/2014  00:56:00     -116.901      -66.137       -6.811       28.067       20.432       14.168      787.733      417.476      200.724        0.975        0.070      134.313       11.714        0.008      342.011       17.123      863.096
09/10/2014  00:57:00     -102.337      -73.188      -10.893       28.332       37.352       20.575      802.678     1395.179      423.317        0.928        0.131      125.815       13.716        0.012      342.045       17.180      863.095
09/10/2014  00:58:00      -65.313      -33.474        4.124       36.220       36.934       18.246     1311.856     1364.132      332.902        0.421        0.150       73.392       19.342        0.069      342.086       17.249      863.097
09/10/2014  00:59:00      -90.404        0.286       -8.714       26.402       17.624       10.598      697.063      310.601      112.312        0.468        0.056       90.404        9.905        0.012      341.824       16.806      863.102
09/10/2014  01:00:00     -115.282      -10.800      -16.125       15.708       17.672        9.659      246.745      312.294       93.294        0.716        0.033      115.787        5.329        0.002      341.838       16.826      863.118
09/10/2014  01:01:00     -114.935      -24.635      -11.273       17.166       13.903       11.302      294.668      193.283      127.741        0.728        0.031      117.545        7.337        0.004      341.940       17.001      863.122
09/10/2014  01:02:00      -74.012      -45.192       -0.345       34.403       20.061       15.675     1183.543      402.462      245.701        0.468        0.092       86.719       17.983        0.043      341.919       16.965      863.117
09/10/2014  01:03:00      -61.298      -62.729       -7.383       18.881       20.094       10.405      356.506      403.763      108.271        0.431        0.043       87.706        5.317        0.004      342.528       18.001      863.115
09/10/2014  01:04:00      -85.580       -7.518      -14.649       12.932       15.655        6.543      167.235      245.093       42.813        0.402        0.023       85.909        6.053        0.005      342.470       17.904      863.120
09/10/2014  01:05:00     -117.047        0.915      -18.627       22.199       19.079       12.230      492.790      364.009      149.573        0.753        0.050      117.051        7.084        0.004      342.097       17.268      863.149
09/10/2014  01:06:00      -88.566       -7.019      -12.713       22.950       23.263       17.728      526.716      541.173      314.287        0.472        0.069       88.843       15.667        0.031      341.767       16.710      863.170
09/10/2014  01:07:00      -72.606      -13.775      -11.818       20.555       14.966        8.766      422.519      223.981       76.851        0.316        0.036       73.901       10.000        0.018      342.013       17.126      863.169
09/10/2014  01:08:00      -74.477      -28.241       -7.648       19.342       16.205        9.532      374.118      262.611       90.867        0.357        0.036       79.652        7.796        0.010      342.225       17.485      863.163
09/10/2014  01:09:00      -98.018      -45.659        0.815       37.030       21.507       18.216     1371.185      462.550      331.832        0.693        0.108      108.130       12.701        0.014      341.772       16.715      863.165
09/10/2014  01:10:00     -114.438      -69.222        0.229       35.378       27.890       24.423     1251.598      777.852      596.505        1.026        0.131      133.746       20.535        0.024      341.593       16.412      863.168
09/10/2014  01:11:00      -90.301      -65.153        3.993       48.093       32.938       24.434     2312.959     1084.918      597.023        0.820        0.200      111.351       22.618        0.041      341.710       16.611      863.173
09/10/2014  01:12:00      -91.820      -51.357       -2.268       28.690       28.053       22.025      823.132      786.970      485.102        0.658        0.105      105.207       19.401        0.034      341.773       16.718      863.180
09/10/2014  01:13:00     -105.733      -40.483       -0.794       23.379       20.949       12.554      546.571      438.873      157.596        0.698        0.057      113.218        7.592        0.004      341.821       16.799      863.197
09/10/2014  01:14:00      -82.144      -14.411        3.379       40.727       28.075       23.369     1658.655      788.185      546.109        0.498        0.150       83.398       22.024        0.070      341.717       16.625      863.207
09/10/2014  01:15:00     -143.542       -0.204      -17.009       54.979       29.904       24.314     3022.674      894.227      591.151        1.270        0.225      143.542       21.759        0.023      341.497       16.250      863.207
09/10/2014  01:16:00     -111.494      -44.071        0.549       38.011       31.438       21.585     1444.867      988.333      465.923        0.864        0.145      119.888       21.480        0.032      341.464       16.194      863.188
09/10/2014  01:17:00      -54.011      -33.095        9.942       47.977       32.202       25.083     2301.813     1036.990      629.182        0.404        0.198       63.344       26.591        0.176      341.487       16.233      863.166
09/10/2014  01:18:00      -90.422      -40.459        3.226       53.184       30.877       23.873     2828.578      953.406      569.915        0.709        0.218       99.061       26.139        0.070      341.508       16.269      863.163
09/10/2014  01:19:00     -122.469      -25.217       -1.720       46.832       35.191       25.614     2193.259     1238.394      656.098        0.986        0.204      125.038       25.812        0.043      341.447       16.165      863.174
09/10/2014  01:20:00     -158.842       -7.124       -8.232       53.383       36.349       34.478     2849.770     1321.284     1188.721        1.535        0.268      159.001       31.630        0.040      341.390       16.070      863.174
09/10/2014  01:21:00      -95.594      -34.172       10.255       59.999       35.153       23.168     3599.929     1235.764      536.776        0.789        0.269      101.518       24.183        0.057      341.473       16.211      863.162
09/10/2014  01:22:00      -60.192      -40.803        2.202       33.547       28.716       17.215     1125.430      824.623      296.340        0.377        0.112       72.718       15.500        0.045      341.629       16.473      863.171
09/10/2014  01:23:00     -113.129      -71.410       -0.982       31.843       27.853       20.002     1013.987      775.764      400.091        1.004        0.109      133.782       16.582        0.015      341.722       16.632      863.168
09/10/2014  01:24:00     -149.190      -59.330       -5.574       46.318       29.308       22.676     2145.381      858.982      514.186        1.466        0.176      160.554       26.419        0.027      341.598       16.421      863.161
09/10/2014  01:25:00     -180.853      -70.132       -3.948       26.476       24.668       16.351      700.991      608.503      267.345        1.961        0.079      193.975       12.158        0.004      341.486       16.231      863.162
09/10/2014  01:26:00      -95.782      -66.295       10.147       59.869       44.994       27.079     3584.328     2024.502      733.291        1.001        0.317      116.487       30.942        0.071      341.421       16.122      863.152
09/10/2014  01:27:00      -71.085      -46.628        4.553       42.969       26.593       19.593     1846.332      707.178      383.880        0.509        0.147       85.013       11.573        0.019      341.502       16.260      863.152
09/10/2014  01:28:00      -92.324      -25.910       -0.819       40.574       32.803       17.554     1646.245     1076.017      308.158        0.611        0.152       95.891       18.112        0.036      341.498       16.252      863.182
09/10/2014  01:29:00      -96.706      -27.617       -0.407       34.755       31.292       19.688     1207.934      979.185      387.623        0.634        0.129      100.572       15.401        0.023      341.368       16.032      863.195
09/10/2014  01:30:00     -116.377      -54.080       -2.158       34.440       21.167       19.883     1186.109      448.048      395.337        0.925        0.101      128.329       15.302        0.014      341.293       15.904      863.185
09/10/2014  01:31:00     -103.392      -36.827       -1.834       52.959       22.465       18.137     2804.614      504.670      328.941        0.784        0.182      109.755       18.927        0.030      341.404       16.092      863.192
09/10/2014  01:32:00     -109.750      -38.053       -1.908       34.742       23.683       15.866     1206.998      560.883      251.723        0.776        0.101      116.160       15.045        0.017      341.399       16.085      863.192
09/10/2014  01:33:00     -143.925      -71.019       -3.502       31.400       25.205       17.567      985.974      635.270      308.604        1.385        0.096      160.493       11.788        0.005      341.411       16.104      863.180
09/10/2014  01:34:00      -78.625      -50.498       -1.760       44.741       35.279       25.978     2001.801     1244.599      674.832        0.633        0.196       93.445       19.097        0.042      341.330       15.968      863.187
09/10/2014  01:35:00      -96.343      -41.806       -1.210       38.410       23.428       15.989     1475.342      548.850      255.644        0.666        0.114      105.022       14.714        0.020      341.364       16.025      863.191
09/10/2014  01:36:00     -140.766      -65.441       -3.492       22.281       23.722       17.576      496.449      562.746      308.921        1.274        0.068      155.234       13.621        0.008      341.333       15.972      863.179
09/10/2014  01:37:00      -76.170      -53.078        5.721       54.611       32.359       26.915     2982.414     1047.110      724.438        0.670        0.238       92.839       30.179        0.106      341.221       15.783      863.175
09/10/2014  01:38:00      -98.934      -82.979       -3.857       42.428       33.809       18.688     1800.152     1143.021      349.234        0.999        0.165      129.125       19.239        0.022      341.335       15.976      863.175
09/10/2014  01:39:00     -103.823      -90.180       -1.433       41.541       45.137       25.249     1725.636     2037.306      637.489        1.166        0.220      137.520       21.711        0.025      341.444       16.161      863.156
09/10/2014  01:40:00     -104.493      -69.684        4.860       57.301       37.575       24.598     3283.403     1411.853      605.066        1.055        0.265      125.597       26.699        0.045      341.418       16.117      863.152
09/10/2014  01:41:00      -70.677      -55.453       10.211       63.518       42.003       33.587     4034.594     1764.219     1128.109        0.755        0.346       89.834       28.832        0.103      341.435       16.145      863.158
09/10/2014  01:42:00     -103.940      -70.835        3.999       54.043       29.564       23.750     2920.616      874.009      564.050        1.010        0.218      125.782       24.541        0.038      341.427       16.131      863.151
09/10/2014  01:43:00      -71.669      -70.374        5.238       38.116       30.414       19.507     1452.827      925.030      380.534        0.644        0.138      100.444       20.326        0.041      341.421       16.121      863.163
09/10/2014  01:44:00     -104.263      -50.786       -3.096       37.165       25.519       16.133     1381.231      651.215      260.262        0.788        0.115      115.974       16.174        0.019      341.440       16.154      863.168
09/10/2014  01:45:00      -71.755      -58.275        2.504       35.904       22.149       22.266     1289.089      490.580      495.785        0.541        0.114       92.438       21.302        0.053      341.360       16.019      863.173
09/10/2014  01:46:00      -60.144      -57.702        0.983       35.976       26.983       20.651     1294.273      728.086      426.457        0.470        0.122       83.347       17.607        0.045      341.412       16.106      863.172
09/10/2014  01:47:00       -4.721      -22.387       22.309       27.798       29.173       18.000      772.734      851.091      324.011        0.148        0.097       22.880       16.520        0.521      341.362       16.021      863.183
09/10/2014  01:48:00      -27.705      -44.014        9.898       35.907       33.153       21.459     1289.343     1099.154      460.496        0.283        0.142       52.007       17.463        0.113      341.470       16.205      863.193
09/10/2014  01:49:00      -65.520      -75.825       -0.455       35.634       30.719       16.241     1269.809      943.675      263.769        0.626        0.124      100.211       18.323        0.033      341.577       16.386      863.194
09/10/2014  01:50:00      -65.686      -71.763       -1.955       45.168       37.101       23.895     2040.186     1376.501      570.962        0.673        0.199       97.286       24.025        0.061      341.482       16.224      863.199
09/10/2014  01:51:00      -72.441      -63.076       -7.030       47.018       27.671       20.595     2210.721      765.681      424.154        0.634        0.170       96.053       19.903        0.043      341.491       16.241      863.217
09/10/2014  01:52:00      -88.481      -72.884       -2.264       40.561       22.600       19.272     1645.165      510.737      371.397        0.784        0.126      114.634       10.034        0.008      341.487       16.233      863.225
09/10/2014  01:53:00      -77.539      -43.941       -6.863       55.447       31.957       25.574     3074.339     1021.232      654.046        0.637        0.237       89.124       33.431        0.141      341.400       16.087      863.224
09/10/2014  01:54:00     -130.962      -89.247       -4.149       34.768       23.245       19.649     1208.825      540.322      386.086        1.363        0.107      158.481       13.509        0.007      341.442       16.158      863.233
09/10/2014  01:55:00     -116.227      -71.726       -2.909       45.291       26.884       25.907     2051.263      722.765      671.194        1.105        0.172      136.577       18.360        0.018      341.417       16.114      863.244
09/10/2014  01:56:00     -152.634      -76.591       -6.657       37.292       28.219       18.253     1390.713      796.338      333.172        1.586        0.126      170.773       17.269        0.010      341.494       16.245      863.243
09/10/2014  01:57:00     -133.310     -105.976       -0.132       43.977       44.169       28.396     1933.980     1950.935      806.335        1.685        0.235      170.301       22.273        0.017      341.339       15.983      863.241
09/10/2014  01:58:00     -121.213      -95.096        3.059       52.558       40.641       30.295     2762.323     1651.693      917.773        1.454        0.267      154.064       27.949        0.033      341.360       16.018      863.255
09/10/2014  01:59:00     -141.585      -90.978        2.823       46.756       35.940       29.193     2186.083     1291.715      852.255        1.633        0.217      168.295       23.367        0.019      341.332       15.970      863.272
09/10/2014  02:00:00     -159.759      -57.524       -9.177       47.872       38.340       17.747     2291.735     1469.941      314.966        1.650        0.204      169.800       13.515        0.006      341.328       15.963      863.283
09/10/2014  02:01:00     -145.549      -67.697       -3.366       67.297       48.084       31.714     4528.944     2312.044     1005.775        1.681        0.392      160.522       35.813        0.050      341.307       15.928      863.284
09/10/2014  02:02:00     -179.851     -100.525      -14.724       48.458       40.536       22.853     2348.169     1643.187      522.242        2.359        0.226      206.038       21.052        0.010      341.395       16.076      863.293
09/10/2014  02:03:00     -169.368      -64.289       -5.280       48.931       50.817       30.981     2394.231     2582.343      959.837        1.939        0.297      181.159       25.375        0.020      341.311       15.934      863.308
09/10/2014  02:04:00     -162.764      -47.753        2.239       63.821       44.396       26.313     4073.120     1970.988      692.375        1.776        0.337      169.625       29.117        0.029      341.337       15.977      863.307
09/10/2014  02:05:00     -162.015      -51.264       -5.265       59.172       46.985       27.874     3501.319     2207.616      776.951        1.769        0.324      169.932       28.549        0.028      341.356       16.011      863.305
09/10/2014  02:06:00     -138.288      -37.817      -12.408       33.687       30.073       19.462     1134.836      904.398      378.766        1.156        0.121      143.365        9.419        0.004      341.360       16.017      863.306
09/10/2014  02:07:00     -138.889        6.322      -13.013       28.511       34.399       22.569      812.888     1183.260      509.378        1.100        0.125      139.033       16.340        0.014      341.330       15.968      863.302
09/10/2014  02:08:00     -128.400      -28.051      -10.057       39.955       33.497       20.659     1596.418     1122.059      426.797        1.026        0.157      131.428       22.565        0.029      341.291       15.902      863.293
09/10/2014  02:09:00     -107.437      -45.673       -5.857       21.855       27.497       13.176      477.651      756.076      173.600        0.753        0.070      116.742       11.448        0.010      341.315       15.944      863.302
09/10/2014  02:10:00     -136.064      -61.082       -8.560       22.385       25.997       14.883      501.077      675.870      221.499        1.186        0.070      149.146       13.197        0.008      341.299       15.916      863.303
09/10/2014  02:11:00     -113.008      -36.157       -3.732       31.902       26.068       16.793     1017.726      679.515      282.004        0.804        0.099      118.651       14.873        0.016      341.322       15.955      863.293
09/10/2014  02:12:00      -69.608      -31.988        0.156       30.687       31.367       15.957      941.681      983.866      254.641        0.402        0.109       76.607       10.586        0.019      341.333       15.972      863.281
09/10/2014  02:13:00      -53.956      -19.481       -3.018       18.267       16.586       12.093      333.672      275.110      146.229        0.203        0.038       57.365        6.238        0.012      341.253       15.836      863.277
09/10/2014  02:14:00      -76.587      -26.180       -1.956       23.496       19.150       12.428      552.065      366.730      154.447        0.381        0.054       80.938        9.966        0.015      341.288       15.897      863.286
09/10/2014  02:15:00      -75.098      -30.705        3.951       24.759       19.715       14.259      613.011      388.663      203.306        0.390        0.060       81.133       12.152        0.022      341.211       15.767      863.291
09/10/2014  02:16:00      -71.945      -43.944        3.182       41.549       24.748       17.171     1726.332      612.444      294.859        0.487        0.132       84.304        9.538        0.013      341.392       16.073      863.293
09/10/2014  02:17:00        0.871      -22.931        8.491       17.325       12.570       11.288      300.150      158.004      127.409        0.059        0.029       22.948        5.767        0.063      341.461       16.189      863.292
09/10/2014  02:18:00      -26.095       -9.296        2.370       23.855       20.062       11.247      569.079      402.474      126.488        0.094        0.055       27.702        9.763        0.124      341.494       16.245      863.311
09/10/2014  02:19:00      -42.706       26.404       -2.754       13.811       15.139        8.301      190.735      229.195       68.909        0.151        0.024       50.209        5.868        0.014      341.418       16.116      863.315
09/10/2014  02:20:00      -54.471       32.469       -5.271       16.613       17.233       12.349      276.000      296.989      152.500        0.239        0.036       63.414        9.836        0.024      341.360       16.018      863.318
09/10/2014  02:21:00      -53.399       41.357      -12.177       14.314       15.994        6.427      204.882      255.819       41.306        0.261        0.025       67.541        4.321        0.004      341.453       16.174      863.322
09/10/2014  02:22:00      -51.271       32.167      -10.685        8.224       18.906        9.297       67.629      357.435       86.426        0.214        0.026       60.526       10.076        0.028      341.401       16.088      863.324
09/10/2014  02:23:00      -43.917      -12.404      -10.494       27.246       18.537       12.249      742.370      343.611      150.049        0.171        0.062       45.636       11.881        0.068      341.395       16.077      863.328
09/10/2014  02:24:00       -7.524       -1.305        0.010       10.754       16.795        8.711      115.653      282.057       75.880        0.027        0.024        7.636        9.150        1.436      341.401       16.087      863.326
09/10/2014  02:25:00      -56.125       25.918      -11.174       24.552       16.095       10.696      602.799      259.053      114.396        0.246        0.049       61.821       12.054        0.038      341.313       15.939      863.323
09/10/2014  02:26:00      -94.207       12.957       -8.450       34.668       37.394       21.191     1201.902     1398.299      449.053        0.608        0.152       95.094       19.920        0.044      341.345       15.994      863.328
09/10/2014  02:27:00      -50.328      -28.246       -5.410       32.795       11.709       10.591     1075.509      137.095      112.162        0.234        0.066       57.713       11.337        0.039      341.397       16.081      863.322
09/10/2014  02:28:00      -44.496      -36.435       -2.407       19.706       11.031       10.001      388.308      121.690      100.011        0.196        0.031       57.510        8.059        0.020      341.433       16.143      863.310
09/10/2014  02:29:00     -109.337      -49.517       -4.673       21.989       18.179       13.547      483.531      330.472      183.527        0.771        0.050      120.027        4.091        0.001      341.157       15.675      863.294
09/10/2014  02:30:00     -108.266      -34.557       -0.991       34.060       23.100       15.852     1160.072      533.607      251.273        0.743        0.097      113.647       13.599        0.014      341.028       15.456      863.283
09/10/2014  02:31:00      -79.504      -31.310        4.406       33.733       24.567       16.186     1137.923      603.562      261.972        0.466        0.100       85.447       16.244        0.036      341.030       15.460      863.281
09/10/2014  02:32:00      -76.771      -21.407        4.373       31.216       20.058       17.268      974.430      402.327      298.178        0.402        0.084       79.699       19.489        0.060      340.988       15.388      863.273
09/10/2014  02:33:00      -56.168      -13.243        1.150       31.639       22.352       14.576     1001.009      499.601      212.447        0.252        0.086       57.708       17.068        0.087      341.012       15.429      863.273
09/10/2014  02:34:00      -57.297      -31.427        3.144       20.452       20.945       12.378      418.270      438.712      153.217        0.265        0.051       65.349       11.302        0.030      341.048       15.490      863.282
09/10/2014  02:35:00      -44.958      -12.446        2.625       25.196       31.197       12.450      634.840      973.281      155.006        0.197        0.088       46.649       10.973        0.055      340.972       15.361      863.284
09/10/2014  02:36:00      -73.119       19.346       -6.412       24.629       19.192       15.209      606.606      368.316      231.304        0.348        0.060       75.635       10.556        0.019      340.805       15.079      863.285
09/10/2014  02:37:00      -91.409      -18.483       -7.229       18.628       20.028       13.702      347.013      401.118      187.740        0.484        0.047       93.259       11.131        0.014      340.896       15.234      863.282
09/10/2014  02:38:00      -69.080      -37.321        4.408       27.065       27.435       16.751      732.520      752.660      280.582        0.397        0.088       78.517       12.235        0.024      340.787       15.048      863.280
09/10/2014  02:39:00     -112.112      -18.313        1.891       37.798       26.145       19.343     1428.696      683.586      374.162        0.770        0.124      113.598       20.981        0.034      340.802       15.074      863.278
09/10/2014  02:40:00     -115.681      -30.868        1.344       33.237       28.678       17.215     1104.667      822.412      296.343        0.828        0.111      119.729       14.569        0.015      340.830       15.120      863.269
09/10/2014  02:41:00     -111.059      -51.079        6.209       39.914       29.183       21.133     1593.144      851.632      446.605        0.894        0.145      122.242       20.195        0.027      340.895       15.232      863.266
09/10/2014  02:42:00     -114.852      -47.065        5.134       43.036       26.868       19.993     1852.088      721.894      399.708        0.920        0.149      124.121       21.573        0.030      340.926       15.283      863.264
09/10/2014  02:43:00     -123.058      -50.038       -3.614       34.916       29.688       16.027     1219.154      881.389      256.873        1.001        0.118      132.842       15.255        0.013      340.937       15.301      863.263
09/10/2014  02:44:00      -85.256      -60.202        5.575       42.274       33.838       19.897     1787.059     1145.013      395.877        0.713        0.166      104.369       20.777        0.040      340.875       15.198      863.273
09/10/2014  02:45:00      -74.369      -52.941       -3.986       33.039       32.558       20.127     1091.543     1060.046      405.099        0.545        0.128       91.288       20.703        0.051      340.927       15.285      863.290
09/10/2014  02:46:00      -72.594      -15.177       -7.070       31.481       25.720       18.068      991.050      661.522      326.458        0.376        0.099       74.163       15.391        0.043      340.894       15.228      863.293
09/10/2014  02:47:00      -85.889      -39.553        0.599       44.462       32.321       17.768     1976.904     1044.633      315.699        0.614        0.167       94.559       19.507        0.043      340.831       15.123      863.302
09/10/2014  02:48:00      -45.807      -14.760        4.580       28.051       22.108       15.026      786.871      488.752      225.775        0.192        0.075       48.126       10.850        0.051      340.710       14.917      863.308
09/10/2014  02:49:00      -59.354      -35.468        1.199       20.734       20.765       13.691      429.904      431.169      187.447        0.292        0.052       69.144       13.782        0.040      340.919       15.272      863.304
09/10/2014  02:50:00      -33.562      -35.764       -1.362       25.902       15.045        8.269      670.909      226.338       68.376        0.169        0.048       49.045        7.607        0.024      341.030       15.460      863.306
09/10/2014  02:51:00      -61.829      -24.069       -8.003       16.636       19.556       10.162      276.741      382.438      103.270        0.261        0.038       66.349        8.322        0.016      341.114       15.602      863.310
09/10/2014  02:52:00      -73.421        2.875      -12.649       13.527       17.836        9.441      182.974      318.113       89.126        0.307        0.030       73.477        7.225        0.010      341.047       15.487      863.302
09/10/2014  02:53:00      -61.656      -46.262        0.921       32.596       18.519       10.992     1062.496      342.940      120.815        0.373        0.076       77.082       11.551        0.022      340.993       15.397      863.296
09/10/2014  02:54:00      -23.243      -25.456       15.126       34.136       25.340       17.671     1165.289      642.113      312.273        0.177        0.106       34.471       18.405        0.285      340.905       15.249      863.289
09/10/2014  02:55:00      -39.540      -35.267        2.693       28.751       16.574       13.371      826.612      274.709      178.782        0.205        0.064       52.983       13.129        0.061      340.872       15.192      863.288
09/10/2014  02:56:00      -37.083      -20.576        1.550       27.519       12.378       11.592      757.270      153.219      134.380        0.142        0.052       42.409       10.931        0.066      340.935       15.299      863.288
09/10/2014  02:57:00      -69.354      -41.478        0.015       37.638       17.167       11.716     1416.626      294.691      137.274        0.419        0.092       80.811        7.637        0.009      340.937       15.302      863.290
09/10/2014  02:58:00      -85.320      -36.194        0.813       30.333       17.333       15.005      920.097      300.440      225.147        0.502        0.072       92.680       15.274        0.027      340.773       15.025      863.291
09/10/2014  02:59:00      -61.686      -24.577        0.207       25.081       14.376        9.473      629.039      206.671       89.735        0.267        0.046       66.402       10.161        0.023      340.788       15.050      863.283
09/10/2014  03:00:00      -17.412      -24.529       13.106       26.699       15.038       16.484      712.859      226.152      271.725        0.114        0.061       30.081       17.554        0.341      340.799       15.069      863.282
09/10/2014  03:01:00      -21.481      -23.965        6.996       20.541       16.540       13.875      421.938      273.582      192.522        0.099        0.044       32.183       12.271        0.145      340.847       15.150      863.291
09/10/2014  03:02:00      -11.548      -30.869        7.833       20.857       21.213       17.583      435.025      449.991      309.150        0.117        0.060       32.959       13.415        0.166      340.850       15.155      863.298
09/10/2014  03:03:00      -31.585      -32.035        1.140       19.780       15.580       13.794      391.255      242.721      190.262        0.142        0.041       44.987       12.038        0.072      340.755       14.994      863.300
09/10/2014  03:04:00      -67.171      -45.651        4.576       31.662       32.524       18.373     1002.484     1057.788      337.574        0.451        0.120       81.215       18.747        0.053      340.732       14.958      863.300
09/10/2014  03:05:00      -36.627      -30.079        4.732       28.411       26.514       17.504      807.177      702.984      306.381        0.204        0.091       47.395       18.633        0.155      340.578       14.698      863.311
09/10/2014  03:06:00      -59.989      -61.379        1.217       40.809       29.218       17.996     1665.335      853.669      323.856        0.510        0.142       85.825       18.363        0.046      340.685       14.876      863.319
09/10/2014  03:07:00      -36.069      -26.228       10.684       33.583       17.320       16.644     1127.820      299.981      277.028        0.190        0.085       44.597       16.792        0.142      340.643       14.805      863.315
09/10/2014  03:08:00      -40.591      -34.278       -1.589       24.216       16.338       10.785      586.403      266.915      116.308        0.190        0.048       53.128        8.471        0.025      340.721       14.936      863.307
09/10/2014  03:09:00      -55.280      -26.728       -3.202       14.570       12.709       10.154      212.293      161.513      103.110        0.213        0.024       61.402        9.066        0.022      340.738       14.967      863.306
09/10/2014  03:10:00      -75.355      -27.710       -9.862       10.665       15.040        9.076      113.740      226.192       82.370        0.348        0.021       80.288        3.934        0.002      340.761       15.005      863.320
09/10/2014  03:11:00      -27.310      -36.913       -0.207       26.952       16.593        8.830      726.401      275.325       77.965        0.159        0.054       45.917        8.552        0.035      340.724       14.943      863.336
09/10/2014  03:12:00      -19.045      -18.295        3.070       20.691       13.522       10.870      428.105      182.849      118.161        0.072        0.036       26.409        8.296        0.099      340.739       14.967      863.340
09/10/2014  03:13:00      -13.315       -1.559        6.866       20.569       18.734       11.115      423.073      350.963      123.548        0.056        0.045       13.406       15.110        1.270      340.728       14.949      863.355
09/10/2014  03:14:00       -2.140       12.242        7.331       13.497        8.894       10.149      182.156       79.111      103.007        0.029        0.018       12.427        9.655        0.604      340.611       14.751      863.368
09/10/2014  03:15:00       26.365       48.585        0.622       17.992       32.972       12.778      323.722     1087.134      163.270        0.231        0.079       55.278       16.816        0.093      340.596       14.725      863.382
09/10/2014  03:16:00       47.799       56.013       -2.695       22.189       23.202       14.244      492.344      538.323      202.903        0.333        0.062       73.636       10.660        0.021      340.310       14.241      863.403
09/10/2014  03:17:00       32.002       35.811       36.430       30.333       32.286       31.022      920.071     1042.417      962.351        0.328        0.146       48.026       22.597        0.221      340.249       14.139      863.409
09/10/2014  03:18:00       17.849       39.949       56.775       26.817       32.442       23.696      719.169     1052.492      561.514        0.374        0.117       43.755       22.116        0.255      340.308       14.239      863.417
09/10/2014  03:19:00        2.791       38.280       54.874       19.796       22.706       12.339      391.880      515.566      152.258        0.277        0.053       38.381       12.474        0.106      340.156       13.981      863.431
09/10/2014  03:20:00       -8.615      -22.075       10.814       17.220       28.836       22.609      296.526      831.504      511.158        0.116        0.082       23.696       18.342        0.599      340.433       14.451      863.449
09/10/2014  03:21:00      -21.094      -32.426       -6.145       30.483       19.512       12.171      929.210      380.725      148.134        0.150        0.073       38.684       12.835        0.110      340.448       14.474      863.458
09/10/2014  03:22:00       32.138      -46.496       -8.596       24.898       24.523       16.238      619.935      601.366      263.679        0.238        0.074       56.522       17.871        0.100      340.519       14.596      863.463
09/10/2014  03:23:00       17.588      -26.289        8.762       25.975       40.756       28.114      674.710     1661.076      790.380        0.210        0.156       31.629       31.836        1.013      340.444       14.469      863.451
09/10/2014  03:24:00        0.179        6.343       21.439       15.878       16.924       13.767      252.110      286.425      189.530        0.061        0.036        6.345       12.187        3.689      340.341       14.294      863.442
09/10/2014  03:25:00      -10.507      -30.050       -9.784       34.985       16.606       11.779     1223.959      275.755      138.745        0.137        0.082       31.834        9.333        0.086      340.650       14.818      863.437
09/10/2014  03:26:00      -49.331       -6.155       -2.878       11.637       12.149        7.478      135.416      147.608       55.925        0.141        0.017       49.713        4.276        0.007      340.789       15.053      863.431
09/10/2014  03:27:00      -39.870      -20.823        1.085       14.407       14.030       11.999      207.557      196.828      143.969        0.129        0.027       44.980       10.898        0.059      340.584       14.705      863.427
09/10/2014  03:28:00      -69.305      -11.207       -4.182       25.623       23.724       12.328      656.556      562.851      151.971        0.316        0.069       70.205        8.074        0.013      340.254       14.147      863.421
09/10/2014  03:29:00      -23.643      -28.562       -2.373       50.563       16.105       11.199     2556.576      259.364      125.415        0.216        0.147       37.078        9.618        0.067      340.348       14.306      863.437
09/10/2014  03:30:00        1.363      -22.170       -5.080       11.687       25.053       12.145      136.585      627.637      147.508        0.072        0.046       22.212       10.293        0.215      340.462       14.498      863.431
09/10/2014  03:31:00        0.546       36.592        2.787       16.822       13.518       14.198      282.977      182.745      201.575        0.101        0.033       36.596        8.476        0.054      340.540       14.630      863.438
09/10/2014  03:32:00      -56.701       17.057      -12.196       26.427       11.586        9.976      698.376      134.244       99.511        0.229        0.047       59.211        2.792        0.002      340.607       14.746      863.447
09/10/2014  03:33:00     -101.115        9.834       -6.733       16.193       12.782       10.927      262.227      163.385      119.408        0.546        0.027      101.592        8.623        0.007      340.472       14.516      863.449
09/10/2014  03:34:00      -92.962       12.879      -10.404       16.071       18.378        8.483      258.274      337.769       71.963        0.479        0.033       93.850        5.981        0.004      340.359       14.324      863.447
09/10/2014  03:35:00      -78.179       -3.595      -10.575       26.669       17.005       12.723      711.238      289.165      161.869        0.370        0.058       78.262       13.862        0.031      340.134       13.944      863.443
09/10/2014  03:36:00      -74.215      -28.912       -5.373       23.429       27.267       16.313      548.935      743.467      266.107        0.397        0.078       79.648        9.952        0.016      340.157       13.983      863.444
09/10/2014  03:37:00     -124.544      -55.584      -17.105       23.310       21.653       16.946      543.350      468.845      287.168        1.010        0.065      136.384        7.740        0.003      340.127       13.932      863.447
09/10/2014  03:38:00     -122.872      -33.265      -13.899       34.638       26.860       20.318     1199.815      721.444      412.839        0.937        0.117      127.296       20.970        0.027      339.973       13.674      863.437
09/10/2014  03:39:00     -133.348      -48.625      -11.743       38.539       23.717       15.097     1485.253      562.486      227.912        1.128        0.114      141.937       16.810        0.014      339.918       13.581      863.432
09/10/2014  03:40:00     -140.963      -34.350       -8.104       30.095       32.554       18.304      905.710     1059.769      335.030        1.171        0.115      145.087       15.853        0.012      339.877       13.513      863.433
09/10/2014  03:41:00     -144.751      -30.472       -3.509       37.555       36.547       22.502     1410.360     1335.681      506.318        1.257        0.163      147.924       21.854        0.022      340.007       13.731      863.430
09/10/2014  03:42:00     -139.861      -36.191       -8.883       39.688       26.173       22.835     1575.160      685.018      521.416        1.187        0.139      144.468       18.317        0.016      339.939       13.617      863.425
09/10/2014  03:43:00     -145.860      -39.477      -10.383       26.787       30.394       21.428      717.523      923.776      459.176        1.252        0.105      151.108       15.895        0.011      339.904       13.556      863.423
09/10/2014  03:44:00     -104.080      -30.250       -1.539       32.815       33.828       18.363     1076.817     1144.303      337.212        0.715        0.128      108.387       14.252        0.017      339.931       13.602      863.428
09/10/2014  03:45:00     -114.414       -9.664        1.323       41.923       32.263       19.377     1757.568     1040.919      375.467        0.818        0.159      114.822       20.356        0.031      339.915       13.574      863.441
09/10/2014  03:46:00     -109.477      -14.440      -10.426       23.270       21.569       14.966      541.495      465.229      223.984        0.677        0.062      110.425       10.018        0.008      339.985       13.695      863.456
09/10/2014  03:47:00      -87.302      -18.640       -9.254       12.197       11.828        7.621      148.773      139.901       58.085        0.420        0.017       89.270        4.332        0.002      340.076       13.846      863.474
09/10/2014  03:48:00      -76.336      -19.685       -2.769       23.919       20.756       11.212      572.105      430.821      125.699        0.368        0.056       78.833        8.621        0.012      340.139       13.953      863.489
09/10/2014  03:49:00      -91.536      -54.781       -0.796       28.391       23.061       15.256      806.044      531.803      232.754        0.648        0.079      106.676       13.183        0.015      340.181       14.024      863.491
09/10/2014  03:50:00      -99.170      -61.048       -1.762       31.498       19.624       14.938      992.125      385.103      223.149        0.758        0.080      116.454       16.229        0.019      340.177       14.018      863.479
09/10/2014  03:51:00      -81.700      -70.373       -4.863       42.578       30.980       17.461     1812.861      959.734      304.900        0.736        0.154      107.830       18.952        0.031      340.191       14.040      863.484
09/10/2014  03:52:00      -76.111      -65.314        3.601       40.025       31.313       23.148     1602.001      980.519      535.810        0.659        0.156      100.294       24.037        0.057      340.209       14.072      863.496
09/10/2014  03:53:00      -59.658      -31.154        8.413       46.914       42.819       27.074     2200.930     1833.452      733.023        0.468        0.238       67.303       27.316        0.165      340.207       14.067      863.498
09/10/2014  03:54:00      -77.042      -56.951        3.463       48.650       38.552       29.372     2366.779     1486.260      862.742        0.695        0.236       95.806       28.213        0.087      340.274       14.182      863.513
09/10/2014  03:55:00      -39.521      -53.099       16.167       58.652       40.043       32.157     3440.043     1603.434     1034.097        0.536        0.304       66.192       29.748        0.202      340.247       14.135      863.526
09/10/2014  03:56:00      -89.887      -62.150        3.456       51.434       44.876       29.886     2645.498     2013.883      893.160        0.875        0.278      109.281       28.291        0.067      340.286       14.202      863.533
09/10/2014  03:57:00      -68.581      -62.619        2.914       47.219       39.295       24.027     2229.630     1544.115      577.316        0.649        0.218       92.868       22.154        0.057      340.293       14.213      863.548
09/10/2014  03:58:00      -72.763      -66.014        7.885       51.347       32.138       22.221     2636.514     1032.834      493.787        0.694        0.208       98.246       23.736        0.058      340.408       14.408      863.561
09/10/2014  03:59:00      -58.970      -41.223        4.880       38.937       30.324       18.333     1516.124      919.570      336.097        0.399        0.139       71.950       14.422        0.040      340.426       14.438      863.570
09/10/2014  04:00:00      -35.579      -42.392        8.698       35.533       28.896       18.541     1262.607      834.995      343.759        0.279        0.122       55.344       18.734        0.115      340.469       14.512      863.576
09/10/2014  04:01:00      -87.408      -43.734       -0.504       51.517       30.168       16.287     2653.980      910.133      265.254        0.669        0.191       97.739       22.238        0.052      340.379       14.358      863.602
09/10/2014  04:02:00     -117.806      -63.585       -2.316       28.140       21.887       14.793      791.869      479.043      218.825        0.971        0.074      133.871       12.972        0.009      340.233       14.111      863.609
09/10/2014  04:03:00      -88.543      -66.998       -2.883       60.353       27.579       20.993     3642.475      760.626      440.723        0.859        0.242      111.034       19.794        0.032      340.265       14.165      863.614
09/10/2014  04:04:00     -125.572      -71.611       -1.813       39.217       30.175       23.211     1538.009      910.545      538.732        1.194        0.149      144.556       15.303        0.011      340.190       14.039      863.631
09/10/2014  04:05:00     -126.359      -90.898      -22.509       40.607       39.377       25.245     1648.955     1550.524      637.291        1.429        0.192      155.657       11.012        0.005      340.279       14.190      863.643
09/10/2014  04:06:00      -97.153      -55.964        4.647       30.199       26.740       19.118      911.949      715.034      365.503        0.729        0.100      112.119       13.387        0.014      340.222       14.092      863.662
09/10/2014  04:07:00      -80.174      -59.131        1.277       48.198       30.506       24.084     2323.044      930.616      580.018        0.688        0.192       99.621       22.040        0.049      340.191       14.040      863.672
09/10/2014  04:08:00      -65.855      -53.475        4.044       57.174       41.706       31.088     3268.837     1739.423      966.476        0.659        0.299       84.833       31.195        0.135      340.187       14.035      863.672
09/10/2014  04:09:00     -132.905     -123.678      -11.853       35.583       44.511       18.983     1266.179     1981.200      360.353        1.835        0.180      181.549       15.599        0.007      340.236       14.116      863.682
09/10/2014  04:10:00     -145.741     -100.682       -7.519       37.232       39.479       26.543     1386.246     1558.580      704.529        1.754        0.182      177.136       19.031        0.012      340.132       13.941      863.682
09/10/2014  04:11:00     -117.924      -72.159       -1.036       51.903       38.183       24.502     2693.901     1457.966      600.370        1.193        0.238      138.249       28.450        0.042      340.085       13.862      863.661
09/10/2014  04:12:00     -130.813      -59.104       -3.032       53.672       37.409       28.707     2880.692     1399.401      824.069        1.286        0.255      143.545       29.064        0.041      340.113       13.909      863.653
09/10/2014  04:13:00     -121.354      -38.352       -2.185       47.938       42.044       29.069     2298.040     1767.686      845.008        1.056        0.246      127.270       27.039        0.045      340.053       13.808      863.647
09/10/2014  04:14:00     -124.159      -58.361        5.217       53.752       49.166       32.379     2889.322     2417.270     1048.385        1.260        0.318      137.192       24.112        0.031      340.055       13.813      863.635
09/10/2014  04:15:00     -131.870      -88.286       -7.070       55.076       45.313       23.568     3033.391     2053.254      555.430        1.544        0.282      158.694       27.905        0.031      340.087       13.867      863.625
09/10/2014  04:16:00     -137.627      -95.064       -7.133       32.837       29.049       23.423     1078.280      843.833      548.636        1.525        0.124      167.267       19.303        0.013      340.078       13.851      863.630
09/10/2014  04:17:00     -131.887     -103.716       -6.932       39.871       34.246       23.524     1589.669     1172.813      553.357        1.576        0.166      167.783       23.621        0.020      340.099       13.886      863.631
09/10/2014  04:18:00     -184.046     -112.445      -12.408       64.115       60.639       38.311     4110.752     3677.064     1467.729        2.796        0.463      215.678       36.873        0.029      340.030       13.766      863.618
09/10/2014  04:19:00     -181.155     -105.714       -5.533       75.291       55.040       39.341     5668.738     3029.405     1547.703        2.713        0.512      209.744       42.112        0.040      340.005       13.724      863.621
09/10/2014  04:20:00     -118.405      -39.552        6.072       88.422       46.658       34.450     7818.512     2176.975     1186.789        1.340        0.559      124.837       31.434        0.063      340.003       13.723      863.649
09/10/2014  04:21:00      -89.138      -40.641        9.658       66.067       40.158       27.479     4364.786     1612.688      755.104        0.821        0.337       97.966       28.165        0.083      339.957       13.647      863.661
09/10/2014  04:22:00      -84.864      -54.883       -5.049       50.346       44.890       23.224     2534.742     2015.110      539.359        0.766        0.254      101.064       18.528        0.034      339.956       13.645      863.673
09/10/2014  04:23:00     -100.219      -59.687        2.875       47.316       40.377       23.875     2238.815     1630.309      570.016        0.903        0.222      116.646       22.192        0.036      340.017       13.747      863.688
09/10/2014  04:24:00     -111.064      -65.793        0.770       32.774       36.027       21.255     1074.157     1297.933      451.764        0.974        0.141      129.089       22.338        0.030      340.036       13.781      863.703
09/10/2014  04:25:00     -108.971      -70.389        6.928       34.291       32.167       24.519     1175.905     1034.726      601.175        0.984        0.141      129.728       21.865        0.028      339.963       13.656      863.710
09/10/2014  04:26:00      -77.650      -78.354        2.155       66.455       51.557       29.716     4416.288     2658.127      883.051        1.006        0.398      110.312       38.752        0.123      339.955       13.643      863.709
09/10/2014  04:27:00     -131.177      -76.389       -1.877       42.916       37.266       24.154     1841.799     1388.729      583.423        1.343        0.191      151.798       20.218        0.018      339.955       13.643      863.698
09/10/2014  04:28:00     -110.136      -58.921        2.587       62.626       37.484       25.193     3922.044     1405.069      634.708        1.078        0.298      124.907       24.454        0.038      339.937       13.613      863.703
09/10/2014  04:29:00      -82.816      -67.647       -2.822       42.807       42.375       22.621     1832.437     1795.620      511.715        0.779        0.207      106.932       22.434        0.044      339.963       13.655      863.716
09/10/2014  04:30:00      -42.677      -87.518       -4.764       30.114       20.589       18.285      906.845      423.917      334.324        0.558        0.083       97.369       17.159        0.031      340.014       13.740      863.726
09/10/2014  04:31:00      -22.120      -44.053        1.965       20.044       18.610       13.413      401.753      346.350      179.913        0.168        0.046       49.295        5.894        0.014      340.029       13.767      863.746
09/10/2014  04:32:00        1.731      -32.762       -5.745       14.321       20.814       11.868      205.095      433.217      140.848        0.094        0.039       32.808       10.165        0.096      340.046       13.796      863.763
09/10/2014  04:33:00      -12.875      -17.229        1.106       15.151       11.039        6.572      229.544      121.868       43.194        0.043        0.020       21.508        2.681        0.016      340.043       13.793      863.771
09/10/2014  04:34:00      -49.423      -27.509       -2.363       15.317       19.583       11.082      234.598      383.509      122.811        0.197        0.037       56.563        7.693        0.018      340.041       13.788      863.760
09/10/2014  04:35:00      -74.348       -5.501       -4.060       18.481       26.655       11.519      341.554      710.484      132.696        0.338        0.059       74.551        8.425        0.013      339.961       13.652      863.752
09/10/2014  04:36:00      -99.232      -30.663       -1.311       34.411       28.161       13.501     1184.128      793.020      182.277        0.647        0.108      103.862        9.287        0.008      339.872       13.503      863.756
09/10/2014  04:37:00      -82.678      -53.955        2.120       32.473       20.626       17.241     1054.492      425.419      297.268        0.576        0.089       98.726       15.349        0.024      339.805       13.391      863.753
09/10/2014  04:38:00      -80.481      -46.037       -5.811       29.250       28.234       14.953      855.565      797.186      223.584        0.525        0.094       92.718       13.274        0.020      339.801       13.384      863.754
09/10/2014  04:39:00      -75.009      -41.082       -6.383       23.343       22.187       13.622      544.901      492.241      185.556        0.429        0.061       85.523        8.864        0.011      339.829       13.430      863.770
09/10/2014  04:40:00      -72.851        2.651       -7.870       14.252       15.565       12.583      203.121      242.285      158.321        0.299        0.030       72.899        9.191        0.016      339.807       13.395      863.778
09/10/2014  04:41:00      -62.534        1.692       -4.607       10.246        9.765        6.428      104.976       95.350       41.320        0.209        0.012       62.557        4.004        0.004      339.714       13.238      863.776
09/10/2014  04:42:00      -34.335       -4.481       -5.343        8.419        9.556        5.111       70.872       91.322       26.122        0.071        0.009       34.626        4.779        0.019      339.732       13.267      863.775
09/10/2014  04:43:00      -62.255      -30.920       -5.544       20.073       10.445        6.111      402.927      109.094       37.347        0.271        0.027       69.510        5.657        0.007      339.852       13.469      863.768
09/10/2014  04:44:00      -54.863      -17.143       -1.298       21.578       10.336        7.515      465.612      106.832       56.472        0.197        0.031       57.479        9.278        0.026      339.787       13.360      863.766
09/10/2014  04:45:00      -27.796      -13.225       -2.066       22.835        9.454        8.368      521.427       89.374       70.019        0.082        0.034       30.782        6.287        0.042      339.745       13.290      863.766
09/10/2014  04:46:00      -57.927      -29.517       -7.084       17.585       13.255        7.746      309.230      175.688       60.003        0.241        0.027       65.014        5.093        0.006      339.918       13.581      863.759
09/10/2014  04:47:00      -90.964      -39.019       -7.628       10.433       11.945        5.619      108.843      142.686       31.569        0.507        0.014       98.980        3.408        0.001      339.851       13.467      863.749
09/10/2014  04:48:00      -79.810      -29.451       -4.520       17.838       14.676        8.111      318.182      215.374       65.794        0.393        0.030       85.070        5.155        0.004      339.939       13.616      863.741
09/10/2014  04:49:00     -103.340      -42.642       -9.141       18.093       16.297       12.453      327.360      265.588      155.079        0.666        0.037      111.792        5.701        0.003      339.816       13.408      863.746
09/10/2014  04:50:00      -49.936      -44.731        1.459       40.912       30.053       18.566     1673.825      903.181      344.703        0.371        0.146       67.041       19.502        0.085      339.711       13.232      863.758
09/10/2014  04:51:00      -27.132      -32.045        4.668       27.775       26.853       17.810      771.428      721.081      317.204        0.180        0.090       41.989       10.417        0.062      339.714       13.237      863.763
09/10/2014  04:52:00       -0.362       -4.199       14.788       12.361       18.216       17.069      152.800      331.828      291.361        0.051        0.039        4.215        8.509        4.076      339.752       13.300      863.770
09/10/2014  04:53:00      -13.774       -8.536       -0.288       16.351        9.094       10.605      267.346       82.707      112.469        0.036        0.023       16.204        3.906        0.058      339.833       13.439      863.778
09/10/2014  04:54:00       -2.760       -2.411        1.076       13.477        9.551       10.246      181.639       91.217      104.988        0.020        0.019        3.664        5.262        2.062      339.832       13.436      863.798
09/10/2014  04:55:00       -9.177      -28.417        7.010       17.569       16.421       10.717      308.684      269.661      114.844        0.082        0.035       29.862        8.543        0.082      339.946       13.630      863.816
09/10/2014  04:56:00       -5.508      -41.736        0.077       21.781       14.312       11.145      474.423      204.837      124.203        0.129        0.040       42.098        8.006        0.036      340.086       13.866      863.813
09/10/2014  04:57:00      -12.648     -103.997       -1.230       19.546       30.523       13.341      382.038      931.668      177.976        0.623        0.075      104.763        5.577        0.003      340.161       13.992      863.824
09/10/2014  04:58:00        3.484      -16.647       17.295       22.689       35.683       18.091      514.804     1273.289      327.302        0.135        0.106       17.008       20.245        1.417      340.007       13.730      863.827
09/10/2014  04:59:00      -51.575        3.265      -12.914       18.546       15.862       19.545      343.970      251.604      382.006        0.191        0.049       51.678       14.068        0.074      340.101       13.887      863.835
09/10/2014  05:00:00      -58.363        4.385       -9.477       16.045       14.473        8.132      257.453      209.481       66.137        0.202        0.027       58.527        5.403        0.009      340.009       13.735      863.851
09/10/2014  05:01:00      -72.427      -24.130       -2.168       22.793       14.229       13.074      519.505      202.458      170.922        0.336        0.045       76.340       12.370        0.026      339.987       13.697      863.856
09/10/2014  05:02:00      -42.559      -18.741        1.913       24.945       17.842       11.864      622.234      318.320      140.746        0.162        0.054       46.502       11.033        0.056      339.817       13.409      863.854
09/10/2014  05:03:00      -54.081      -17.907        0.892       13.395       13.352        9.484      179.434      178.276       89.955        0.185        0.022       56.969        7.449        0.017      339.928       13.597      863.856
09/10/2014  05:04:00      -56.818      -23.101        1.624        9.887        8.189        5.152       97.752       67.054       26.543        0.198        0.010       61.335        4.671        0.006      339.983       13.692      863.869
09/10/2014  05:05:00      -59.884      -31.650       -1.274       18.176       10.529        8.719      330.353      110.867       76.022        0.255        0.026       67.734        5.765        0.007      339.978       13.681      863.878
09/10/2014  05:06:00      -67.844      -51.409        1.673       24.288       15.703       16.919      589.913      246.589      286.246        0.419        0.056       85.122       16.581        0.038      340.023       13.757      863.884
09/10/2014  05:07:00      -89.185      -57.874       -4.934       24.009       27.283       17.179      576.445      744.346      295.108        0.647        0.081      106.318       14.847        0.020      340.064       13.826      863.897
09/10/2014  05:08:00      -93.214      -47.745       -2.865       29.711       22.263       13.856      882.738      495.637      191.997        0.627        0.079      104.730       11.541        0.012      339.907       13.561      863.903
09/10/2014  05:09:00      -56.158      -45.737        2.925       38.458       30.875       19.813     1479.049      953.292      392.570        0.404        0.141       72.426       17.606        0.059      339.886       13.526      863.902
09/10/2014  05:10:00      -76.713      -42.323        1.175       43.113       28.377       15.442     1858.733      805.250      238.452        0.529        0.145       87.613       20.218        0.053      339.895       13.542      863.898
09/10/2014  05:11:00     -120.186      -55.475       -0.410       29.523       23.891       20.371      871.592      570.795      414.962        0.969        0.093      132.371       16.406        0.015      339.917       13.579      863.899
09/10/2014  05:12:00      -94.344      -60.555       -1.860       33.033       32.101       21.282     1091.191     1030.489      452.906        0.757        0.129      112.106       16.970        0.023      339.903       13.556      863.902
09/10/2014  05:13:00      -58.422      -48.483        4.461       41.573       21.677       18.452     1728.350      469.896      340.480        0.416        0.127       75.919       17.499        0.053      339.877       13.512      863.907
09/10/2014  05:14:00      -45.407      -28.572        6.073       33.805       29.525       19.882     1142.761      871.701      395.278        0.266        0.120       53.649       21.926        0.167      339.824       13.423      863.911
09/10/2014  05:15:00     -116.864      -34.490       -5.116       21.050       23.369       14.692      443.117      546.134      215.855        0.804        0.060      121.848        9.552        0.006      339.862       13.487      863.927
09/10/2014  05:16:00     -106.007      -64.524       -1.046       34.700       24.688       18.769     1204.114      609.497      352.263        0.878        0.108      124.100       16.471        0.018      339.789       13.363      863.929
09/10/2014  05:17:00      -62.061      -60.412        2.305       41.069       31.234       20.329     1686.648      975.580      413.258        0.529        0.154       86.609       13.852        0.026      339.738       13.278      863.919
09/10/2014  05:18:00      -74.482      -60.321        8.182       39.894       35.846       26.076     1591.549     1284.971      679.983        0.640        0.178       95.845       15.159        0.025      339.710       13.232      863.911
09/10/2014  05:19:00      -95.360      -64.700        2.295       51.012       34.495       23.810     2602.188     1189.916      566.931        0.882        0.218      115.237       25.669        0.050      339.703       13.219      863.906
09/10/2014  05:20:00      -85.623      -51.855        2.407       60.750       37.791       24.702     3690.507     1428.182      610.170        0.788        0.286      100.101       22.548        0.051      339.678       13.176      863.897
09/10/2014  05:21:00      -80.715      -79.578       -2.340       49.330       33.273       26.910     2433.423     1107.082      724.131        0.856        0.213      113.347       25.352        0.050      339.652       13.133      863.908
09/10/2014  05:22:00     -122.594      -96.559        2.924       39.120       30.085       25.236     1530.370      905.115      636.864        1.372        0.154      156.054       17.439        0.012      339.639       13.110      863.908
09/10/2014  05:23:00     -155.988      -72.326       -7.066       36.202       35.504       22.257     1310.550     1260.524      495.373        1.634        0.153      171.940       18.146        0.011      339.511       12.893      863.919
09/10/2014  05:24:00     -146.217      -20.811       -5.427       47.197       42.351       28.162     2227.528     1793.633      793.076        1.333        0.241      147.691       29.494        0.040      339.451       12.792      863.925
09/10/2014  05:25:00     -128.655      -53.038      -11.907       41.905       39.162       21.392     1756.023     1533.696      457.632        1.163        0.187      139.159       20.571        0.022      339.450       12.791      863.918
09/10/2014  05:26:00     -142.508      -64.589       -2.885       40.716       27.395       22.466     1657.805      750.492      504.729        1.370        0.146      156.462       24.820        0.025      339.471       12.826      863.924
09/10/2014  05:27:00     -114.538      -66.809       -8.530       41.185       30.153       21.015     1696.170      909.197      441.626        1.035        0.152      132.599       20.358        0.024      339.485       12.852      863.923
09/10/2014  05:28:00     -119.169      -50.310       -2.475       30.835       32.701       18.371      950.820     1069.323      337.497        0.955        0.118      129.353       15.482        0.014      339.462       12.810      863.926
09/10/2014  05:29:00      -93.844      -51.996       -1.975       33.200       29.103       19.793     1102.224      847.007      391.777        0.693        0.117      107.286       12.958        0.015      339.465       12.814      863.934
09/10/2014  05:30:00      -83.891      -26.775       -7.979       38.104       31.250       18.374     1451.910      976.577      337.604        0.529        0.138       88.061       21.730        0.061      339.412       12.728      863.950
09/10/2014  05:31:00      -61.086      -37.551        5.695       33.431       22.319       19.031     1117.639      498.122      362.169        0.358        0.099       71.705       20.325        0.080      339.422       12.745      863.955
09/10/2014  05:32:00     -102.663      -57.792      -14.729       25.610       22.347       14.590      655.893      499.374      212.882        0.773        0.068      117.812        8.054        0.005      339.512       12.895      863.960
09/10/2014  05:33:00     -117.984      -20.477       -6.427       28.359       23.844       18.368      804.207      568.537      337.370        0.805        0.086      119.747       13.955        0.014      339.400       12.707      863.965
09/10/2014  05:34:00     -115.519      -34.480       -6.636       24.654       22.102       15.341      607.801      488.502      235.358        0.795        0.067      120.555       12.389        0.011      339.390       12.691      863.968
09/10/2014  05:35:00      -89.712      -64.997       -3.605       27.503       26.058       16.069      756.388      679.005      258.210        0.699        0.085      110.783       12.499        0.013      339.400       12.707      863.966
09/10/2014  05:36:00      -96.130      -36.365        3.779       25.487       26.906       18.012      649.569      723.932      324.441        0.614        0.085      102.779       11.345        0.012      339.367       12.652      863.960
09/10/2014  05:37:00      -85.281      -21.811       -0.111       32.120       32.893       17.835     1031.709     1081.927      318.075        0.509        0.122       88.026       16.124        0.034      339.270       12.487      863.960
09/10/2014  05:38:00     -124.686      -25.183       -4.438       22.337       20.618       17.566      498.939      425.085      308.553        0.872        0.062      127.204       10.731        0.007      339.163       12.308      863.967
09/10/2014  05:39:00     -131.874      -25.525       -3.901       29.054       26.660       18.100      844.162      710.782      327.605        0.997        0.094      134.322       12.784        0.009      339.121       12.237      863.966
09/10/2014  05:40:00     -129.203      -45.135       -6.362       18.999       19.728       15.810      360.953      389.195      249.971        0.989        0.050      136.860        8.112        0.004      339.110       12.219      863.954
09/10/2014  05:41:00     -133.758      -46.846       -1.451       28.665       23.585       20.523      821.691      556.258      421.198        1.094        0.090      141.724       17.093        0.015      339.105       12.210      863.962
09/10/2014  05:42:00     -126.922      -65.025       -7.467       26.179       30.672       18.927      685.361      940.748      358.220        1.119        0.099      142.610       11.488        0.006      339.121       12.236      863.954
09/10/2014  05:43:00      -77.564      -60.192        9.131       47.732       29.265       24.669     2278.378      856.425      608.575        0.673        0.187       98.180       25.396        0.067      339.227       12.416      863.949
09/10/2014  05:44:00      -77.654      -71.937        1.891       52.998       38.275       26.714     2808.838     1464.987      713.645        0.810        0.249      105.854       24.107        0.052      339.325       12.580      863.952
09/10/2014  05:45:00      -76.288      -86.813        8.941       49.546       39.462       36.803     2454.781     1557.250     1354.453        0.940        0.268      115.569       31.054        0.072      339.300       12.539      863.952
09/10/2014  05:46:00     -104.720     -105.185        1.315       42.847       40.386       32.186     1835.875     1631.018     1035.939        1.327        0.225      148.426       27.354        0.034      339.331       12.591      863.945
09/10/2014  05:47:00     -110.274      -51.691        6.692       64.557       38.245       27.527     4167.659     1462.651      757.715        1.063        0.319      121.788       27.796        0.052      339.322       12.576      863.945
09/10/2014  05:48:00     -109.184      -56.913       -2.347       34.468       34.926       30.613     1188.018     1219.795      937.171        0.925        0.167      123.127       22.354        0.033      339.382       12.677      863.953
09/10/2014  05:49:00      -90.406      -60.194        4.113       34.152       40.151       23.448     1166.358     1612.106      549.824        0.757        0.166      108.612       19.383        0.032      339.378       12.670      863.961
09/10/2014  05:50:00     -110.102      -81.124        1.431       56.598       44.679       32.231     3203.349     1996.211     1038.807        1.247        0.312      136.761       32.547        0.057      339.455       12.799      863.984
09/10/2014  05:51:00     -128.291      -65.095       -7.066       42.323       27.437       24.250     1791.240      752.774      588.040        1.194        0.157      143.861       16.593        0.013      339.445       12.781      864.006
09/10/2014  05:52:00      -53.138      -15.510        4.890       49.985       21.238       20.430     2498.535      451.053      417.376        0.323        0.168       55.356       25.294        0.209      339.410       12.722      864.040
09/10/2014  05:53:00       -4.742      -26.547       12.924       29.561       23.911       20.134      873.850      571.719      405.397        0.137        0.093       26.967       17.259        0.410      339.400       12.708      864.058
09/10/2014  05:54:00      -17.960      -42.280        5.857       23.169       28.367       17.999      536.798      804.696      323.970        0.190        0.083       45.937       12.435        0.073      339.359       12.638      864.066
09/10/2014  05:55:00      -36.370      -59.826        7.457       40.698       34.040       21.078     1656.319     1158.745      444.293        0.411        0.163       70.014       16.693        0.057      339.407       12.719      864.077
09/10/2014  05:56:00      -40.150      -49.594       14.114       50.807       52.245       34.975     2581.343     2729.527     1223.234        0.540        0.327       63.809       28.956        0.206      339.277       12.499      864.079
09/10/2014  05:57:00      -67.126      -66.043      -15.395       49.053       48.218       26.481     2406.197     2324.991      701.226        0.727        0.272       94.168        7.466        0.006      339.178       12.334      864.071
09/10/2014  05:58:00     -106.628      -79.671       -0.057       82.453       66.271       33.791     6798.576     4391.880     1141.823        1.502        0.617      133.106       31.959        0.058      339.126       12.244      864.072
09/10/2014  05:59:00      -89.148     -108.484       -3.788       83.197       82.923       42.379     6921.773     6876.185     1795.944        1.766        0.780      140.415       38.094        0.074      339.120       12.235      864.077
09/10/2014  06:00:00      -54.639      -97.007       10.549       80.563       71.386       40.104     6490.476     5095.995     1608.296        1.285        0.660      111.336       48.651        0.191      339.123       12.240      864.076
09/10/2014  06:01:00      -93.603      -72.055       -0.285       57.709       60.867       32.669     3330.348     3704.820     1067.236        1.103        0.405      118.124       29.255        0.061      339.095       12.192      864.081
09/10/2014  06:02:00     -100.904      -95.739       -7.583       48.778       47.120       29.150     2379.321     2220.287      849.734        1.243        0.272      139.096       28.321        0.041      339.094       12.193      864.100
09/10/2014  06:03:00      -83.178      -85.999       -2.999       43.561       39.840       24.390     1897.531     1587.197      594.862        0.920        0.204      119.643       17.722        0.022      339.112       12.221      864.119
09/10/2014  06:04:00      -53.877      -31.847        1.293       43.810       37.590       22.673     1919.276     1412.974      514.082        0.388        0.192       62.585       14.747        0.056      339.101       12.206      864.133
09/10/2014  06:05:00      -95.275      -69.185        2.094       59.930       44.137       29.961     3591.559     1948.044      897.639        1.015        0.322      117.745       36.138        0.094      339.134       12.258      864.153
09/10/2014  06:06:00     -122.076     -112.387      -14.690       34.493       41.270       22.824     1189.759     1703.240      520.917        1.558        0.171      165.932       20.509        0.015      339.140       12.270      864.167
09/10/2014  06:07:00      -63.098      -80.540        5.347       42.632       38.820       24.584     1817.480     1506.958      604.353        0.721        0.196      102.313       23.821        0.054      339.159       12.300      864.188
09/10/2014  06:08:00      -30.223      -50.808       -1.628       21.055       56.923       20.218      443.295     3240.203      408.775        0.379        0.205       59.118       13.976        0.056      339.140       12.269      864.192
09/10/2014  06:09:00      -54.579      -66.075        0.662       28.468       29.177       20.309      810.416      851.279      412.461        0.471        0.104       85.701       13.712        0.026      339.172       12.323      864.200
09/10/2014  06:10:00      -57.847      -65.434       -8.201       27.234       24.525       15.444      741.713      601.456      238.519        0.464        0.079       87.338       13.099        0.022      339.179       12.334      864.209
09/10/2014  06:11:00      -80.520      -34.013       -0.996       57.525       32.008       22.746     3309.142     1024.507      517.396        0.625        0.243       87.409       20.936        0.057      339.193       12.358      864.226
09/10/2014  06:12:00      -74.671      -84.857      -11.472       64.012       36.859       24.166     4097.573     1358.617      584.019        0.947        0.302      113.034       21.382        0.036      339.095       12.194      864.244
09/10/2014  06:13:00      -66.158      -51.504       -3.182       46.120       30.483       20.316     2127.009      929.195      412.758        0.525        0.173       83.842       17.540        0.044      339.128       12.249      864.252
09/10/2014  06:14:00      -70.047      -63.521        3.180       49.612       47.156       23.788     2461.371     2223.666      565.857        0.710        0.263       94.560       23.792        0.063      339.135       12.260      864.255
09/10/2014  06:15:00      -80.253      -41.809        5.068       55.546       18.452       22.736     3085.344      340.462      516.925        0.608        0.197       90.491       11.121        0.015      339.161       12.304      864.254
09/10/2014  06:16:00      -59.376      -80.600        6.870       57.759       55.252       25.104     3336.087     3052.831      630.233        0.854        0.351      100.109       29.990        0.090      339.113       12.224      864.265
09/10/2014  06:17:00      -80.320      -73.429        1.771       56.341       40.262       28.963     3174.344     1621.017      838.839        0.874        0.282      108.827       29.338        0.073      339.080       12.167      864.273
09/10/2014  06:18:00     -102.674      -74.148        0.140       61.161       36.997       28.319     3740.652     1368.769      801.947        1.097        0.296      126.649       32.714        0.067      339.093       12.191      864.277
09/10/2014  06:19:00      -82.553      -67.793       -2.252       49.334       35.490       24.393     2433.872     1259.567      595.042        0.785        0.214      106.822       21.438        0.040      339.112       12.223      864.276
09/10/2014  06:20:00     -113.750      -94.498      -16.876       46.548       60.609       27.025     2166.724     3673.475      730.376        1.436        0.329      147.882       17.004        0.013      339.077       12.161      864.271
09/10/2014  06:21:00     -130.146      -78.575       -1.080       53.380       41.792       32.806     2849.433     1746.530     1076.253        1.439        0.284      152.027       23.308        0.024      339.057       12.130      864.268
09/10/2014  06:22:00      -95.589     -117.100       -3.455       52.775       64.690       31.473     2785.234     4184.822      990.564        1.541        0.398      151.161       34.668        0.053      339.039       12.097      864.249
09/10/2014  06:23:00     -104.978      -84.211        7.198       71.967       44.433       37.187     5179.270     1974.334     1382.839        1.335        0.427      134.580       38.726        0.083      339.039       12.100      864.240
09/10/2014  06:24:00     -133.759      -95.703       -5.108       68.725       53.661       32.375     4723.140     2879.471     1048.136        1.786        0.433      164.471       28.482        0.030      339.032       12.086      864.232
09/10/2014  06:25:00     -195.442     -113.786       -4.099       77.306       69.885       38.267     5976.263     4883.929     1464.375        3.174        0.616      226.152       22.920        0.010      338.983       12.002      864.231
09/10/2014  06:26:00     -177.188      -68.737       -7.519       78.492       54.423       32.653     6160.949     2961.894     1066.232        2.318        0.509      190.053       35.568        0.035      339.035       12.091      864.246
09/10/2014  06:27:00     -187.684      -89.490        2.551       91.619       65.324       38.582     8394.003     4267.180     1488.608        2.869        0.707      207.927       45.532        0.048      338.917       11.891      864.254
09/10/2014  06:28:00     -147.618     -102.573       -1.113       53.206       48.020       31.797     2830.886     2305.891     1011.060        1.923        0.307      179.756       29.487        0.027      338.922       11.900      864.270
09/10/2014  06:29:00     -136.530      -76.175       -2.959       61.017       56.879       26.599     3723.098     3235.207      707.480        1.606        0.383      156.343       21.600        0.019      338.901       11.867      864.283
09/10/2014  06:30:00      -69.179      -80.258        5.679       56.290       45.433       27.075     3168.571     2064.152      733.070        0.861        0.298      105.958       26.659        0.063      338.944       11.940      864.291
09/10/2014  06:31:00     -118.938      -98.075        3.278       45.979       40.348       31.920     2114.074     1627.954     1018.891        1.427        0.238      154.159       23.499        0.023      338.907       11.877      864.302
09/10/2014  06:32:00     -113.760      -57.393       -0.075       44.358       35.822       21.629     1967.622     1283.210      467.826        0.998        0.186      127.418       19.167        0.023      338.930       11.916      864.319
09/10/2014  06:33:00      -80.605      -42.979        5.449       33.355       27.339       19.798     1112.540      747.438      391.946        0.531        0.113       91.347       11.281        0.015      338.896       11.858      864.339
09/10/2014  06:34:00     -110.376      -65.675      -18.357       29.599       27.828       19.557      876.120      774.381      382.465        0.943        0.102      128.437       14.370        0.013      338.882       11.837      864.350
09/10/2014  06:35:00      -57.394     -108.964        4.016       29.092       35.305       22.480      846.352     1246.427      505.334        0.889        0.130      123.156        5.303        0.002      338.958       11.964      864.347
09/10/2014  06:36:00      -96.603      -72.092        1.002       46.608       38.422       25.274     2172.284     1476.263      638.763        0.941        0.214      120.538       25.965        0.046      338.900       11.866      864.340
09/10/2014  06:37:00     -161.187      -70.734       -7.520       50.337       42.958       27.140     2533.815     1845.397      736.603        1.808        0.256      176.024       12.909        0.005      338.850       11.780      864.339
09/10/2014  06:38:00      -88.031      -37.442        0.662       62.717       37.735       24.971     3933.414     1423.929      623.554        0.757        0.299       95.663       23.441        0.060      338.829       11.747      864.338
09/10/2014  06:39:00      -79.301      -78.898        3.695       39.738       39.749       28.046     1579.143     1580.019      786.571        0.824        0.197      111.864       20.643        0.034      338.869       11.814      864.340
09/10/2014  06:40:00     -159.437      -68.712       -6.057       46.479       38.545       24.505     2160.340     1485.751      600.516        1.721        0.212      173.613       15.132        0.008      338.792       11.684      864.344
09/10/2014  06:41:00     -184.156      -67.766       -8.437       38.906       45.163       23.669     1513.704     2039.725      560.222        2.134        0.206      196.228       14.800        0.006      338.656       11.454      864.346
09/10/2014  06:42:00     -130.236      -80.219       -1.322       61.798       32.275       24.597     3818.970     1041.702      605.035        1.443        0.273      152.960       25.162        0.027      338.611       11.378      864.363
09/10/2014  06:43:00     -134.519     -142.637       -6.849       77.917       73.536       35.964     6071.089     5407.616     1293.412        2.563        0.639      196.063       37.498        0.037      338.750       11.611      864.361
09/10/2014  06:44:00     -145.501      -78.071       -5.432       44.656       61.852       28.749     1994.197     3825.640      826.513        1.697        0.332      165.123       25.043        0.023      338.752       11.616      864.371
09/10/2014  06:45:00     -144.290      -17.493       -1.822       76.176       63.581       30.505     5802.762     4042.539      930.569        1.595        0.539      145.347       33.384        0.053      338.592       11.346      864.396
09/10/2014  06:46:00     -173.427      -23.950       -7.767       61.969       41.148       36.861     3840.159     1693.193     1358.706        1.880        0.345      175.073       34.404        0.039      338.377       10.986      864.411
09/10/2014  06:47:00     -201.293      -62.098       -8.418       55.656       42.226       32.272     3097.611     1783.012     1041.456        2.518        0.296      210.654       32.948        0.024      338.455       11.115      864.412
09/10/2014  06:48:00     -180.594      -77.195        0.612       69.514       40.960       28.501     4832.162     1677.723      812.314        2.295        0.366      196.401       29.015        0.022      338.494       11.182      864.409
09/10/2014  06:49:00     -165.329      -15.588       -6.360       47.741       55.302       29.710     2279.241     3058.321      882.658        1.692        0.311      166.062       23.624        0.020      338.406       11.035      864.418
09/10/2014  06:50:00     -123.962      -17.460       -0.282       57.014       41.112       32.141     3250.635     1690.207     1033.063        1.082        0.299      125.186       32.577        0.068      338.325       10.898      864.442
09/10/2014  06:51:00     -143.884      -57.472        5.720       65.087       33.687       26.036     4236.371     1134.792      677.886        1.504        0.302      154.938       30.922        0.040      338.355       10.950      864.446
09/10/2014  06:52:00     -146.905      -59.150       -3.517       62.008       34.396       23.633     3844.998     1183.068      558.508        1.534        0.279      158.366       25.263        0.025      338.459       11.125      864.447
09/10/2014  06:53:00     -177.585      -45.548       -9.445       39.920       28.469       22.483     1593.581      810.480      505.498        1.830        0.145      183.333       22.648        0.015      338.410       11.040      864.463
09/10/2014  06:54:00     -169.029      -52.698       -3.554       39.666       34.240       24.969     1573.358     1172.401      623.466        1.736        0.168      177.054       22.649        0.016      338.401       11.028      864.467
09/10/2014  06:55:00     -146.979      -61.018        2.490       41.862       36.439       26.059     1752.400     1327.833      679.096        1.455        0.188      159.141       24.867        0.024      338.512       11.214      864.469
09/10/2014  06:56:00     -125.280      -38.561        2.352       56.987       42.692       26.623     3247.570     1822.621      708.776        1.148        0.289      131.080       26.942        0.042      338.529       11.241      864.469
09/10/2014  06:57:00     -140.656      -69.174       -1.755       47.342       39.156       27.869     2241.301     1533.218      776.698        1.456        0.228      156.745       28.150        0.032      338.624       11.402      864.477
09/10/2014  06:58:00     -108.127      -67.497        0.776       53.530       38.147       27.858     2865.460     1455.191      776.070        1.067        0.255      127.465       28.402        0.050      338.649       11.445      864.503
09/10/2014  06:59:00     -114.620      -57.473        1.842       55.034       53.078       27.505     3028.793     2817.244      756.503        1.152        0.330      128.222       28.340        0.049      338.710       11.546      864.516
09/10/2014  07:00:00      -90.938      -63.190        2.174       51.926       49.053       23.387     2696.350     2406.236      546.944        0.896        0.282      110.737       21.126        0.036      338.724       11.569      864.518
09/10/2014  07:01:00      -95.733      -67.020        2.753       63.120       45.445       28.108     3984.163     2065.223      790.080        1.025        0.342      116.861       28.630        0.060      338.709       11.544      864.527
09/10/2014  07:02:00      -90.374      -51.537       10.545       64.915       32.769       29.603     4214.000     1073.785      876.311        0.855        0.308      104.037       31.230        0.090      338.738       11.594      864.543
09/10/2014  07:03:00     -160.144      -33.254      -12.765       43.664       43.005       25.774     1906.531     1849.468      664.316        1.567        0.221      163.560       18.436        0.013      338.680       11.495      864.556
09/10/2014  07:04:00     -136.964      -41.271        4.009       43.668       39.658       21.225     1906.903     1572.761      450.504        1.220        0.197      143.047       17.701        0.015      338.652       11.448      864.561
09/10/2014  07:05:00     -158.551      -52.934        4.023       41.312       39.758       25.018     1706.701     1580.735      625.881        1.593        0.196      167.154       19.060        0.013      338.676       11.490      864.564
09/10/2014  07:06:00     -118.653      -57.364        5.498       45.151       41.495       26.014     2038.595     1721.832      676.729        1.092        0.222      131.792       23.549        0.032      338.739       11.595      864.576
09/10/2014  07:07:00     -111.222      -46.474       -0.710       33.459       29.802       17.965     1119.474      888.149      322.736        0.843        0.117      120.541       12.607        0.011      338.808       11.712      864.583
09/10/2014  07:08:00      -73.289      -64.527        8.218       54.822       29.463       25.703     3005.466      868.040      660.665        0.707        0.227       97.647       27.574        0.080      338.838       11.761      864.598
09/10/2014  07:09:00     -134.213      -89.061       -0.788       55.171       49.424       30.277     3043.872     2442.684      916.710        1.617        0.320      161.074       25.651        0.025      338.850       11.781      864.601
09/10/2014  07:10:00      -53.122      -26.411        0.613       72.370       28.996       26.294     5237.408      840.788      691.367        0.514        0.338       59.325       31.771        0.287      338.851       11.782      864.614
09/10/2014  07:11:00     -116.208     -104.091        4.327       58.376       70.107       40.577     3407.772     4915.060     1646.525        1.716        0.498      156.010       42.248        0.073      338.864       11.803      864.627
09/10/2014  07:12:00      -74.175      -53.145        5.785       68.475       37.209       28.147     4688.881     1384.505      792.251        0.761        0.343       91.249       34.213        0.141      338.910       11.881      864.640
09/10/2014  07:13:00      -89.866      -78.788        3.778       68.359       42.994       29.658     4672.980     1848.483      879.603        1.085        0.370      119.513       28.529        0.057      338.905       11.873      864.637
09/10/2014  07:14:00     -164.338     -120.881      -13.573       43.711       38.009       28.671     1910.677     1444.653      822.014        2.299        0.209      204.008       23.937        0.014      338.931       11.916      864.642
09/10/2014  07:15:00     -115.798      -96.540       -1.583       55.166       45.311       36.508     3043.263     2053.087     1332.803        1.458        0.321      150.762       36.513        0.059      338.967       11.976      864.649
09/10/2014  07:16:00     -153.800     -115.624       -5.111       49.461       47.492       34.059     2446.425     2255.448     1159.990        2.145        0.293      192.415       24.712        0.016      338.965       11.974      864.647
09/10/2014  07:17:00      -98.101      -73.299        5.074       68.865       50.905       38.276     4742.353     2591.309     1465.044        1.191        0.440      122.461       39.086        0.102      339.005       12.042      864.653
09/10/2014  07:18:00      -92.024      -38.668       11.826       60.556       50.805       28.848     3666.999     2581.146      832.208        0.859        0.354       99.818       30.920        0.096      339.077       12.163      864.647
09/10/2014  07:19:00     -140.903     -108.722       -0.349       52.986       53.200       32.954     2807.514     2830.275     1085.987        1.920        0.336      177.972       30.311        0.029      339.070       12.149      864.641
09/10/2014  07:20:00     -138.581     -123.766       -1.703       62.528       62.222       39.856     3909.701     3871.598     1588.483        2.195        0.468      185.803       39.224        0.045      339.094       12.190      864.646
09/10/2014  07:21:00     -134.292      -91.071       -3.483       73.809       49.725       34.901     5447.724     2472.577     1218.093        1.774        0.457      162.260       41.457        0.065      339.155       12.292      864.654
09/10/2014  07:22:00     -131.654      -82.245       -5.537       54.784       47.029       30.007     3001.237     2211.731      900.400        1.512        0.306      155.232       29.078        0.035      339.206       12.381      864.657
09/10/2014  07:23:00      -74.742      -55.119        5.620       66.051       44.594       33.966     4362.736     1988.629     1153.690        0.808        0.375       92.868       39.575        0.182      339.282       12.507      864.661
09/10/2014  07:24:00     -118.997      -90.578       -4.973       45.821       42.303       27.005     2099.527     1789.534      729.294        1.350        0.231      149.548       25.869        0.030      339.259       12.469      864.674
09/10/2014  07:25:00      -76.180      -58.412        2.103       42.592       23.173       21.449     1814.106      536.979      460.050        0.601        0.141       95.997       22.231        0.054      339.331       12.591      864.679
09/10/2014  07:26:00      -95.703      -65.792       -9.564       41.874       31.911       16.040     1753.419     1018.313      257.274        0.830        0.151      116.137       15.941        0.019      339.371       12.658      864.685
09/10/2014  07:27:00     -104.165      -89.831       -5.360       42.769       35.961       18.580     1829.171     1293.219      345.212        1.121        0.173      137.550       18.744        0.019      339.369       12.655      864.698
09/10/2014  07:28:00      -89.321      -74.084       -3.381       34.838       37.429       25.701     1213.716     1400.919      660.525        0.838        0.164      116.046       11.193        0.009      339.399       12.707      864.710
09/10/2014  07:29:00     -114.550      -79.534       -9.662       50.116       38.159       29.946     2511.603     1456.119      896.737        1.220        0.243      139.454       29.482        0.045      339.397       12.703      864.716
09/10/2014  07:30:00     -114.763      -48.527       -1.167       42.215       46.034       27.656     1782.118     2119.108      764.841        1.010        0.233      124.601       20.364        0.027      339.457       12.804      864.727
09/10/2014  07:31:00      -61.579      -16.071       -1.572       26.595       26.596       20.879      707.278      707.367      435.943        0.295        0.093       63.642       10.197        0.026      339.528       12.922      864.725
09/10/2014  07:32:00     -104.330      -25.233       -7.060       33.289       23.263       16.462     1108.188      541.186      271.000        0.675        0.096      107.338       10.091        0.009      339.523       12.915      864.732
09/10/2014  07:33:00     -118.792      -27.538       -6.427       37.954       42.774       27.488     1440.534     1829.611      755.603        0.947        0.201      121.942       23.481        0.037      339.529       12.925      864.740
09/10/2014  07:34:00      -94.420       -5.046       -2.299       52.083       24.195       28.685     2712.619      585.415      822.804        0.653        0.206       94.555       32.581        0.119      339.692       13.199      864.736
09/10/2014  07:35:00      -97.594      -23.768       -6.141       42.553       43.598       21.231     1810.726     1900.809      450.755        0.714        0.208      100.447       20.917        0.043      339.589       13.026      864.743
09/10/2014  07:36:00      -77.222      -41.703       -8.043       25.334       18.256       11.046      641.801      333.288      122.011        0.443        0.055       87.763       10.796        0.015      339.556       12.968      864.730
09/10/2014  07:37:00      -99.209      -15.470       -5.715       31.021       20.798       16.386      962.313      432.548      268.512        0.589        0.083      100.408       12.904        0.017      339.606       13.055      864.745
09/10/2014  07:38:00      -45.548      -25.665       -0.962       25.638       17.615       11.965      657.284      310.302      143.166        0.192        0.056       52.281        8.238        0.025      339.613       13.067      864.751
09/10/2014  07:39:00      -41.429      -29.445        6.460       31.816       24.056       13.536     1012.283      578.707      183.224        0.220        0.089       50.827       13.227        0.068      339.675       13.169      864.763
09/10/2014  07:40:00      -67.848      -90.915        0.226       44.122       39.510       17.798     1946.742     1561.053      316.780        0.835        0.191      113.441       13.921        0.015      339.652       13.133      864.767
09/10/2014  07:41:00      -85.232     -111.425      -12.789       30.976       27.953       19.625      959.504      781.370      385.124        1.098        0.106      140.286       12.563        0.008      339.615       13.069      864.771
09/10/2014  07:42:00      -49.830      -77.846       -3.767       39.898       36.693       22.442     1591.845     1346.387      503.642        0.600        0.172       92.429       18.802        0.041      339.653       13.131      864.783
09/10/2014  07:43:00      -67.896     -125.130       -9.183       42.604       31.371       22.871     1815.139      984.135      523.096        1.184        0.166      142.363       14.847        0.011      339.601       13.047      864.799
09/10/2014  07:44:00      -75.173     -108.086       -1.369       43.211       40.546       26.436     1867.211     1644.007      698.838        1.077        0.211      131.657        9.106        0.005      339.606       13.056      864.812
09/10/2014  07:45:00      -97.536      -78.992       -8.427       35.053       41.974       22.615     1228.727     1761.794      511.429        0.966        0.175      125.511       14.649        0.014      339.601       13.046      864.819
09/10/2014  07:46:00      -92.257      -45.848       -4.946       38.220       33.964       21.517     1460.806     1153.585      462.986        0.686        0.154      103.021       18.156        0.031      339.653       13.133      864.826
09/10/2014  07:47:00      -72.730      -41.022        7.099       49.240       42.453       20.739     2424.613     1802.276      430.103        0.584        0.233       83.501       19.003        0.052      339.735       13.272      864.832
09/10/2014  07:48:00      -69.911      -29.924        0.323       52.252       24.442       17.125     2730.229      597.395      293.253        0.470        0.181       76.046       16.706        0.048      339.801       13.384      864.839
09/10/2014  07:49:00      -61.100      -54.370        2.659       47.105       40.565       22.705     2218.861     1645.490      515.496        0.554        0.219       81.788       26.803        0.107      339.894       13.540      864.849
09/10/2014  07:50:00      -40.930      -47.870       -0.281       28.732       31.336       15.608      825.523      981.925      243.615        0.301        0.103       62.982       13.518        0.046      339.860       13.483      864.866
09/10/2014  07:51:00      -25.831      -35.507        1.572       19.976       17.473       12.978      399.037      305.309      168.419        0.140        0.044       43.909        7.408        0.028      339.911       13.569      864.883
09/10/2014  07:52:00      -54.286      -60.517       -5.726       15.242       25.994       12.509      232.327      675.706      156.474        0.385        0.053       81.298        9.704        0.014      339.882       13.519      864.887
09/10/2014  07:53:00      -31.818      -54.081       -5.448       16.374       21.647       10.267      268.111      468.609      105.411        0.240        0.042       62.746        7.882        0.016      339.937       13.612      864.898
09/10/2014  07:54:00      -30.422      -46.445       -2.040       13.444       21.135        6.722      180.740      446.672       45.186        0.188        0.034       55.522        6.174        0.012      339.928       13.598      864.911
09/10/2014  07:55:00      -20.963      -16.331       -4.226       13.796       15.321        9.934      190.337      234.743       98.694        0.062        0.026       26.574        7.482        0.079      340.025       13.762      864.919
09/10/2014  07:56:00       12.085       -3.256      -11.549       14.183       18.936       11.098      201.159      358.579      123.165        0.049        0.034       12.516       10.828        0.748      339.990       13.702      864.934
09/10/2014  07:57:00       20.468        4.866        3.043       25.102       14.405       15.639      630.109      207.496      244.578        0.077        0.054       21.038        7.045        0.112      340.091       13.873      864.946
09/10/2014  07:58:00       25.972       -3.729       23.942       23.343       16.120       16.722      544.882      259.866      279.611        0.117        0.054       26.238       12.320        0.220      340.126       13.932      864.962
09/10/2014  07:59:00        5.670       12.366       14.584       19.949       20.203       19.437      397.982      408.144      377.783        0.079        0.059       13.604       11.063        0.661      340.061       13.822      864.970
09/10/2014  08:00:00       10.151        0.759        6.485       16.528       15.355       19.305      273.189      235.786      372.697        0.051        0.044       10.179        7.253        0.508      340.106       13.898      864.979
09/10/2014  08:01:00       32.923       19.899       -1.123       17.773       15.888       27.467      315.873      252.436      754.415        0.140        0.066       38.469       12.014        0.098      340.007       13.731      864.985
09/10/2014  08:02:00       38.663       35.436       -7.388       16.049       14.550       15.799      257.574      211.690      249.622        0.176        0.036       52.445        9.088        0.030      340.166       13.998      864.984
09/10/2014  08:03:00       10.105       20.083       17.780       25.174       25.979       16.930      633.732      674.917      286.612        0.121        0.080       22.482       13.394        0.355      340.531       14.617      864.982
09/10/2014  08:04:00       17.327       12.936       25.907       27.601       26.026       18.184      761.836      677.334      330.670        0.145        0.088       21.623       14.593        0.455      340.555       14.657      864.981
09/10/2014  08:05:00       45.976       17.603       11.251       25.558       20.204       14.509      653.216      408.221      210.523        0.191        0.064       49.231       10.935        0.049      340.357       14.323      864.984
09/10/2014  08:06:00       22.886       24.601       10.385       36.524       31.515       20.291     1334.023      993.189      411.717        0.199        0.137       33.600       17.090        0.259      340.601       14.734      864.990
09/10/2014  08:07:00       61.793       34.323        2.086       27.774       22.470       24.420      771.400      504.912      596.351        0.344        0.094       70.685       17.388        0.061      340.382       14.364      864.993
09/10/2014  08:08:00       37.832       26.606       -2.900       33.148       30.792       22.735     1098.813      948.135      516.871        0.236        0.128       46.251       17.417        0.142      340.412       14.413      864.997
09/10/2014  08:09:00       76.071       46.466       10.791       37.793       33.910       21.427     1428.344     1149.902      459.104        0.555        0.152       89.139       15.632        0.031      340.402       14.398      864.995
09/10/2014  08:10:00       81.170       42.037       18.860       35.070       25.249       26.742     1229.932      637.514      715.157        0.565        0.129       91.409       15.839        0.030      340.483       14.533      865.006
09/10/2014  08:11:00       81.069       46.757        6.869       23.782       16.134       24.671      565.564      260.314      608.674        0.512        0.072       93.586       17.725        0.036      340.244       14.131      865.017
09/10/2014  08:12:00        1.803      -10.154       -2.181       24.070       36.017       16.180      579.383     1297.236      261.802        0.112        0.107       10.313       16.062        2.426      340.214       14.079      865.032
09/10/2014  08:13:00       -4.535      -18.112       -3.487       16.847       31.282       18.432      283.826      978.562      339.723        0.098        0.080       18.671       10.935        0.343      340.127       13.933      865.047
09/10/2014  08:14:00       21.060       15.952       22.809       24.055       16.437       23.426      578.639      270.174      548.765        0.131        0.070       26.419       12.736        0.232      340.543       14.636      865.060
09/10/2014  08:15:00       10.418        0.750       10.058       20.533       33.021       24.642      421.603     1090.406      607.215        0.116        0.106       10.445       13.052        1.562      340.532       14.616      865.081
09/10/2014  08:16:00       51.113       30.721       -1.555       31.027       31.991       25.146      962.671     1023.435      632.313        0.309        0.131       59.635       18.513        0.096      340.590       14.716      865.084
09/10/2014  08:17:00        9.750       14.628        1.257       22.058       24.183       23.941      486.570      584.828      573.178        0.098        0.082       17.579        8.813        0.251      340.650       14.818      865.095
09/10/2014  08:18:00       26.438       25.058       32.748       31.755       39.361       21.376     1008.391     1549.289      456.928        0.271        0.151       36.426       13.599        0.139      340.787       15.048      865.096
09/10/2014  08:19:00       63.027       51.036       29.863       33.848       26.809       35.043     1145.711      718.744     1228.035        0.528        0.155       81.099       19.169        0.056      340.371       14.344      865.102
09/10/2014  08:20:00        9.987       17.225       34.095       14.508       17.056       13.980      210.496      290.924      195.432        0.113        0.035       19.911        3.175        0.025      340.885       15.215      865.106
09/10/2014  08:21:00       13.650        7.076       37.073       18.556       16.802       17.073      344.330      282.292      291.492        0.126        0.046       15.375       13.358        0.755      340.782       15.040      865.104
09/10/2014  08:22:00       -1.514        5.154       33.180       11.918       10.824        8.535      142.050      117.150       72.854        0.073        0.017        5.372        2.540        0.224      341.173       15.702      865.103
09/10/2014  08:23:00       18.656      -24.377       17.431       19.681       35.634       20.965      387.352     1269.808      439.526        0.167        0.105       30.697       18.356        0.358      340.492       14.550      865.092
09/10/2014  08:24:00       24.666      -33.740       13.097       30.137       29.332       23.202      908.218      860.346      538.340        0.211        0.115       41.795       21.876        0.274      340.460       14.497      865.086
09/10/2014  08:25:00       -1.496       18.926       39.283       18.722       26.188       23.643      350.517      685.826      559.002        0.175        0.080       18.985       16.066        0.716      341.193       15.734      865.091
09/10/2014  08:26:00       -0.113       12.569       27.166       41.651       29.394       22.095     1734.842      863.983      488.183        0.199        0.154       12.570       27.480        4.780      340.768       15.016      865.081
09/10/2014  08:27:00       33.993       47.782       17.081       20.685       19.766       22.988      427.871      390.698      528.447        0.254        0.067       58.641       13.732        0.055      340.451       14.482      865.083
09/10/2014  08:28:00       47.827       35.294        5.044       30.819       23.910       19.440      949.842      571.687      377.915        0.273        0.095       59.439        4.791        0.006      340.791       15.055      865.084
09/10/2014  08:29:00       59.761       48.985        8.993       26.250       13.203       19.086      689.038      174.313      364.275        0.364        0.061       77.271       12.330        0.025      340.677       14.863      865.093
09/10/2014  08:30:00       30.500      -17.028        0.030       28.304       68.722       26.902      801.142     4722.774      723.700        0.373        0.312       34.931       31.151        0.795      340.568       14.677      865.103
09/10/2014  08:31:00       34.351      -59.791        0.340       30.606       34.257       25.119      936.713     1173.541      630.971        0.375        0.137       68.956       19.223        0.078      340.427       14.440      865.096
09/10/2014  08:32:00       11.270        6.332       15.947       17.267       15.240       20.427      298.137      232.260      417.272        0.068        0.047       12.927        5.994        0.215      340.857       15.168      865.091
09/10/2014  08:33:00       16.450       -4.986        1.639       18.916       22.973       13.552      357.824      527.742      183.667        0.068        0.053       17.189        9.376        0.298      340.803       15.077      865.091
09/10/2014  08:34:00        8.207        8.714       22.592       12.173       22.708       14.361      148.190      515.638      206.230        0.076        0.044       11.970       14.126        1.393      341.295       15.909      865.091
09/10/2014  08:35:00       12.982        5.980        3.775       13.547       20.009       15.577      183.528      400.376      242.643        0.052        0.041       14.293        9.168        0.411      341.097       15.573      865.092
09/10/2014  08:36:00       25.151       -0.364       -3.618       20.281       19.438       12.653      411.314      377.823      160.091        0.080        0.047       25.154        7.663        0.093      341.016       15.437      865.095
09/10/2014  08:37:00       28.234       24.806       19.960       22.105       18.770       17.636      488.645      352.298      311.022        0.148        0.058       37.584        7.330        0.038      341.364       16.025      865.104
09/10/2014  08:38:00        1.399       12.986       37.080       17.700       18.561       26.858      313.290      344.493      721.340        0.146        0.069       13.061       17.499        1.795      341.693       16.585      865.113
09/10/2014  08:39:00       25.300       28.444       25.924       36.109       29.666       32.871     1303.852      880.062     1080.521        0.269        0.163       38.067       31.685        0.693      340.987       15.389      865.108
09/10/2014  08:40:00        4.999        8.188       23.858       22.784       19.037       29.078      519.097      362.403      845.539        0.119        0.086        9.594       17.202        3.215      341.323       15.957      865.108
09/10/2014  08:41:00       -3.062       -8.940       13.605       15.197       12.414       11.610      230.942      154.105      134.783        0.040        0.026        9.450        8.738        0.855      341.418       16.116      865.104
09/10/2014  08:42:00       12.321      -10.706       17.215       24.592       33.013       28.952      604.784     1089.873      838.215        0.155        0.127       16.322       23.056        1.995      341.609       16.442      865.096
09/10/2014  08:43:00       27.270       12.870       42.647       36.217       38.374       31.188     1311.686     1472.527      972.695        0.324        0.188       30.154       28.506        0.894      341.603       16.430      865.094
09/10/2014  08:44:00       36.475       10.947       31.079       31.453       29.499       31.709      989.303      870.163     1005.484        0.264        0.143       38.082       26.917        0.500      341.452       16.174      865.090
09/10/2014  08:45:00       39.484      -13.169        4.311       34.992       39.800       28.619     1224.416     1584.032      819.046        0.269        0.181       41.623       22.546        0.293      341.045       15.486      865.085
09/10/2014  08:46:00       15.527        1.932       28.783       21.832       30.182       26.574      476.634      910.960      706.178        0.158        0.105       15.647       19.303        1.522      341.586       16.401      865.089
09/10/2014  08:47:00       28.349       -4.693       12.128       36.943       39.109       35.626     1364.762     1529.527     1269.192        0.257        0.208       28.735       34.653        1.454      341.405       16.094      865.082
09/10/2014  08:48:00       -1.135       12.067       37.171       19.754       29.013       15.765      390.229      841.726      248.543        0.150        0.074       12.120       16.367        1.824      341.895       16.927      865.091
09/10/2014  08:49:00       32.525       22.237       29.093       31.461       24.863       28.279      989.769      618.170      799.705        0.240        0.120       39.400       17.226        0.191      341.327       15.962      865.087
09/10/2014  08:50:00       50.450      -12.221        2.177       30.034       22.631       26.169      902.018      512.176      684.800        0.240        0.105       51.910       18.219        0.123      341.262       15.854      865.087
09/10/2014  08:51:00       -5.626       20.810       30.064       22.999       21.180       25.278      528.973      448.581      638.961        0.149        0.081       21.557       21.664        1.010      341.543       16.330      865.092
09/10/2014  08:52:00       24.000       -5.564        7.467       24.189       18.181       23.577      585.129      330.539      555.883        0.107        0.074       24.637        8.916        0.131      341.370       16.036      865.097
09/10/2014  08:53:00       19.975      -18.731        7.783       22.257       26.015       22.263      495.378      676.766      495.646        0.124        0.083       27.383       12.590        0.211      341.358       16.016      865.087
09/10/2014  08:54:00      -11.732       -9.422        4.504       21.403       35.126       20.629      458.086     1233.810      425.575        0.118        0.106       15.047        8.092        0.289      341.581       16.393      865.089
09/10/2014  08:55:00       26.937      -35.030       -8.452       31.483       29.458       25.992      991.166      867.765      675.604        0.228        0.127       44.189       17.398        0.155      341.740       16.663      865.078
09/10/2014  08:56:00       45.178        7.506       10.031       20.099       21.118       25.327      403.957      445.955      641.437        0.184        0.075       45.797       18.202        0.158      341.760       16.697      865.078
09/10/2014  08:57:00      -16.017        9.306       29.308       13.215       16.737       12.667      174.635      280.126      160.443        0.091        0.031       18.524        5.861        0.100      342.064       17.213      865.072
09/10/2014  08:58:00       31.748      -13.547        6.251       29.109       22.585       25.705      847.325      510.063      660.737        0.162        0.101       34.517       17.374        0.253      341.703       16.601      865.069
09/10/2014  08:59:00       10.910      -15.164        3.893       20.057       17.945       22.201      402.291      322.014      492.891        0.079        0.061       18.681       15.182        0.661      341.730       16.646      865.066
09/10/2014  09:00:00       23.651        6.529       18.181       24.393       23.935       21.231      595.037      572.908      450.751        0.128        0.081       24.536       12.659        0.266      341.769       16.713      865.057
09/10/2014  09:01:00       33.520      -21.677        9.345       25.652       20.562       26.105      658.034      422.785      681.455        0.172        0.088       39.919       21.642        0.294      341.622       16.464      865.055
09/10/2014  09:02:00      -16.678      -15.494        4.788       42.151       23.189       21.075     1776.743      537.742      444.158        0.165        0.138       22.764       17.422        0.586      341.832       16.818      865.053
09/10/2014  09:03:00      -10.176        2.015        1.032       41.607       25.116       22.583     1731.172      630.838      510.011        0.149        0.144       10.374       13.684        1.740      341.961       17.038      865.045
09/10/2014  09:04:00        3.680      -51.511      -22.544       29.783       33.287       18.520      887.055     1107.993      342.998        0.276        0.117       51.642       10.357        0.040      341.686       16.572      865.040
09/10/2014  09:05:00      -30.393      -14.680        8.153       13.321       20.800       13.835      177.439      432.639      191.414        0.100        0.040       33.753       11.760        0.121      341.924       16.975      865.033
09/10/2014  09:06:00      -18.892        2.176       13.398       15.667       19.313       14.545      245.469      372.995      211.557        0.069        0.042       19.017       11.114        0.342      342.293       17.601      865.030
09/10/2014  09:07:00      -15.361      -16.643       18.069       20.714       27.985       16.217      429.053      783.170      262.975        0.116        0.074       22.648       17.094        0.570      342.465       17.893      865.030
09/10/2014  09:08:00      -20.017        8.954       32.077       13.197       24.139       18.290      174.164      582.685      334.506        0.130        0.055       21.928       10.133        0.214      342.437       17.846      865.038
09/10/2014  09:09:00       18.425      -13.683       21.672       34.777       17.333       20.011     1209.408      300.419      400.446        0.145        0.096       22.950       16.724        0.531      342.338       17.679      865.036
09/10/2014  09:10:00       10.819       16.493       30.484       33.416       44.024       35.279     1116.610     1938.138     1244.611        0.281        0.215       19.725       31.553        2.559      342.073       17.229      865.049
09/10/2014  09:11:00      -15.361      -59.308       12.970       25.472       38.273       23.033      648.819     1464.788      530.512        0.328        0.132       61.265       10.832        0.031      342.057       17.201      865.059
09/10/2014  09:12:00       -7.169       -0.870       25.362       22.933       23.529       15.365      525.925      553.627      236.069        0.101        0.066        7.221        7.903        1.198      342.399       17.782      865.068
09/10/2014  09:13:00       26.513        9.621        4.149       26.791       22.105       26.166      717.775      488.623      684.634        0.135        0.095       28.205       20.868        0.547      342.251       17.531      865.069
09/10/2014  09:14:00       24.295       31.337        3.702       27.758       39.859       20.759      770.520     1588.726      430.923        0.219        0.140       39.652       21.187        0.286      342.290       17.597      865.071
09/10/2014  09:15:00       17.181      -21.588       -4.774       21.662       21.589       17.668      469.257      466.075      312.164        0.102        0.062       27.591       15.350        0.310      341.999       17.104      865.073
09/10/2014  09:16:00       12.254       -8.769       14.434       23.702       12.441       21.083      561.802      154.777      444.486        0.080        0.058       15.068       18.615        1.526      342.723       18.336      865.072
09/10/2014  09:17:00        6.241      -21.027        6.320       24.499       19.797       16.503      600.180      391.937      272.360        0.089        0.063       21.933        9.277        0.179      342.186       17.420      865.061
09/10/2014  09:18:00       22.466      -22.008        7.112       17.233       13.703       17.077      296.989      187.775      291.619        0.091        0.039       31.449        7.622        0.059      342.091       17.258      865.059
09/10/2014  09:19:00       51.222        8.238        8.983       40.818       24.029       23.380     1666.095      577.407      546.643        0.278        0.140       51.880        7.179        0.019      342.395       17.774      865.054
09/10/2014  09:20:00        9.146       19.736       33.097       27.350       30.120       22.300      748.008      907.189      497.269        0.186        0.108       21.752       15.180        0.487      342.810       18.480      865.046
09/10/2014  09:21:00       14.620        1.181       29.136       22.899       29.547       24.724      524.372      872.996      611.259        0.154        0.100       14.667       14.241        0.943      342.597       18.119      865.045
09/10/2014  09:22:00       45.383       31.434       14.421       35.949       31.621       26.234     1292.308      999.905      688.201        0.312        0.149       55.206       22.476        0.166      342.606       18.134      865.047
09/10/2014  09:23:00       24.572       12.633       23.169       30.545       29.409       15.568      932.990      864.902      242.365        0.167        0.102       27.629       13.101        0.225      342.933       18.690      865.041
09/10/2014  09:24:00        7.274       -0.877       26.327       37.827       31.074       25.733     1430.895      965.601      662.176        0.190        0.153        7.326       24.139       10.856      342.864       18.572      865.035
09/10/2014  09:25:00       17.924        7.629       30.237       27.033       33.123       29.257      730.778     1097.137      855.972        0.199        0.134       19.480       23.810        1.494      342.856       18.560      865.038
09/10/2014  09:26:00       15.272       31.554       36.540       36.878       40.988       29.468     1359.984     1680.006      868.386        0.324        0.195       35.056       26.830        0.586      342.528       18.002      865.034
09/10/2014  09:27:00       -2.510       32.366       49.040       33.436       24.096       19.762     1117.991      580.633      390.538        0.277        0.104       32.463       10.492        0.104      342.790       18.447      865.033
09/10/2014  09:28:00       14.017       -2.409       16.133       17.451       17.543       18.053      304.551      307.765      325.924        0.070        0.047       14.222       10.106        0.505      342.980       18.769      865.027
09/10/2014  09:29:00        2.330        0.119       25.756       14.185        9.116        8.829      201.214       83.108       77.945        0.052        0.018        2.333        6.668        8.165      343.423       19.525      865.022
09/10/2014  09:30:00      -40.835      -15.472        5.233       20.974       16.875       12.095      439.911      284.778      146.293        0.140        0.044       43.668       12.729        0.085      342.729       18.343      865.026
09/10/2014  09:31:00      -18.708      -27.971        4.744       28.701       20.225       11.578      823.769      409.036      134.053        0.126        0.068       33.651        9.674        0.083      342.619       18.154      865.019
09/10/2014  09:32:00      -14.845       11.831       24.424       26.690       14.038       14.355      712.339      197.069      206.076        0.104        0.056       18.982        8.405        0.196      343.234       19.204      865.018
09/10/2014  09:33:00       32.368      -11.382       16.539       43.661       21.516       23.531     1906.320      462.926      553.713        0.219        0.146       34.311       22.838        0.443      342.748       18.375      865.018
09/10/2014  09:34:00       23.269      -15.284        4.174       41.043       38.331       27.985     1684.488     1469.294      783.174        0.236        0.197       27.840       28.988        1.084      342.686       18.271      865.016
09/10/2014  09:35:00       13.310       10.651       24.853       33.638       22.347       25.688     1131.534      499.408      659.895        0.160        0.115       17.047        7.370        0.187      343.009       18.820      865.010
09/10/2014  09:36:00       38.553       26.921       31.809       40.122       29.660       37.584     1609.788      879.719     1412.548        0.356        0.195       47.022       24.424        0.270      342.929       18.684      865.004
09/10/2014  09:37:00       20.157        9.558       21.375       35.354       26.030       26.189     1249.875      677.556      685.844        0.178        0.131       22.308       23.076        1.070      343.111       18.992      865.006
09/10/2014  09:38:00        8.606       15.865       48.911       25.431       35.142       28.993      646.754     1234.936      840.586        0.272        0.136       18.049       25.254        1.958      343.403       19.491      865.016
09/10/2014  09:39:00        4.798       28.468       43.246       24.109       25.416       24.180      581.232      645.986      584.661        0.226        0.091       28.870       21.822        0.571      343.376       19.445      865.018
09/10/2014  09:40:00       26.279       17.606       24.342       34.181       22.507       26.408     1168.357      506.582      697.375        0.198        0.119       31.632       16.432        0.270      343.060       18.906      865.019
09/10/2014  09:41:00       25.116       15.287       20.968       25.523       22.433       26.454      651.446      503.228      699.803        0.158        0.093       29.402       16.965        0.333      343.150       19.059      865.028
09/10/2014  09:42:00       31.598        7.907       14.758       26.154       19.476       25.103      684.016      379.322      630.145        0.149        0.085       32.572       20.329        0.390      342.955       18.728      865.036
09/10/2014  09:43:00       40.368       34.574       30.394       34.309       32.313       27.843     1177.140     1044.158      775.235        0.337        0.150       53.150       17.523        0.109      342.848       18.545      865.045
09/10/2014  09:44:00       42.859       30.783       19.447       33.613       24.825       23.987     1129.863      616.277      575.378        0.274        0.116       52.768       16.848        0.102      343.078       18.938      865.052
09/10/2014  09:45:00       34.333       34.219       36.078       32.380       26.416       27.421     1048.466      697.787      751.925        0.307        0.125       48.474       16.421        0.115      343.388       19.465      865.059
09/10/2014  09:46:00       84.497       70.613       19.708       39.537       29.686       36.393     1563.167      881.278     1324.473        0.814        0.188      110.118       20.164        0.034      343.051       18.891      865.047
09/10/2014  09:47:00       40.599       50.405       14.625       47.643       29.029       33.644     2269.845      842.658     1131.921        0.432        0.212       64.722       24.742        0.146      343.454       19.577      865.043
09/10/2014  09:48:00       45.380       23.731        8.443       26.896       25.986       23.645      723.402      675.291      559.072        0.233        0.098       51.211       12.956        0.064      343.318       19.345      865.039
09/10/2014  09:49:00       45.349       18.801       -0.315       25.904       34.707       22.476      671.019     1204.566      505.183        0.240        0.119       49.092        9.815        0.040      342.966       18.746      865.035
09/10/2014  09:50:00       16.770      -16.891       11.678       39.205       17.196       19.034     1537.004      295.715      362.310        0.145        0.110       23.802       14.772        0.385      343.268       19.261      865.028
09/10/2014  09:51:00       20.976      -42.611       12.900       60.147       50.224       36.424     3617.707     2522.409     1326.736        0.494        0.373       47.494       33.389        0.494      343.345       19.391      865.028
09/10/2014  09:52:00       49.764      -10.817       18.719       30.565       36.150       28.218      934.215     1306.845      796.260        0.299        0.152       50.926       26.770        0.276      343.350       19.400      865.030
09/10/2014  09:53:00       24.092      -12.127        6.025       25.182       37.430       23.185      634.135     1401.034      537.525        0.167        0.129       26.972       19.006        0.497      343.075       18.934      865.030
09/10/2014  09:54:00        7.353      -20.199        0.806       22.220       26.566       20.202      493.716      705.757      408.140        0.103        0.080       21.496       15.876        0.545      343.082       18.944      865.026
09/10/2014  09:55:00       -4.571       22.315       28.238       22.072       39.278       28.232      487.151     1542.740      797.030        0.207        0.141       22.778       27.453        1.453      343.547       19.736      865.020
09/10/2014  09:56:00       64.731       45.031       18.087       67.334       64.654       24.129     4533.893     4180.184      582.192        0.792        0.465       78.854       20.524        0.068      343.557       19.753      865.019
09/10/2014  09:57:00      136.823       93.359       53.949       63.775       48.216       52.404     4067.241     2324.775     2746.165        1.974        0.457      165.640       41.766        0.064      343.233       19.199      865.016
09/10/2014  09:58:00      154.036       97.407        3.979       52.500       32.036       36.647     2756.222     1026.334     1343.024        1.918        0.256      182.250       16.985        0.009      343.059       18.902      865.018
09/10/2014  09:59:00       -0.428        8.455       -6.881       29.550       41.531       21.382      873.224     1724.822      457.187        0.159        0.153        8.466       13.149        2.413      343.400       19.484      865.014
09/10/2014  10:00:00       15.065       27.214       14.251       36.117       21.911       20.613     1304.404      480.096      424.902        0.169        0.110       31.105       11.827        0.145      343.835       20.227      865.013
09/10/2014  10:01:00       48.623       19.899       26.828       43.618       28.062       25.124     1902.504      787.466      631.228        0.340        0.166       52.537       20.790        0.157      344.071       20.630      865.003
09/10/2014  10:02:00       11.015       44.355       51.766       28.326       35.278       20.823      802.341     1244.522      433.587        0.362        0.124       45.702       13.984        0.094      344.078       20.642      865.002
09/10/2014  10:03:00       -1.755        4.964       37.081       18.788       22.119       15.588      352.972      489.247      242.989        0.124        0.054        5.265       12.784        5.896      344.424       21.234      864.998
09/10/2014  10:04:00       19.475       13.798       17.508       30.220       36.806       28.016      913.254     1354.716      784.880        0.196        0.153       23.868       10.426        0.191      343.669       19.944      864.990
09/10/2014  10:05:00       30.868       30.720       -7.894       51.498       43.519       27.836     2652.066     1893.888      774.846        0.364        0.266       43.550       14.691        0.114      343.453       19.575      864.993
09/10/2014  10:06:00      -16.607      -17.577        8.938       37.002       30.089       16.725     1369.150      905.338      279.737        0.161        0.128       24.181        8.015        0.110      343.642       19.898      864.981
09/10/2014  10:07:00       29.491      -23.688       10.144       40.738       64.909       41.778     1659.623     4213.242     1745.424        0.457        0.381       37.827       41.464        1.202      343.311       19.335      864.987
09/10/2014  10:08:00       47.488       55.019       58.074       60.206       38.155       29.635     3624.774     1455.840      878.256        0.731        0.298       72.679       17.863        0.060      343.809       20.182      864.992
09/10/2014  10:09:00       54.804       85.656       74.503       40.172       44.383       38.465     1613.752     1969.810     1479.571        1.048        0.253      101.688       22.285        0.048      343.752       20.086      864.995
09/10/2014  10:10:00       44.360      -44.828       16.273       49.795       72.379       37.083     2479.575     5238.695     1375.176        0.667        0.455       63.066       33.584        0.284      343.137       19.036      865.005
09/10/2014  10:11:00       57.534      -19.529       16.792       33.328       26.310       21.310     1110.765      692.208      454.127        0.311        0.113       60.758       16.995        0.078      343.368       19.431      865.002
09/10/2014  10:12:00      -22.061       -4.014       10.973       37.165       20.785       23.565     1381.272      432.022      555.310        0.150        0.118       22.423       24.383        1.182      343.664       19.936      865.002
09/10/2014  10:13:00      -26.771      -55.039       -1.665       26.436       29.862       20.663      698.854      891.719      426.967        0.288        0.101       61.205       10.284        0.028      343.794       20.157      864.989
09/10/2014  10:14:00       11.648       -7.350       21.308       37.776       32.605       33.628     1427.028     1063.070     1130.845        0.213        0.181       13.774       26.289        3.643      343.879       20.302      864.987
09/10/2014  10:15:00       27.104       -2.701       30.117       26.741       29.210       27.424      715.062      853.228      752.090        0.198        0.116       27.238       16.186        0.353      343.875       20.295      864.993
09/10/2014  10:16:00        8.948       -1.603       24.192       23.994       46.920       24.679      575.734     2201.495      609.039        0.203        0.169        9.090       18.580        4.177      344.140       20.749      864.980
09/10/2014  10:17:00       32.155       -8.828       34.223       49.290       61.117       45.064     2429.523     3735.278     2030.729        0.524        0.410       33.345       50.641        2.306      343.685       19.971      864.978
09/10/2014  10:18:00       -5.771       -5.495       46.425       27.370       59.582       46.085      749.115     3550.029     2123.845        0.432        0.321        7.968       42.399       28.312      344.124       20.721      864.969
09/10/2014  10:19:00       19.451      -15.097       11.361       37.300       49.794       38.982     1391.271     2479.416     1519.571        0.306        0.270       24.622       28.142        1.306      344.190       20.835      864.981
09/10/2014  10:20:00       11.913      -63.511      -14.879       30.636       27.121       19.448      938.559      735.557      378.225        0.322        0.103       64.618       13.849        0.046      343.635       19.886      864.989
09/10/2014  10:21:00      -19.589      -14.311       -0.773       25.694       35.046       18.727      660.164     1228.222      350.700        0.141        0.112       24.260        6.761        0.078      344.218       20.880      864.974
09/10/2014  10:22:00      -25.090       -0.124       21.223       20.549       36.921       23.215      422.245     1363.186      538.942        0.170        0.116       25.091       16.402        0.427      344.455       21.288      864.972
09/10/2014  10:23:00      -41.222       -1.508      -10.629       28.864       24.475        9.857      833.123      599.032       97.152        0.167        0.076       41.250        9.457        0.053      343.861       20.271      864.967
09/10/2014  10:24:00      -29.222       -8.206      -11.413       21.644       22.240       15.509      468.479      494.633      240.544        0.113        0.060       30.352        8.037        0.070      344.020       20.543      864.967
09/10/2014  10:25:00       44.899      -25.708       22.865       61.262       42.789       37.811     3753.018     1830.906     1429.661        0.511        0.351       51.738       37.287        0.519      344.643       21.609      864.956
09/10/2014  10:26:00       67.112     -117.749        1.796       61.386       81.696       40.524     3768.200     6674.292     1642.202        1.523        0.604      135.532       38.581        0.081      344.303       21.025      864.938
09/10/2014  10:27:00       74.005      -59.524       15.745       62.268       86.865       49.337     3877.351     7545.516     2434.179        1.156        0.693       94.973       57.409        0.365      344.409       21.207      864.932
09/10/2014  10:28:00       51.624      -44.622       10.009       59.499       65.742       56.751     3540.125     4322.016     3220.656        0.792        0.554       68.236       56.150        0.677      344.257       20.948      864.936
09/10/2014  10:29:00       48.030       24.732       52.631       43.515       47.470       36.456     1893.565     2253.431     1329.020        0.558        0.274       54.024       34.673        0.412      343.960       20.441      864.936
09/10/2014  10:30:00       65.933      -17.643       17.259       32.861       38.325       29.602     1079.868     1468.791      876.298        0.419        0.171       68.253       22.464        0.108      343.499       19.654      864.931
09/10/2014  10:31:00       27.404        3.718       25.676       54.549       52.237       37.289     2975.547     2728.658     1390.444        0.426        0.355       27.655       31.612        1.307      344.097       20.676      864.916
09/10/2014  10:32:00       33.492       -6.146       40.605       37.175       54.399       39.729     1381.956     2959.199     1578.432        0.436        0.296       34.051       28.411        0.696      344.326       21.067      864.920
09/10/2014  10:33:00       18.043       31.930       37.469       26.456       29.489       22.972      699.930      869.625      527.717        0.242        0.105       36.676       17.006        0.215      344.134       20.738      864.911
09/10/2014  10:34:00        6.341       13.709       22.792       24.799       26.691       18.982      614.995      712.417      360.305        0.122        0.084       15.104       13.471        0.795      343.998       20.504      864.899
09/10/2014  10:35:00       17.759       -0.501       -9.886       26.999       21.969       19.672      728.942      482.648      386.970        0.101        0.080       17.766        8.176        0.212      343.845       20.242      864.896
09/10/2014  10:36:00       13.486       70.373       82.026       35.813       35.872       28.133     1282.575     1286.836      791.452        0.761        0.168       71.654       21.842        0.093      344.204       20.856      864.890
09/10/2014  10:37:00      -10.647       51.492       47.670       21.687       37.583       42.471      470.315     1412.463     1803.792        0.436        0.184       52.582       19.176        0.133      344.526       21.406      864.890
09/10/2014  10:38:00       52.745       43.574       65.403       37.208       49.228       28.099     1384.459     2423.435      789.560        0.678        0.230       68.416       11.090        0.026      344.317       21.050      864.885
09/10/2014  10:39:00       79.175       73.475        9.858       31.624       33.932       32.191     1000.063     1151.356     1036.268        0.748        0.159      108.016       10.061        0.009      344.263       20.958      864.886
09/10/2014  10:40:00       75.737       76.290       47.234       60.145       38.970       43.855     3617.376     1518.623     1923.242        1.042        0.353      107.500       29.750        0.077      344.536       21.425      864.887
09/10/2014  10:41:00       22.097       77.699       90.146       51.858       42.026       39.363     2689.296     1766.144     1549.479        1.033        0.300       80.780       36.423        0.203      344.318       21.052      864.891
09/10/2014  10:42:00       18.182       45.299       57.028       33.081       41.607       28.555     1094.334     1731.161      815.413        0.464        0.182       48.812       20.171        0.171      344.200       20.850      864.901
09/10/2014  10:43:00       40.003      -28.107       31.703       37.475       82.667       44.780     1404.343     6833.896     2005.234        0.682        0.512       48.890       53.773        1.210      343.845       20.247      864.894
09/10/2014  10:44:00       46.262      -33.464       34.846       32.253       52.767       33.352     1040.280     2784.408     1112.365        0.470        0.247       57.096       33.955        0.354      343.746       20.075      864.901
09/10/2014  10:45:00       81.954       55.422        8.408       24.558       24.097       22.735      603.072      580.688      516.868        0.578        0.085       98.935       16.227        0.027      343.891       20.322      864.889
09/10/2014  10:46:00       25.395      -10.258        6.193       27.351       24.305       21.898      748.105      590.741      479.517        0.130        0.091       27.389        8.154        0.089      344.289       21.003      864.895
09/10/2014  10:47:00       17.951       17.608       20.479       34.640       28.817       26.142     1199.956      830.392      683.419        0.188        0.136       25.145       14.362        0.326      344.640       21.602      864.874
09/10/2014  10:48:00        3.862       46.656        9.808       56.633       27.934       35.172     3207.308      780.334     1237.054        0.376        0.261       46.816       22.977        0.241      344.893       22.037      864.878
09/10/2014  10:49:00      114.952       75.178       20.666       38.076       23.158       29.193     1449.752      536.276      852.213        1.107        0.142      137.353       13.818        0.010      344.324       21.062      864.868
09/10/2014  10:50:00       30.281       29.716       12.664       32.940       34.823       20.002     1085.049     1212.646      400.078        0.233        0.135       42.427       19.918        0.220      344.784       21.848      864.861
09/10/2014  10:51:00       36.660        2.401       29.505       35.251       26.415       19.635     1242.638      697.762      385.544        0.227        0.116       36.739        8.929        0.059      344.991       22.203      864.850
09/10/2014  10:52:00       78.925       59.716       19.240       35.000       49.023       34.897     1225.011     2403.283     1217.816        0.750        0.242       98.970       32.465        0.108      344.371       21.142      864.843
09/10/2014  10:53:00       32.911       67.472       -1.523       27.230       28.367       31.613      741.496      804.685      999.357        0.409        0.127       75.071       17.730        0.056      344.384       21.164      864.841
09/10/2014  10:54:00        1.873       12.250        9.268       24.740       15.106       25.695      612.077      228.196      660.245        0.087        0.075       12.392       18.519        2.233      344.830       21.926      864.829
09/10/2014  10:55:00       22.393       13.528       20.288       40.305       58.763       30.505     1624.524     3453.067      930.527        0.355        0.300       26.162       33.718        1.661      344.753       21.795      864.824
09/10/2014  10:56:00       43.693       59.553       77.359       34.294       42.528       25.962     1176.084     1808.628      674.023        0.755        0.183       73.862       19.222        0.068      344.815       21.901      864.815
09/10/2014  10:57:00       12.057       56.784       90.193       40.177       69.873       42.954     1614.188     4882.188     1845.004        0.992        0.417       58.050       45.951        0.627      344.883       22.018      864.812
09/10/2014  10:58:00      132.459       67.044        7.225       65.493       53.101       41.019     4289.325     2819.750     1682.558        1.544        0.440      148.460       25.036        0.028      344.650       21.620      864.805
09/10/2014  10:59:00       57.949       47.226        3.375       42.060       33.470       34.727     1769.019     1120.252     1205.988        0.485        0.205       74.756       29.409        0.155      344.729       21.755      864.793
09/10/2014  11:00:00       46.668       42.821        2.116       28.352       29.834       27.856      803.843      890.094      775.981        0.324        0.123       63.337       18.658        0.087      344.807       21.887      864.787
09/10/2014  11:01:00        2.324       45.152      -20.653       55.756       33.111       24.654     3108.687     1096.366      607.809        0.364        0.241       45.212       19.513        0.186      344.532       21.419      864.776
09/10/2014  11:02:00      -49.521       33.715      -20.708       25.829       27.606       14.991      667.162      762.090      224.730        0.284        0.083       59.908       11.797        0.039      344.495       21.356      864.762
09/10/2014  11:03:00      -12.550       19.841       11.181       34.199       26.372       25.545     1169.582      695.495      652.528        0.160        0.126       23.477       22.922        0.953      344.919       22.080      864.758
09/10/2014  11:04:00       51.793      -27.755        7.025       39.537       43.358       26.262     1563.140     1879.940      689.707        0.382        0.207       58.761       24.897        0.180      344.670       21.655      864.752
09/10/2014  11:05:00       43.782      -45.598       34.305       52.132       69.913       41.477     2717.737     4887.761     1720.346        0.725        0.466       63.214       38.064        0.363      345.222       22.598      864.744
09/10/2014  11:06:00       16.233       18.267       42.970       26.643       33.585       23.692      709.847     1127.945      561.307        0.242        0.120       24.438       11.013        0.203      345.298       22.730      864.732
09/10/2014  11:07:00       -2.442      -32.081       12.923       36.335       41.080       34.812     1320.209     1687.545     1211.868        0.271        0.211       32.173       15.074        0.220      345.136       22.451      864.734
09/10/2014  11:08:00       29.782       15.264       41.230       32.891       38.146       28.950     1081.838     1455.126      838.113        0.310        0.169       33.466       24.587        0.540      344.995       22.209      864.739
09/10/2014  11:09:00      -66.881       24.534        3.399       39.351       24.143       28.903     1548.523      582.879      835.359        0.403        0.148       71.239       24.399        0.117      344.995       22.210      864.731
09/10/2014  11:10:00      -35.345       10.538      -20.793       37.197       27.562       17.092     1383.610      759.658      292.153        0.211        0.122       36.883        9.918        0.072      344.738       21.769      864.715
09/10/2014  11:11:00       -8.822      -63.778        5.920       40.471       82.377       38.583     1637.888     6786.021     1488.611        0.704        0.496       64.386       44.199        0.471      345.272       22.683      864.702
09/10/2014  11:12:00       73.905     -114.903      -27.411       44.273       48.637       34.582     1960.073     2365.520     1195.919        1.247        0.276      136.619       24.010        0.031      345.136       22.453      864.680
09/10/2014  11:13:00       -6.210      -62.195        6.308       32.772       37.412       26.032     1074.026     1399.622      677.652        0.355        0.158       62.504       23.096        0.137      344.975       22.176      864.670
09/10/2014  11:14:00        6.611       29.818       22.534       26.020       29.872       25.120      677.049      892.330      631.016        0.182        0.110       30.542       12.633        0.171      345.175       22.518      864.660
09/10/2014  11:15:00       23.385       60.360       10.623       25.581       34.602       29.539      654.413     1197.291      872.548        0.351        0.136       64.732       16.821        0.068      345.277       22.691      864.652
09/10/2014  11:16:00       10.078       22.429       28.174       27.470       25.651       21.471      754.587      657.959      460.984        0.164        0.094       24.589       18.425        0.562      345.930       23.814      864.631
09/10/2014  11:17:00       -7.460       19.603       21.763       18.975       21.587       25.511      360.069      466.015      650.813        0.119        0.074       20.975       17.049        0.661      345.674       23.374      864.613
09/10/2014  11:18:00      -40.599       -6.601        3.928       39.332       23.002       19.425     1547.024      529.105      377.341        0.208        0.123       41.132       19.957        0.235      345.442       22.976      864.598
09/10/2014  11:19:00        6.482        5.716       18.092       41.914       22.388       27.932     1756.778      501.218      780.173        0.172        0.152        8.642       16.518        3.653      345.386       22.880      864.583
09/10/2014  11:20:00       -6.448       34.189       62.126       22.430       29.005       19.024      503.116      841.301      361.910        0.339        0.085       34.792       16.280        0.219      345.866       23.703      864.568
09/10/2014  11:21:00      116.330       99.875       56.459       69.894       43.164       51.038     4885.225     1863.125     2604.921        1.802        0.468      153.322       44.427        0.084      344.974       22.174      864.554
09/10/2014  11:22:00       66.676        2.778      -17.362       33.693       29.032       19.380     1135.192      842.839      375.579        0.355        0.118       66.734        9.347        0.020      344.770       21.825      864.554
09/10/2014  11:23:00        0.047        0.990        7.353        9.310        8.990       12.167       86.674       80.816      148.028        0.019        0.016        0.991        4.509       20.702      345.786       23.567      864.526
09/10/2014  11:24:00       -6.158        4.268       22.536       19.528       16.529       17.617      381.356      273.215      310.354        0.076        0.048        7.492        9.799        1.711      346.056       24.030      864.506
09/10/2014  11:25:00       12.972      -56.209       23.089       45.325       76.983       40.663     2054.361     5926.401     1653.457        0.675        0.482       57.686       25.511        0.196      345.410       22.921      864.490
09/10/2014  11:26:00      169.070      123.262       48.318       63.086       74.256       62.915     3979.846     5513.960     3958.307        2.978        0.673      209.232       35.773        0.029      345.067       22.329      864.469
09/10/2014  11:27:00      104.024       73.829       19.299       54.604       55.294       35.584     2981.551     3057.391     1266.250        1.197        0.365      127.560       29.182        0.052      345.543       23.149      864.468
09/10/2014  11:28:00        4.909       19.280       57.695       43.121       51.257       39.369     1859.437     2627.330     1549.948        0.488        0.302       19.895       31.759        2.548      346.552       24.882      864.457
09/10/2014  11:29:00       21.907       25.008       71.990       47.019       72.893       36.040     2210.788     5313.341     1298.868        0.755        0.441       33.247       31.195        0.880      346.108       24.119      864.435
09/10/2014  11:30:00       51.316       46.003       52.311       55.082       54.294       49.181     3034.024     2947.880     2418.753        0.794        0.420       68.917       45.193        0.430      345.848       23.673      864.433
09/10/2014  11:31:00        9.441       30.706       44.598       36.823       59.420       52.585     1355.962     3530.693     2765.197        0.534        0.383       32.125       41.440        1.664      346.095       24.096      864.414
09/10/2014  11:32:00      129.347       68.310       27.830       68.289       46.757       57.130     4663.356     2186.224     3263.805        1.614        0.506      146.277       26.363        0.032      345.679       23.381      864.408
09/10/2014  11:33:00       77.686       59.506       52.102       51.655       42.930       38.657     2668.279     1842.972     1494.401        0.915        0.300       97.857       17.844        0.033      345.461       23.008      864.416
09/10/2014  11:34:00       24.982       -8.183       27.647       22.111       50.332       39.121      488.892     2533.263     1530.464        0.300        0.228       26.288       33.771        1.650      345.478       23.037      864.405
09/10/2014  11:35:00        2.940       -4.162       10.080       21.172       16.098       14.776      448.251      259.141      218.330        0.053        0.046        5.096        9.699        3.622      345.710       23.437      864.382
09/10/2014  11:36:00      -23.524        5.677      -10.635       15.981       27.762       18.820      255.383      770.717      354.195        0.104        0.069       24.200       14.223        0.345      345.720       23.452      864.369
09/10/2014  11:37:00      -13.926       17.693       26.401       38.534       34.688       46.269     1484.845     1203.241     2140.847        0.302        0.241       22.516       33.523        2.217      345.987       23.911      864.361
09/10/2014  11:38:00       17.845       54.383       20.979       57.508       62.482       45.429     3307.224     3903.956     2063.776        0.649        0.464       57.236       29.470        0.265      345.862       23.696      864.340
09/10/2014  11:39:00       35.091       87.627       -2.386       30.767       43.665       38.938      946.612     1906.644     1516.190        0.664        0.218       94.392       31.235        0.110      345.766       23.533      864.337
09/10/2014  11:40:00       79.250       51.473       14.707       37.807       42.908       35.900     1429.399     1841.100     1288.777        0.685        0.228       94.498       24.887        0.069      345.463       23.011      864.332
09/10/2014  11:41:00       42.870       38.706       16.573       54.859       33.595       37.731     3009.524     1128.645     1423.596        0.459        0.278       57.758       33.826        0.343      346.133       24.162      864.316
09/10/2014  11:42:00        1.242       25.369       29.071       43.127       36.314       22.911     1859.973     1318.683      524.910        0.260        0.185       25.400       19.835        0.610      346.433       24.676      864.312
09/10/2014  11:43:00       39.639       64.820       11.283       56.204       47.970       40.383     3158.854     2301.160     1630.811        0.649        0.355       75.980       21.883        0.083      345.928       23.809      864.301
09/10/2014  11:44:00       25.232      118.682        0.983       74.014       99.091       49.003     5478.084     9819.047     2401.245        1.621        0.885      121.335       51.505        0.180      345.859       23.689      864.280
09/10/2014  11:45:00       38.160      145.248       -4.913       52.999       95.467       54.169     2808.895     9114.003     2934.240        1.871        0.743      150.178       57.894        0.149      345.546       23.153      864.275
09/10/2014  11:46:00      -31.788      136.233      -21.966       28.260       78.687       28.146      798.623     6191.597      792.170        1.392        0.389      139.893       18.552        0.018      345.271       22.683      864.270
09/10/2014  11:47:00      -55.233        0.324       -3.810       43.206       23.259       24.264     1866.797      540.975      588.738        0.303        0.150       55.234       20.171        0.133      345.664       23.355      864.261
09/10/2014  11:48:00        9.010       38.274       12.571       20.418       26.064       28.660      416.893      679.310      821.418        0.181        0.096       39.320       13.087        0.111      346.223       24.317      864.245
09/10/2014  11:49:00        0.185       23.764       25.965       40.118       37.119       24.109     1609.433     1377.823      581.259        0.240        0.178       23.765       22.341        0.884      346.157       24.203      864.237
09/10/2014  11:50:00      -19.019      -43.683        1.796       33.406       40.041       34.717     1115.992     1603.308     1205.245        0.310        0.196       47.644       21.375        0.201      345.876       23.719      864.223
09/10/2014  11:51:00      -50.536       35.407        5.830       31.526       31.176       32.101      993.869      971.946     1030.443        0.342        0.150       61.705       20.929        0.115      345.909       23.776      864.225
09/10/2014  11:52:00      -52.255      -36.546        8.310       36.338       57.026       30.432     1320.444     3251.976      926.128        0.482        0.275       63.766       16.013        0.063      345.616       23.272      864.223
09/10/2014  11:53:00      -37.396      -40.354       -5.621       23.588       26.112       19.191      556.388      681.824      368.311        0.233        0.080       55.017       17.343        0.099      345.593       23.234      864.201
09/10/2014  11:54:00      -11.141      -29.668       18.352       22.804       23.440       25.984      520.028      549.439      675.144        0.154        0.087       31.691       12.070        0.145      345.908       23.774      864.196
09/10/2014  11:55:00       38.867      -72.557       14.258       51.183       59.402       38.042     2619.692     3528.632     1447.230        0.729        0.380       82.312       34.484        0.176      346.005       23.941      864.183
09/10/2014  11:56:00       73.292       79.234       57.100       98.702       66.288       68.826     9742.161     4394.064     4736.959        1.689        0.944      107.934       54.777        0.258      346.269       24.394      864.175
09/10/2014  11:57:00      145.444       97.832        2.319       77.997       50.120       37.680     6083.548     2512.025     1419.786        2.037        0.501      175.285       19.646        0.013      345.628       23.291      864.176
09/10/2014  11:58:00      135.031       89.678       25.511       68.311       57.679       50.414     4666.329     3326.829     2541.586        1.873        0.527      162.098       31.936        0.039      346.089       24.082      864.161
09/10/2014  11:59:00       66.448       72.703       70.848       72.671       62.528       37.823     5281.056     3909.746     1430.568        1.267        0.531       98.494       24.873        0.064      346.801       25.310      864.152
09/10/2014  12:00:00      163.892      141.582       84.217       96.022       78.759       78.523     9220.318     6202.959     6165.819        3.779        1.079      216.578       70.347        0.106      345.803       23.590      864.154
09/10/2014  12:01:00       35.947       15.272       24.531       46.448       59.837       59.911     2157.436     3580.415     3589.274        0.573        0.466       39.056       34.446        0.778      346.189       24.259      864.148
09/10/2014  12:02:00       92.052       77.728       16.098       58.152       44.597       47.400     3381.649     1988.848     2246.763        1.119        0.381      120.479       34.340        0.081      346.036       23.993      864.149
09/10/2014  12:03:00      102.106       68.039       30.718       63.564       43.335       47.571     4040.445     1877.938     2262.989        1.209        0.409      122.699       27.409        0.050      346.049       24.017      864.137
09/10/2014  12:04:00       40.249        0.086       42.620       34.188       43.206       39.066     1168.791     1866.783     1526.119        0.400        0.228       40.249       16.780        0.174      346.384       24.591      864.140
09/10/2014  12:05:00       81.190      -33.376       12.157       27.053       27.674       29.145      731.841      765.843      849.423        0.510        0.117       87.782       16.924        0.037      345.795       23.582      864.137
09/10/2014  12:06:00      -20.781      -41.214        6.094       75.020       72.903       37.941     5628.000     5314.798     1439.525        0.727        0.619       46.157       35.748        0.600      346.094       24.097      864.121
09/10/2014  12:07:00       30.008       36.581       31.359       40.359       32.920       33.297     1628.874     1083.731     1108.703        0.352        0.191       47.314       23.180        0.240      346.642       25.036      864.123
09/10/2014  12:08:00       13.550       33.260       33.930       47.205       46.919       29.857     2228.331     2201.397      891.427        0.388        0.266       35.914       19.200        0.286      346.656       25.060      864.111
09/10/2014  12:09:00       30.692       -1.428       73.092       71.615       89.719       66.813     5128.763     8049.534     4463.950        1.196        0.882       30.725       51.273        2.785      346.810       25.325      864.098
09/10/2014  12:10:00      107.274      -25.120       65.881       91.365      110.771       81.380     8347.477    12270.178     6622.757        2.186        1.362      110.175       88.399        0.644      346.262       24.382      864.110
09/10/2014  12:11:00       66.705       -7.618       44.042       75.881       97.740       58.312     5757.885     9553.078     3400.312        1.258        0.936       67.138       68.987        1.056      346.350       24.535      864.135
09/10/2014  12:12:00       -2.003       24.434       59.074       26.352       50.189       39.404      694.444     2518.912     1552.710        0.443        0.238       24.516       40.067        2.671      346.417       24.650      864.131
09/10/2014  12:13:00      -27.886        8.537      -16.747       26.164       42.983       18.233      684.547     1847.521      332.455        0.200        0.143       29.163       17.407        0.356      346.194       24.266      864.118
09/10/2014  12:14:00      -53.353        2.039       -3.079       53.650       38.472       22.045     2878.341     1480.111      485.996        0.385        0.242       53.391       17.588        0.109      346.294       24.438      864.106
09/10/2014  12:15:00     -113.447      -52.297        2.380       78.510       49.427       38.054     6163.887     2443.054     1448.092        1.283        0.503      124.921       23.704        0.036      346.021       23.968      864.079
09/10/2014  12:16:00     -127.196      -76.491        5.682       75.329       60.623       37.289     5674.395     3675.128     1390.497        1.640        0.537      148.424       33.584        0.051      346.051       24.021      864.061
09/10/2014  12:17:00      -72.324      -78.314       -8.617       43.478       43.151       24.153     1890.330     1862.035      583.354        0.789        0.217      106.601       23.591        0.049      345.806       23.600      864.048
09/10/2014  12:18:00      -51.297       -4.506      -15.682       15.415       26.584       10.931      237.616      706.689      119.489        0.198        0.053       51.495        9.263        0.032      345.695       23.408      864.032
09/10/2014  12:19:00      -85.501        7.503      -12.840       38.408       63.307       26.356     1475.140     4007.737      694.665        0.685        0.309       85.830       15.481        0.033      346.004       23.940      864.021
09/10/2014  12:20:00      -22.859      -29.421        5.992       45.504       26.901       25.674     2070.659      723.690      659.174        0.244        0.173       37.257       22.502        0.365      346.553       24.884      864.006
09/10/2014  12:21:00      -42.044      -33.581        4.864       26.102       24.223       23.783      681.324      586.775      565.637        0.238        0.092       53.809       18.051        0.113      346.196       24.270      864.000
09/10/2014  12:22:00      -13.707       -1.314       47.183       28.298       44.270       31.231      800.800     1959.815      975.355        0.308        0.187       13.770       20.413        2.198      346.957       25.580      863.982
09/10/2014  12:23:00       33.362      -27.454       35.594       58.938       92.053       55.741     3473.669     8473.804     3107.106        0.909        0.753       43.206       60.613        1.968      346.484       24.765      863.947
09/10/2014  12:24:00       46.826      -12.437       60.060       64.045       89.512       54.610     4101.746     8012.484     2982.198        1.052        0.755       48.449       56.099        1.341      346.653       25.054      863.936
09/10/2014  12:25:00       95.794      -71.981        1.876       62.825       83.464       43.918     3946.989     6966.194     1928.773        1.360        0.642      119.824       49.526        0.171      346.262       24.383      863.930
09/10/2014  12:26:00       26.344      -35.735       40.843       29.514       44.162       19.546      871.059     1950.250      382.061        0.342        0.160       44.396       17.197        0.150      346.657       25.062      863.927
09/10/2014  12:27:00      127.271      102.170       47.516       79.171       49.310       49.691     6268.115     2431.472     2469.170        2.003        0.558      163.208       45.566        0.078      346.349       24.531      863.915
09/10/2014  12:28:00       75.287       78.734       52.228       53.590       47.167       48.295     2871.908     2224.723     2332.363        1.101        0.371      108.937       30.686        0.079      346.553       24.884      863.902
09/10/2014  12:29:00      200.408      142.851       33.699       93.131       80.516       64.196     8673.370     6482.823     4121.094        4.049        0.964      246.110       53.485        0.047      346.159       24.201      863.886
09/10/2014  12:30:00      170.005      105.017       26.536       89.790       72.089       59.653     8062.284     5196.822     3558.517        2.872        0.841      199.826       22.670        0.013      346.101       24.102      863.892
09/10/2014  12:31:00       98.480       67.278       14.223       64.889       46.388       42.075     4210.559     2151.891     1770.321        1.128        0.407      119.267       24.555        0.042      346.438       24.686      863.873
09/10/2014  12:32:00       81.795       40.940       47.690       72.836       69.655       53.971     5305.085     4851.751     2912.901        1.185        0.653       91.468       35.963        0.155      346.790       25.292      863.864
09/10/2014  12:33:00       34.984      -23.668       45.824       70.929       78.329       46.245     5030.873     6135.484     2138.633        0.859        0.665       42.239       25.689        0.370      346.843       25.382      863.857
09/10/2014  12:34:00      115.352      -64.600       39.217       84.792      131.566       67.268     7189.747    17309.696     4525.033        2.402        1.451      132.209       78.282        0.351      346.606       24.972      863.839
09/10/2014  12:35:00       57.037      -16.915       60.338       66.691       99.957       62.214     4447.668     9991.492     3870.561        1.274        0.915       59.492       64.770        1.185      346.629       25.014      863.845
09/10/2014  12:36:00       70.172     -118.058        7.306       57.921       94.208       44.007     3354.800     8875.135     1936.646        1.654        0.708      137.338       48.787        0.126      346.464       24.729      863.846
09/10/2014  12:37:00       77.341     -122.668       -6.305       42.300       64.022       39.148     1789.259     4098.852     1532.603        1.424        0.371      145.014       42.299        0.085      346.271       24.398      863.832
09/10/2014  12:38:00       34.563     -104.851      -13.005       50.603       51.524       36.565     2560.699     2654.743     1336.964        0.945        0.328      110.401       29.892        0.073      346.162       24.210      863.828
09/10/2014  12:39:00       42.149      -39.018       29.649       61.314       66.122       52.282     3759.349     4372.100     2733.381        0.752        0.543       57.436       49.229        0.735      346.739       25.204      863.812
09/10/2014  12:40:00       34.861      -29.227       30.960       39.302       77.005       42.221     1544.664     5929.722     1782.631        0.614        0.463       45.492       45.543        1.002      346.791       25.293      863.792
09/10/2014  12:41:00       21.826      -40.808       10.075       23.727       57.811       26.967      562.971     3342.167      727.233        0.344        0.232       46.279       30.172        0.425      346.878       25.443      863.771
09/10/2014  12:42:00       27.209      -75.986        4.177       22.586       33.957       20.350      510.133     1153.058      414.125        0.430        0.104       80.711       16.881        0.044      346.665       25.076      863.768
09/10/2014  12:43:00       31.887      -25.334       17.793       48.617       66.772       31.250     2363.603     4458.566      976.542        0.489        0.390       40.726       31.006        0.580      346.954       25.573      863.749
09/10/2014  12:44:00       61.710      -55.265       20.772       59.983       34.145       34.747     3597.926     1165.901     1207.355        0.663        0.299       82.839       17.947        0.047      346.935       25.541      863.730
09/10/2014  12:45:00      -30.120      -15.841       19.257       46.094       31.331       29.118     2124.644      981.651      847.843        0.274        0.198       34.032       12.932        0.144      347.116       25.852      863.708
09/10/2014  12:46:00       22.839      -48.059       29.098       75.700       81.591       50.102     5730.529     6657.089     2510.259        0.929        0.745       53.210       53.584        1.014      346.763       25.243      863.704
09/10/2014  12:47:00       36.360      -75.842       16.517       74.339       65.998       59.954     5526.259     4355.775     3594.476        1.041        0.674       84.107       46.463        0.305      346.747       25.217      863.686
09/10/2014  12:48:00       47.161        5.084       20.591       42.899       35.406       32.150     1840.286     1253.577     1033.600        0.340        0.206       47.434       14.692        0.096      346.433       24.677      863.693
09/10/2014  12:49:00       24.455       16.017        5.919       11.416       14.942       21.338      130.320      223.265      455.313        0.085        0.040       29.234        8.870        0.092      346.454       24.714      863.659
09/10/2014  12:50:00       -9.521       71.947      -19.609       24.762       32.701       11.175      613.181     1069.323      124.884        0.373        0.090       72.574        7.031        0.009      346.316       24.476      863.641
09/10/2014  12:51:00      -28.094       87.640        3.378       25.248       56.051       36.840      637.449     3141.724     1357.163        0.681        0.257       92.033       33.226        0.130      346.918       25.512      863.613
09/10/2014  12:52:00       -3.527      -50.199       10.171       25.275       50.677       28.610      638.837     2568.132      818.531        0.333        0.201       50.322       23.238        0.213      347.227       26.044      863.593
09/10/2014  12:53:00      -76.620      -50.142       -8.937       46.656       42.472       23.220     2176.748     1803.830      539.165        0.649        0.226       91.569        9.515        0.011      346.882       25.449      863.567
09/10/2014  12:54:00      -38.071      -45.977        5.799       59.566       36.759       30.427     3548.055     1351.218      925.813        0.471        0.291       59.694       27.566        0.213      347.127       25.871      863.562
09/10/2014  12:55:00       -9.285      -10.005       26.132       30.971       16.570       19.013      959.216      274.562      361.492        0.123        0.080       13.649       18.537        1.844      347.380       26.307      863.558
09/10/2014  12:56:00       37.579     -114.273       10.180       65.800       62.274       44.854     4329.621     3878.063     2011.859        1.240        0.511      120.294       34.876        0.084      346.939       25.547      863.538
09/10/2014  12:57:00       39.365       61.376       86.063       70.388       78.406       42.059     4954.496     6147.466     1768.967        1.279        0.644       72.915       37.857        0.270      347.236       26.059      863.531
09/10/2014  12:58:00       26.346      -17.346       10.355       62.761       74.285       36.851     3938.989     5518.236     1358.005        0.596        0.541       31.543       41.862        1.761      347.014       25.677      863.523
09/10/2014  12:59:00       52.641     -140.591      -14.551       53.824       53.349       28.824     2897.032     2846.072      830.804        1.466        0.329      150.123       19.858        0.017      346.691       25.119      863.510
09/10/2014  13:00:00        8.658      -84.157       11.171       64.349       66.650       46.709     4140.759     4442.250     2181.709        0.902        0.538       84.602       21.458        0.064      347.247       26.078      863.491
09/10/2014  13:01:00       25.052      -29.034       43.738       49.697       85.557       55.700     2469.825     7320.065     3102.437        0.814        0.645       38.349       50.505        1.734      347.354       26.263      863.484
09/10/2014  13:02:00       51.815      -58.798       20.863       72.141       77.442       41.431     5204.305     5997.333     1716.518        0.975        0.646       78.371       50.435        0.414      347.145       25.902      863.468
09/10/2014  13:03:00       21.652      -77.805        0.786       46.352       40.500       36.004     2148.535     1640.241     1296.264        0.580        0.254       80.762       18.178        0.051      346.996       25.646      863.478
09/10/2014  13:04:00       24.857      -12.024       28.120       32.052       23.563       25.900     1027.327      555.203      670.809        0.190        0.113       27.613       16.184        0.344      347.717       26.889      863.462
09/10/2014  13:05:00       79.240      -68.399       11.820       75.051      107.417       53.345     5632.625    11538.510     2845.700        1.555        1.001      104.677       59.713        0.325      347.443       26.416      863.439
09/10/2014  13:06:00       48.026      -68.133       16.369       44.908       65.644       48.959     2016.719     4309.075     2396.937        0.797        0.436       83.359       39.100        0.220      347.109       25.840      863.441
09/10/2014  13:07:00       61.733       62.147       65.745       72.253       92.051       48.994     5220.524     8473.366     2400.389        1.404        0.805       87.597       47.308        0.292      347.395       26.333      863.420
09/10/2014  13:08:00       73.975      119.267      106.003       70.396       55.649       48.726     4955.614     3096.847     2374.211        2.068        0.521      140.345       40.561        0.084      347.058       25.752      863.415
09/10/2014  13:09:00       65.626       82.003       47.954       52.854       40.227       43.566     2793.558     1618.180     1898.002        0.982        0.315      105.030       31.341        0.089      346.927       25.526      863.411
09/10/2014  13:10:00       88.517       96.461       77.658       64.705       43.185       44.036     4186.800     1864.923     1939.127        1.558        0.400      130.920       33.791        0.067      347.028       25.701      863.385
09/10/2014  13:11:00      141.783      108.099       71.042       87.670       82.499       79.489     7686.111     6806.007     6318.466        2.882        1.041      178.291       63.913        0.129      347.045       25.728      863.374
09/10/2014  13:12:00      170.320       72.352       24.508       89.542       68.081       51.950     8017.814     4635.061     2698.781        2.510        0.768      185.051       28.999        0.025      346.994       25.639      863.365
09/10/2014  13:13:00      127.087      111.717       70.411      101.966       77.100       62.003    10397.041     5944.342     3844.377        2.688        1.009      169.209       36.737        0.047      347.315       26.194      863.349
09/10/2014  13:14:00       79.920       77.592       24.065       76.013       49.595       49.410     5778.049     2459.686     2441.327        1.183        0.534      111.390       29.393        0.070      346.710       25.152      863.369
09/10/2014  13:15:00        8.975      -14.796       -1.240       13.176       29.575       22.436      173.601      874.669      503.379        0.093        0.078       17.305       12.199        0.497      346.823       25.349      863.351
09/10/2014  13:16:00      -45.008       73.043       -9.046       27.133       44.866       25.520      736.183     2012.963      651.282        0.542        0.170       85.796       23.331        0.074      347.038       25.718      863.326
09/10/2014  13:17:00      -26.110       59.753        6.632       31.244       51.898       32.054      976.185     2693.358     1027.485        0.450        0.235       65.208       28.111        0.186      347.448       26.425      863.308
09/10/2014  13:18:00        4.598       74.902        4.533       23.081       69.746       34.084      532.719     4864.540     1161.685        0.610        0.328       75.043       36.840        0.241      347.451       26.431      863.293
09/10/2014  13:19:00      -17.065       37.574       10.520       30.488       49.083       43.971      929.539     2409.102     1933.478        0.354        0.264       41.268       31.266        0.574      347.318       26.201      863.266
09/10/2014  13:20:00       61.608       53.014       -4.083       30.397       30.725       29.039      923.975      943.998      843.266        0.467        0.136       81.278       18.318        0.051      346.924       25.521      863.261
09/10/2014  13:21:00       34.830       -9.991       -6.037       40.455       51.690       25.790     1636.572     2671.812      665.113        0.316        0.249       36.235       22.892        0.399      346.863       25.418      863.250
09/10/2014  13:22:00       32.493     -134.068        5.805       46.244       54.370       35.201     2138.502     2956.111     1239.145        1.270        0.317      137.949       24.922        0.033      347.134       25.883      863.222
09/10/2014  13:23:00       57.856       49.988       55.150       67.089       68.603       34.819     4500.880     4706.431     1212.349        0.965        0.521       76.460       33.432        0.191      347.677       26.818      863.200
09/10/2014  13:24:00       31.728       42.434       51.213       42.631       43.143       26.209     1817.393     1861.296      686.894        0.490        0.218       52.984       22.639        0.183      348.060       27.480      863.193
09/10/2014  13:25:00       83.576      -28.576       40.097       62.637       67.522       50.074     3923.410     4559.205     2507.424        1.020        0.550       88.326       46.371        0.276      347.616       26.716      863.195
09/10/2014  13:26:00       27.608     -154.966       14.756       61.541       90.348       50.107     3787.292     8162.747     2510.752        1.973        0.723      157.406       46.047        0.086      347.489       26.492      863.183
09/10/2014  13:27:00       98.451     -159.483      -24.356       88.380       94.731       54.869     7810.986     8973.896     3010.590        2.775        0.990      187.423       62.350        0.111      347.262       26.102      863.166
09/10/2014  13:28:00       43.264       68.906      103.384       56.956      117.856       71.521     3244.034    13890.002     5115.246        1.977        1.112       81.362       83.603        1.056      347.393       26.329      863.159
09/10/2014  13:29:00       77.373      -32.433       36.946       78.167      133.881       89.121     6110.140    17924.024     7942.481        2.018        1.599       83.895       99.191        1.398      347.470       26.460      863.138
09/10/2014  13:30:00       67.854       95.936       96.288       63.433       56.197       49.107     4023.741     3158.122     2411.482        1.633        0.480      117.507       34.386        0.086      347.307       26.181      863.148
09/10/2014  13:31:00        0.644       28.313       42.496       31.644       38.091       36.861     1001.358     1450.912     1358.756        0.321        0.191       28.320       23.313        0.678      347.707       26.872      863.162
09/10/2014  13:32:00       67.906       69.365       50.528       53.552       44.551       33.511     2867.826     1984.790     1122.956        0.897        0.299       97.071       22.425        0.053      347.148       25.907      863.149
09/10/2014  13:33:00       65.661       80.246       20.366       39.551       30.727       37.568     1564.268      944.143     1411.382        0.754        0.196      103.686       21.037        0.041      346.963       25.591      863.149
09/10/2014  13:34:00       50.555       10.985        2.429       35.768       72.842       24.762     1279.343     5305.999      613.152        0.494        0.360       51.734       14.598        0.080      346.967       25.595      863.139
09/10/2014  13:35:00       32.735      -13.468       26.002       47.795       68.002       50.350     2284.374     4624.252     2535.154        0.568        0.472       35.397       52.553        2.204      347.443       26.415      863.130
09/10/2014  13:36:00       17.617       23.230       13.358       17.712       21.262       21.948      313.711      452.064      481.733        0.114        0.062       29.155       13.136        0.203      347.272       26.121      863.110
09/10/2014  13:37:00       36.760       19.395       35.536       31.270       15.464       17.990      977.835      239.127      323.625        0.227        0.077       41.562        6.281        0.023      347.500       26.515      863.096
09/10/2014  13:38:00       14.743       34.870        3.590       27.229       24.405       30.378      741.396      595.620      922.797        0.185        0.113       37.858       22.579        0.356      347.225       26.042      863.086
09/10/2014  13:39:00      -21.699       57.125       -3.590       16.585       24.421       20.791      275.059      596.374      432.262        0.253        0.065       61.107       14.286        0.055      347.352       26.259      863.062
09/10/2014  13:40:00      -30.880       19.392       -3.971       21.472       34.396       27.276      461.033     1183.117      743.975        0.187        0.119       36.463       22.427        0.378      347.377       26.301      863.047
09/10/2014  13:41:00      -10.352       66.994       10.370       24.725       45.469       22.843      611.336     2067.387      521.802        0.395        0.160       67.789       23.783        0.123      347.571       26.638      863.039
09/10/2014  13:42:00      -18.186       63.542        2.018       24.219       39.387       23.470      586.584     1551.353      550.822        0.353        0.134       66.093       11.963        0.033      347.250       26.083      863.028
09/10/2014  13:43:00      -68.582        5.029      -18.176       18.396       18.928       13.478      338.398      358.281      181.644        0.297        0.044       68.766        5.885        0.007      347.048       25.734      863.013
09/10/2014  13:44:00     -100.077       81.768      -22.119       33.778       37.073       21.785     1140.982     1374.372      474.603        1.009        0.149      129.233       14.848        0.013      347.364       26.280      863.010
09/10/2014  13:45:00      -55.422       -3.964       -7.490       37.207       36.053       28.308     1384.330     1299.784      801.339        0.331        0.174       55.563       28.396        0.261      347.238       26.064      863.005
09/10/2014  13:46:00      -31.208        6.241       -5.549       20.221       54.229       21.414      408.883     2940.778      458.547        0.243        0.190       31.826       13.171        0.171      347.343       26.244      862.974
09/10/2014  13:47:00        0.566       -4.651       25.011       19.520       22.733       21.323      381.026      516.804      454.661        0.100        0.068        4.686       14.923       10.143      348.164       27.661      862.957
09/10/2014  13:48:00      -15.622       -5.006        9.999       31.395       22.949       24.645      985.654      526.642      607.400        0.124        0.106       16.405       17.717        1.166      347.860       27.137      862.939
09/10/2014  13:49:00      -36.225       28.767        9.311       41.049       31.131       22.114     1685.029      969.108      489.041        0.268        0.157       46.257       16.820        0.132      347.870       27.154      862.923
09/10/2014  13:50:00      -85.848       50.057       -1.052       55.050       63.452       28.916     3030.526     4026.164      836.154        0.888        0.395       99.376       25.535        0.066      347.907       27.216      862.918
09/10/2014  13:51:00      -39.961      -10.552        9.311       45.104       43.010       26.660     2034.344     1849.834      710.769        0.319        0.230       41.331       22.636        0.300      347.994       27.366      862.906
09/10/2014  13:52:00      -23.009       -5.527       19.475       31.998       16.889       19.696     1023.888      285.237      387.950        0.132        0.085       23.664       16.082        0.462      348.051       27.466      862.897
09/10/2014  13:53:00       25.371        8.814       13.254       30.570       22.803       21.568      934.554      519.998      465.167        0.141        0.096       26.859        8.566        0.102      348.051       27.465      862.887
09/10/2014  13:54:00       25.421       29.329       26.236       47.209       27.833       20.861     2228.737      774.663      435.171        0.282        0.172       38.812       13.380        0.119      347.918       27.236      862.878
09/10/2014  13:55:00       34.896       31.650        0.379       18.820       19.860       18.442      354.200      394.402      340.098        0.165        0.054       47.112       10.959        0.054      347.559       26.615      862.871
09/10/2014  13:56:00      -22.755       37.148      -14.954       32.880       39.391       18.731     1081.115     1551.679      350.839        0.255        0.149       43.563       18.119        0.173      347.871       27.155      862.855
09/10/2014  13:57:00      -38.392       30.585      -11.372       62.265       71.175       34.883     3876.889     5065.820     1216.789        0.635        0.508       49.085       27.872        0.322      347.577       26.647      862.846
09/10/2014  13:58:00      -85.539      -11.792      -19.658       50.493       34.848       20.643     2549.581     1214.403      426.122        0.602        0.210       86.348       12.065        0.020      347.669       26.806      862.835
09/10/2014  13:59:00        6.253        3.701      -20.744       20.620       29.339       18.542      425.174      860.756      343.797        0.106        0.081        7.267       13.605        3.506      347.624       26.726      862.843
09/10/2014  14:00:00        9.364       36.773       -3.022       24.397       35.804       25.095      595.198     1281.918      629.740        0.198        0.125       37.947       13.821        0.133      347.730       26.911      862.826
09/10/2014  14:01:00      -35.248       86.593      -11.183       35.302       49.961       35.048     1246.254     2496.150     1228.356        0.692        0.249       93.492       18.645        0.040      347.771       26.982      862.823
09/10/2014  14:02:00      -13.736       65.966       -4.490       29.046       36.406       26.844      843.665     1325.411      720.624        0.372        0.144       67.381       18.527        0.076      347.812       27.053      862.808
09/10/2014  14:03:00     -183.673     -134.901       -9.241      117.641       84.555       42.686    13839.299     7149.564     1822.082        3.741        1.141      227.891       50.614        0.049      347.753       26.948      862.793
09/10/2014  14:04:00      -23.479      -57.293       31.657       73.170       67.066       40.638     5353.820     4497.863     1651.473        0.817        0.575       61.917       42.843        0.479      348.137       27.613      862.779
09/10/2014  14:05:00      -67.354       37.476        4.405       46.819       36.696       34.795     2192.063     1346.568     1210.682        0.535        0.237       77.078       30.237        0.154      348.138       27.617      862.784
09/10/2014  14:06:00       55.084       71.712        4.835       66.692       53.033       33.872     4447.812     2812.510     1147.287        0.830        0.420       90.427       24.480        0.073      347.941       27.276      862.790
09/10/2014  14:07:00       73.689      106.972       -5.387       43.784       50.264       42.441     1917.072     2526.492     1801.228        1.157        0.312      129.897       34.769        0.072      347.381       26.309      862.781
09/10/2014  14:08:00       87.040       75.742       20.093       63.385       60.964       46.281     4017.675     3716.668     2141.916        1.179        0.494      115.381       39.836        0.119      347.623       26.726      862.762
09/10/2014  14:09:00      -47.030      108.698      -11.255       38.205       61.196       28.223     1459.620     3744.978      796.512        1.008        0.300      118.437       24.608        0.043      347.701       26.861      862.754
09/10/2014  14:10:00       80.134       76.282       22.381       90.615       60.430       40.641     8211.086     3651.808     1651.669        1.313        0.676      110.637       28.854        0.068      347.790       27.015      862.744
09/10/2014  14:11:00      113.508       87.632       21.806       88.794       65.762       38.163     7884.378     4324.592     1456.446        1.735        0.683      143.400       25.183        0.031      347.912       27.224      862.738
09/10/2014  14:12:00       25.198       45.670       16.516       75.650       46.633       40.147     5722.980     2174.662     1611.760        0.625        0.475       52.160       36.076        0.478      347.823       27.072      862.725
09/10/2014  14:13:00      160.249      107.864       36.549       77.257       69.617       63.191     5968.597     4846.492     3993.066        2.673        0.740      193.170       48.152        0.062      347.636       26.746      862.718
09/10/2014  14:14:00      183.636       82.106       11.956       58.819       59.423       44.898     3459.633     3531.110     2015.875        2.481        0.450      201.156       27.903        0.019      347.310       26.185      862.701
09/10/2014  14:15:00      147.026       82.351       31.880       69.743       66.442       57.529     4864.053     4414.568     3309.537        2.100        0.629      168.518       38.284        0.052      347.617       26.715      862.682
09/10/2014  14:16:00      126.654      139.162        8.848       73.267       67.536       63.349     5367.980     4561.145     4013.048        2.471        0.697      188.168       48.891        0.068      347.410       26.356      862.684
09/10/2014  14:17:00       28.486       81.233      -14.386       30.677       46.253       25.436      941.078     2139.327      646.968        0.567        0.186       86.082       16.726        0.038      347.490       26.497      862.669
09/10/2014  14:18:00      129.505       83.086       54.666       75.963       77.636       55.783     5770.424     6027.301     3111.729        2.078        0.745      153.866       48.212        0.098      347.535       26.573      862.657
09/10/2014  14:19:00       60.580       28.815       -4.423       80.905      105.498       33.918     6545.576    11129.749     1150.421        1.167        0.941       67.084       23.146        0.119      347.357       26.266      862.638
09/10/2014  14:20:00       53.685       82.663       13.592       64.388      137.393       60.606     4145.810    18876.950     3673.134        1.829        1.335       98.566       64.147        0.424      347.694       26.847      862.614
09/10/2014  14:21:00       61.204      135.196       -0.517       71.215       85.275       45.613     5071.580     7271.911     2080.576        1.822        0.721      148.404       42.565        0.082      347.734       26.915      862.622
09/10/2014  14:22:00      106.108      126.596       11.793       81.924       67.338       37.443     6711.522     4534.380     1402.009        2.003        0.632      165.183       31.200        0.036      347.671       26.810      862.607
09/10/2014  14:23:00      118.725       74.872        1.210       93.302       57.969       43.025     8705.221     3360.394     1851.183        1.681        0.696      140.362       26.293        0.035      347.974       27.331      862.594
09/10/2014  14:24:00      133.872       71.609        9.749       52.150       44.358       39.033     2719.652     1967.623     1523.561        1.468        0.311      151.821       23.965        0.025      347.487       26.491      862.598
09/10/2014  14:25:00       76.528       62.194       35.066       46.206       43.966       45.568     2134.960     1932.991     2076.474        0.855        0.307       98.614       36.814        0.139      347.534       26.572      862.570
09/10/2014  14:26:00      131.474       76.602       40.820       46.437       40.361       49.753     2156.375     1629.038     2475.339        1.554        0.313      152.162       27.035        0.032      347.733       26.915      862.542
09/10/2014  14:27:00       78.902       48.365       57.255       78.185       51.891       32.869     6112.922     2692.657     1080.398        1.086        0.494       92.546       32.614        0.124      347.755       26.955      862.535
09/10/2014  14:28:00       -2.697       71.630       88.673       23.887       39.345       20.604      570.600     1547.998      424.543        0.777        0.127       71.681       22.208        0.096      347.883       27.174      862.523
09/10/2014  14:29:00       97.149       68.825       33.085       39.989       22.902       32.692     1599.159      524.504     1068.787        0.923        0.160      119.058       17.654        0.022      347.426       26.387      862.502
09/10/2014  14:30:00       13.700       -0.599       12.187       38.995       37.132       30.032     1520.588     1378.782      901.918        0.207        0.190       13.713       15.334        1.250      347.739       26.926      862.499
09/10/2014  14:31:00       68.223       38.954       36.017       65.584       47.831       41.531     4301.235     2287.802     1724.795        0.789        0.416       78.560       30.664        0.152      348.071       27.500      862.491
09/10/2014  14:32:00       -6.556       23.851       27.594       55.498       54.573       45.391     3080.056     2978.208     2060.351        0.474        0.406       24.736       43.358        3.073      347.939       27.272      862.499
09/10/2014  14:33:00       34.027       18.472       21.642       34.679       20.399       30.323     1202.636      416.099      919.476        0.225        0.127       38.718       13.488        0.121      347.956       27.301      862.478
09/10/2014  14:34:00       25.914       38.650       26.419       33.715       31.743       27.923     1136.673     1007.649      779.679        0.289        0.146       46.533       14.001        0.091      348.279       27.858      862.462
09/10/2014  14:35:00      148.127      106.286       26.692      103.192       58.447       55.051    10648.637     3416.028     3030.601        2.552        0.855      182.313       48.342        0.070      347.976       27.333      862.457
09/10/2014  14:36:00       75.068       83.120       13.426       57.395       51.638       41.443     3294.232     2666.508     1717.484        1.020        0.384      112.001       25.492        0.052      347.891       27.188      862.445
09/10/2014  14:37:00       54.139      123.399       -5.513       53.673       65.892       38.417     2880.765     4341.761     1475.834        1.344        0.435      134.753       31.751        0.056      347.880       27.170      862.432
09/10/2014  14:38:00      -34.259      155.591      -21.174       42.868       55.706       30.936     1837.680     3103.108      957.009        1.586        0.295      159.318       30.568        0.037      347.663       26.793      862.404
09/10/2014  14:39:00      -42.834      135.755      -23.587       68.463       67.283       36.954     4687.116     4527.043     1365.603        1.570        0.529      142.352       35.080        0.061      347.783       27.002      862.377
09/10/2014  14:40:00       47.735       58.392       11.466       56.685       73.696       47.137     3213.153     5431.074     2221.874        0.834        0.543       75.420       44.792        0.353      348.058       27.479      862.370
09/10/2014  14:41:00       51.030      152.735      -15.939       57.107       65.026       39.143     3261.240     4228.340     1532.206        1.760        0.451      161.035       39.819        0.061      347.683       26.829      862.355
09/10/2014  14:42:00      -26.753      129.123      -19.893       42.023       34.607       23.113     1765.947     1197.647      534.190        1.064        0.175      131.866       16.989        0.017      347.752       26.948      862.333
09/10/2014  14:43:00       11.970       48.199       16.523       55.270       48.445       39.269     3054.725     2346.870     1542.053        0.484        0.347       49.663       29.573        0.355      348.041       27.448      862.316
09/10/2014  14:44:00      100.908       64.794       19.387       33.883       25.974       24.941     1148.079      674.630      622.058        0.860        0.122      119.919       15.805        0.017      347.807       27.043      862.302
09/10/2014  14:45:00      102.659       77.037        1.662       49.292       43.072       32.426     2429.747     1855.220     1051.473        1.091        0.267      128.350       21.653        0.028      347.747       26.941      862.288
09/10/2014  14:46:00       19.733       33.472        9.368       31.567       32.902       25.584      996.484     1082.573      654.539        0.217        0.137       38.856       21.756        0.313      347.903       27.210      862.269
09/10/2014  14:47:00        9.570       27.615       12.127       24.050       30.976       25.377      578.426      959.484      643.999        0.159        0.109       29.226       21.090        0.521      348.104       27.557      862.239
09/10/2014  14:48:00       -1.454       15.013       10.833       11.862       20.753       17.747      140.702      430.671      314.966        0.062        0.044       15.083       14.115        0.876      348.699       28.586      862.220
09/10/2014  14:49:00       -5.384       50.823       28.136       56.032       48.481       30.719     3139.566     2350.367      943.684        0.492        0.322       51.108       30.853        0.364      348.348       27.977      862.222
09/10/2014  14:50:00      -31.690      133.597      -17.968       54.810       84.291       28.693     3004.106     7105.049      823.268        1.505        0.547      137.304       32.432        0.056      347.826       27.074      862.225
09/10/2014  14:51:00      -66.484      131.371      -15.518       41.942       78.598       32.441     1759.168     6177.593     1052.396        1.545        0.449      147.236       31.127        0.045      348.009       27.392      862.203
09/10/2014  14:52:00      -84.629      110.011      -31.321       39.968       51.658       26.604     1597.447     2668.600      707.755        1.261        0.249      138.796       16.682        0.014      347.919       27.237      862.198
09/10/2014  14:53:00      -14.159       -5.033       -5.305       40.762       37.780       23.551     1661.542     1427.300      554.643        0.195        0.182       15.027       24.357        2.627      347.860       27.136      862.196
09/10/2014  14:54:00       11.458      -25.752       17.708       24.794       38.055       29.488      614.747     1448.205      869.568        0.202        0.147       28.186       29.189        1.072      348.283       27.866      862.172
09/10/2014  14:55:00        5.602      -26.187       11.444       27.437       21.058       24.368      752.775      443.444      593.780        0.132        0.089       26.779       14.719        0.302      348.191       27.708      862.149
09/10/2014  14:56:00      -67.056       79.869       -7.226       53.578       70.210       37.623     2870.577     4929.386     1415.456        1.007        0.461      104.286       37.863        0.132      348.098       27.546      862.127
09/10/2014  14:57:00      -40.421      128.590       -8.319       37.580       62.513       29.534     1412.260     3907.860      872.233        1.221        0.310      134.793       32.126        0.057      347.952       27.294      862.125
09/10/2014  14:58:00        1.794        1.187       19.501       17.219       17.154       16.031      296.495      294.272      256.994        0.062        0.042        2.151        9.426       19.205      348.513       28.263      862.115
09/10/2014  14:59:00      -41.283       65.858       -4.846       45.950       42.113       28.834     2111.362     1773.474      831.386        0.539        0.236       77.728       21.379        0.076      348.105       27.559      862.089
09/10/2014  15:00:00      -41.288       37.340      -19.483       34.067       46.539       18.315     1160.577     2165.880      335.457        0.357        0.183       55.668       15.252        0.075      347.929       27.253      862.079
09/10/2014  15:01:00       -5.498       54.112      -14.601       21.802       29.872       17.606      475.319      892.320      309.987        0.242        0.084       54.390        7.232        0.018      347.873       27.158      862.074
09/10/2014  15:02:00        3.425      -30.229        2.443       34.571       27.153       21.966     1195.161      737.289      482.519        0.167        0.121       30.423       15.840        0.271      347.958       27.304      862.062
09/10/2014  15:03:00        8.908      -76.142        0.073       53.734       35.503       33.206     2887.292     1260.460     1102.607        0.556        0.263       76.661       24.282        0.100      348.045       27.455      862.027
09/10/2014  15:04:00      -24.926      -37.523       18.821       64.532       45.239       34.620     4164.353     2046.530     1198.533        0.490        0.370       45.047       43.095        0.915      348.479       28.205      862.015
09/10/2014  15:05:00       20.081        4.935       22.370       35.531       31.745       26.017     1262.421     1007.728      676.870        0.194        0.147       20.678        9.812        0.225      348.682       28.557      862.009
09/10/2014  15:06:00       41.420      100.519      -14.029       42.655       47.935       34.389     1819.482     2297.731     1182.605        0.866        0.265      108.718       31.695        0.085      347.964       27.314      862.006
09/10/2014  15:07:00        5.012      -38.588        4.939       39.381       42.119       23.246     1550.876     1774.049      540.363        0.270        0.193       38.912       15.152        0.152      348.428       28.117      861.973
09/10/2014  15:08:00      -26.925     -131.568       -4.754      100.290       70.731       39.790    10058.139     5002.891     1583.211        1.735        0.832      134.295       36.905        0.076      348.311       27.913      861.953
09/10/2014  15:09:00       67.484      -76.535       10.823       43.409       56.348       39.724     1884.330     3175.046     1578.022        0.858        0.332      102.038       35.649        0.122      348.454       28.161      861.947
09/10/2014  15:10:00       51.867       26.261       87.708       66.701      111.176       69.667     4448.986    12359.995     4853.517        1.636        1.083       58.136       70.616        1.475      348.621       28.450      861.916
09/10/2014  15:11:00      125.634      175.200      148.681      102.900       80.205       80.388    10588.342     6432.852     6462.215        4.603        1.174      215.590       72.843        0.114      348.108       27.559      861.907
09/10/2014  15:12:00       80.366      102.189       94.399       86.451       90.558       68.093     7473.789     8200.770     4636.655        2.306        1.016      130.004       54.348        0.175      348.095       27.540      861.923
09/10/2014  15:13:00      131.794      131.274      103.178       88.882       81.758       66.880     7900.027     6684.439     4472.952        3.215        0.953      186.017       56.693        0.093      347.963       27.309      861.929
09/10/2014  15:14:00      100.865      100.250       89.110       91.464       70.819       65.036     8365.635     5015.367     4229.737        2.288        0.881      142.211       53.005        0.139      348.282       27.863      861.913
09/10/2014  15:15:00      217.886      183.660      109.037       82.514       64.485       77.505     6808.584     4158.377     6006.984        5.503        0.849      284.965       58.921        0.043      347.970       27.322      861.901
09/10/2014  15:16:00       49.061       88.563       99.530       50.794       62.016       48.218     2580.005     3846.007     2324.967        1.445        0.438      101.244       44.820        0.196      348.289       27.875      861.925
09/10/2014  15:17:00      153.252       54.576        4.671       63.911       56.439       61.207     4084.661     3185.351     3746.252        1.875        0.551      162.680       28.836        0.031      347.959       27.304      861.935
09/10/2014  15:18:00       56.229       31.232       21.282       39.023       47.368       41.958     1522.787     2243.686     1760.448        0.506        0.276       64.320       24.134        0.141      348.101       27.550      861.909
09/10/2014  15:19:00       47.470       26.657       -2.605       37.106       46.947       18.213     1376.827     2204.049      331.698        0.344        0.196       54.443       19.134        0.124      348.089       27.531      861.885
09/10/2014  15:20:00      144.245       54.726       32.818       64.173       75.750       45.561     4118.113     5738.028     2075.831        1.840        0.597      154.278       45.058        0.085      348.122       27.587      861.875
09/10/2014  15:21:00       76.551       54.122       41.139       79.697       76.977       82.870     6351.662     5925.533     6867.474        1.481        0.957       93.750       58.728        0.392      348.340       27.963      861.839
09/10/2014  15:22:00       88.432       95.230       84.873      117.599       91.289       84.534    13829.624     8333.711     7146.032        2.670        1.465      129.957       66.797        0.264      348.464       28.178      861.806
09/10/2014  15:23:00      201.772      126.888       36.829      133.755       99.293       86.362    17890.404     9859.120     7458.343        4.668        1.760      238.353       47.532        0.040      348.532       28.295      861.817
09/10/2014  15:24:00      303.492      212.393       18.598      149.847      100.846       81.368    22454.251    10169.876     6620.826        8.840        1.962      370.430       56.842        0.024      348.178       27.681      861.814
09/10/2014  15:25:00      286.061      221.914       19.263      139.045       92.812       87.071    19333.543     8614.034     7581.354        8.348        1.776      362.045       55.888        0.024      348.249       27.803      861.826
09/10/2014  15:26:00      170.118      114.508        4.134      127.403       88.528       59.964    16231.476     7837.205     3595.672        3.486        1.383      205.066       43.460        0.045      348.264       27.830      861.811
09/10/2014  15:27:00      197.722      139.443       33.668      107.016       64.090       60.338    11452.482     4107.553     3640.652        3.943        0.960      241.947       26.847        0.012      348.319       27.925      861.803
09/10/2014  15:28:00       66.604       73.377        3.713       52.435       59.474       44.544     2749.426     3537.124     1984.205        0.905        0.414       99.098       40.500        0.167      348.317       27.924      861.792
09/10/2014  15:29:00      158.428       81.099       27.099       47.756       49.333       42.890     2280.596     2433.743     1839.585        1.948        0.328      177.979       16.747        0.009      348.225       27.765      861.778
09/10/2014  15:30:00      177.462      149.690       15.149      109.872       80.676       60.932    12071.896     6508.614     3712.751        3.821        1.115      232.163       29.036        0.016      348.286       27.868      861.766
09/10/2014  15:31:00      181.803      120.874        6.903      110.030       75.282       54.859    12106.654     5667.353     3009.510        3.424        1.039      218.318       38.177        0.031      348.163       27.655      861.763
09/10/2014  15:32:00      168.179      109.871       37.829      101.119       77.927       42.072    10225.133     6072.553     1770.053        2.992        0.903      200.887       21.398        0.011      348.295       27.885      861.763
09/10/2014  15:33:00      191.858      101.455       29.655       63.968       58.689       54.444     4091.935     3444.348     2964.200        2.924        0.525      217.031       24.172        0.012      348.235       27.779      861.773
09/10/2014  15:34:00      145.643       58.021       16.207      130.796       92.671       60.909    17107.474     8587.947     3709.903        2.712        1.470      156.775       40.643        0.067      348.517       28.270      861.762
09/10/2014  15:35:00      267.334      154.477       37.493      106.259       69.635       64.393    11290.914     4849.000     4146.405        5.851        1.014      308.756       42.071        0.019      348.305       27.900      861.756
09/10/2014  15:36:00      144.149       92.910       26.172       85.781       64.004       59.495     7358.352     4096.523     3539.603        2.254        0.750      171.497       47.760        0.078      348.500       28.240      861.754
09/10/2014  15:37:00      112.159       47.729       25.896      113.885       71.461       49.151    12969.758     5106.613     2415.777        1.801        1.025      121.893       38.301        0.099      348.453       28.157      861.743
09/10/2014  15:38:00      107.788       99.755       22.606       80.861       77.344       49.528     6538.468     5982.158     2452.991        1.852        0.749      146.865       44.024        0.090      348.301       27.897      861.731
09/10/2014  15:39:00       92.081       89.471        1.692       89.819       81.875       66.645     8067.381     6703.532     4441.515        1.785        0.961      128.391       55.944        0.190      348.272       27.845      861.714
09/10/2014  15:40:00      157.628       83.317       18.249       87.151       69.118       47.555     7595.291     4777.341     2261.445        2.338        0.732      178.293       37.894        0.045      348.279       27.857      861.699
09/10/2014  15:41:00       97.270       44.663       52.608       84.153       67.060       64.819     7081.745     4496.981     4201.451        1.500        0.789      107.033       58.556        0.299      348.375       28.024      861.696
09/10/2014  15:42:00       79.382       56.787       47.326       86.735       52.536       53.176     7522.920     2760.082     2827.643        1.244        0.656       97.602       47.043        0.232      348.416       28.096      861.683
09/10/2014  15:43:00       78.643       65.659       58.478       66.478       52.814       45.836     4419.320     2789.343     2100.958        1.161        0.465      102.449       31.525        0.095      348.275       27.851      861.683
09/10/2014  15:44:00       94.766       44.358        6.421       43.312       45.939       35.996     1875.917     2110.429     1295.679        0.813        0.264      104.634       16.407        0.025      348.275       27.853      861.678
09/10/2014  15:45:00       83.247       22.462       16.949       67.917       47.234       32.798     4612.726     2231.072     1075.710        0.782        0.396       86.225       24.429        0.080      348.269       27.843      861.672
09/10/2014  15:46:00      112.340       60.742        2.211       40.193       34.789       37.144     1615.499     1210.247     1379.654        1.026        0.210      127.710       22.583        0.031      348.216       27.751      861.663
09/10/2014  15:47:00       89.607       65.516        0.609       48.258       35.570       28.681     2328.804     1265.206      822.624        0.837        0.221      111.004       18.773        0.029      348.400       28.069      861.654
09/10/2014  15:48:00       72.800       78.392        2.133       55.088       46.950       34.234     3034.740     2204.309     1171.964        0.893        0.321      106.982       28.904        0.073      348.513       28.265      861.654
09/10/2014  15:49:00       29.623       22.437       18.433       67.429       55.265       32.076     4546.668     3054.254     1028.875        0.517        0.431       37.161       33.982        0.836      348.773       28.712      861.642
09/10/2014  15:50:00      303.552      180.035       45.014      119.740       80.796       85.332    14337.678     6528.034     7281.498        7.736        1.407      352.925       60.523        0.029      348.274       27.847      861.638
09/10/2014  15:51:00       88.796      107.472       71.205       87.588       65.205       76.181     7671.603     4251.727     5803.473        2.111        0.886      139.410       50.680        0.132      348.358       27.993      861.637
09/10/2014  15:52:00       96.439     -141.299       -4.770       83.130      124.025       67.463     6910.550    15382.095     4551.235        2.806        1.342      171.073       85.424        0.249      348.279       27.856      861.629
09/10/2014  15:53:00       88.732     -164.966      -12.537       60.636       99.923       50.334     3676.725     9984.556     2533.560        2.572        0.810      187.315       59.879        0.102      348.559       28.342      861.609
09/10/2014  15:54:00       61.451       28.217       57.525       74.920       67.413       51.978     5613.080     4544.451     2701.755        1.037        0.643       67.620       50.445        0.557      348.531       28.294      861.624
09/10/2014  15:55:00       55.235       20.166       42.253       50.163       55.034       41.851     2516.317     3028.710     1751.502        0.627        0.365       58.801       34.699        0.348      348.672       28.539      861.618
09/10/2014  15:56:00       67.738       73.414       59.867       66.410       46.314       33.912     4410.306     2144.947     1150.047        1.063        0.385       99.890       35.567        0.127      348.765       28.699      861.622
09/10/2014  15:57:00       39.736      -10.891       18.672       60.343       65.639       34.886     3641.309     4308.464     1217.064        0.560        0.458       41.202       29.885        0.526      348.730       28.639      861.618
09/10/2014  15:58:00        0.871      -94.557      -10.510       66.135       36.166       27.329     4373.826     1307.976      746.884        0.774        0.321       94.561       24.025        0.065      348.599       28.414      861.611
09/10/2014  15:59:00        6.375       20.623       18.792       44.769       39.744       30.083     2004.288     1579.575      904.987        0.265        0.224       21.586       15.942        0.545      348.868       28.878      861.610
09/10/2014  16:00:00       61.875       30.168       -1.998       53.445       34.967       21.727     2856.396     1222.691      472.081        0.465        0.228       68.838        9.449        0.019      348.586       28.392      861.610
09/10/2014  16:01:00       40.149       44.289      -16.259       51.157       56.509       26.253     2617.075     3193.246      689.230        0.517        0.325       59.779       23.097        0.149      348.694       28.578      861.605
09/10/2014  16:02:00       51.647      145.461      -17.831       46.497       61.354       36.255     2161.967     3764.342     1314.450        1.569        0.362      154.357       32.439        0.044      348.424       28.110      861.606
09/10/2014  16:03:00       40.407       46.633      -15.375       40.018       33.109       23.906     1601.475     1096.192      571.478        0.366        0.163       61.704       21.149        0.117      348.535       28.301      861.601
09/10/2014  16:04:00       97.731       37.623        3.740       36.922       32.279       29.258     1363.257     1041.947      856.042        0.712        0.163      104.722       16.454        0.025      348.614       28.438      861.597
09/10/2014  16:05:00       52.425       38.975       28.834       68.389       57.009       37.734     4677.090     3250.056     1423.860        0.722        0.468       65.325       36.753        0.317      348.777       28.721      861.583
09/10/2014  16:06:00       94.818       33.458       47.671       94.270       61.806       45.583     8886.926     3819.983     2077.827        1.358        0.739      100.548       48.691        0.235      348.735       28.647      861.570
09/10/2014  16:07:00      187.131       94.397       49.300      123.279       56.537       57.886    15197.815     3196.400     3350.753        3.405        1.087      209.591       24.907        0.014      348.844       28.834      861.563
09/10/2014  16:08:00      178.390       86.420       76.144      164.050      125.932      106.190    26912.449    15858.769    11276.286        4.956        2.702      198.221      101.146        0.260      348.507       28.249      861.552
09/10/2014  16:09:00       56.373       46.981       88.687      120.855       88.551       80.258    14606.049     7841.330     6441.402        2.106        1.444       73.384       74.482        1.030      348.529       28.289      861.562
09/10/2014  16:10:00       76.947      109.379      101.853       85.293       62.460       51.795     7274.905     3901.190     2682.695        2.106        0.693      133.733       40.862        0.093      348.470       28.188      861.559
09/10/2014  16:11:00      152.620      126.247       -2.842       88.625       73.135       48.676     7854.460     5348.703     2369.371        2.740        0.779      198.068       35.860        0.033      348.481       28.206      861.560
09/10/2014  16:12:00       41.745       22.257       32.331       67.896       53.370       46.112     4609.868     2848.377     2126.308        0.643        0.479       47.308       35.427        0.561      348.731       28.641      861.547
09/10/2014  16:13:00      -15.727      168.986      -24.495       56.301       48.912       22.691     3169.818     2392.339      514.872        1.774        0.304      169.716       24.600        0.021      348.394       28.057      861.535
09/10/2014  16:14:00      -31.858       94.020      -11.836       33.345       31.439       23.043     1111.886      988.416      530.988        0.631        0.132       99.271       20.919        0.044      348.368       28.012      861.515
09/10/2014  16:15:00      -12.455      -18.228       -8.053       60.918       35.751       34.056     3711.036     1278.119     1159.797        0.335        0.307       22.077       17.276        0.612      348.554       28.336      861.507
09/10/2014  16:16:00       13.010      -83.592       -6.567       24.384       47.617       31.608      594.568     2267.357      999.087        0.553        0.193       84.598       19.690        0.054      348.543       28.316      861.489
09/10/2014  16:17:00       27.190       56.496       -1.349       37.888       54.596       29.918     1435.494     2980.721      895.072        0.462        0.266       62.699       26.872        0.184      348.559       28.343      861.494
09/10/2014  16:18:00       72.056       67.799        7.384       83.733       65.362       41.051     7011.138     4272.208     1685.202        1.140        0.648       98.938       28.818        0.085      348.644       28.489      861.486
09/10/2014  16:19:00      113.484       87.527        3.778       47.207       40.495       35.855     2228.529     1639.851     1285.547        1.285        0.258      143.316       27.460        0.037      348.596       28.406      861.480
09/10/2014  16:20:00       45.715       74.137       -4.775       39.177       38.832       31.449     1534.804     1507.905      989.030        0.582        0.202       87.098       26.706        0.094      348.621       28.452      861.473
09/10/2014  16:21:00       90.613       58.737        9.121       37.046       35.119       20.795     1372.369     1233.353      432.422        0.739        0.152      107.985       18.826        0.030      348.497       28.234      861.466
09/10/2014  16:22:00       23.911       52.495       -5.104       34.808       38.949       20.685     1211.599     1517.036      427.882        0.325        0.158       57.685       21.894        0.144      348.545       28.318      861.452
09/10/2014  16:23:00      145.116       77.224       22.320       40.475       32.556       36.177     1638.209     1059.917     1308.772        1.576        0.200      164.384        9.943        0.004      348.718       28.619      861.445
09/10/2014  16:24:00       86.942       88.735       84.015       91.210       81.723       85.450     8319.306     6678.695     7301.775        2.239        1.115      124.228       70.838        0.325      348.644       28.489      861.428
09/10/2014  16:25:00      155.590      127.974      130.095       87.426       96.324       67.597     7643.329     9278.269     4569.382        3.950        1.075      201.459       55.831        0.077      348.361       27.998      861.414
09/10/2014  16:26:00       45.911      134.369      145.070       65.465       88.173       68.587     4285.660     7774.456     4704.190        2.898        0.838      141.996       63.307        0.199      348.479       28.204      861.399
09/10/2014  16:27:00       97.887       85.369       94.239      109.940       71.637       65.984    12086.702     5131.913     4353.870        2.366        1.079      129.884       70.100        0.291      348.586       28.388      861.401
09/10/2014  16:28:00      156.630      100.295       16.786       72.571       39.344       49.320     5266.618     1547.988     2432.420        2.206        0.462      185.989       20.536        0.012      348.407       28.080      861.404
09/10/2014  16:29:00       48.856       33.173       17.084       61.196       39.768       28.620     3744.999     1581.507      819.101        0.496        0.307       59.054       22.636        0.147      348.679       28.550      861.397
09/10/2014  16:30:00       37.146       40.462        6.170       66.904       48.870       45.038     4476.107     2388.233     2028.428        0.597        0.445       54.927       25.548        0.216      348.711       28.606      861.397
09/10/2014  16:31:00      135.727      129.109        0.606      111.828       68.489       58.056    12505.506     4690.757     3370.537        2.783        1.028      187.326       40.977        0.048      348.552       28.329      861.388
09/10/2014  16:32:00      186.000      116.088       39.809       84.801       57.718       54.349     7191.153     3331.335     2953.854        3.156        0.674      219.254       31.057        0.020      348.575       28.367      861.387
09/10/2014  16:33:00      200.898      132.081       27.287       76.779       49.990       42.712     5894.952     2499.018     1824.296        3.438        0.511      240.427       25.387        0.011      348.367       28.008      861.380
09/10/2014  16:34:00      150.943       81.705       26.916       66.669       50.571       35.967     4444.741     2557.463     1293.626        1.924        0.415      171.637       12.850        0.006      348.351       27.982      861.367
09/10/2014  16:35:00       78.010      152.578        6.913       89.171      106.109       65.880     7951.491    11259.112     4340.203        2.648        1.178      171.364       57.999        0.115      348.545       28.319      861.363
09/10/2014  16:36:00      213.858      147.758       18.879      127.365       70.810       51.997    16221.898     5014.060     2703.712        4.593        1.197      259.937       43.260        0.028      348.443       28.140      861.343
09/10/2014  16:37:00       98.968      207.312       -5.399      105.837      129.599       74.409    11201.399    16795.796     5536.702        4.316        1.677      229.723       73.517        0.102      348.567       28.354      861.329
09/10/2014  16:38:00      152.849      164.421       22.476      127.038       95.565       91.540    16138.617     9132.722     8379.634        4.227        1.683      224.493       61.987        0.076      348.575       28.369      861.317
09/10/2014  16:39:00      227.931      186.475       14.307      129.250       87.881       67.506    16705.606     7723.100     4557.092        5.795        1.449      294.492       42.547        0.021      348.521       28.274      861.320
09/10/2014  16:40:00      101.288      165.266      -15.788       79.535       99.114       70.443     6325.827     9823.549     4962.186        2.946        1.056      193.836       65.988        0.116      348.459       28.168      861.340
09/10/2014  16:41:00       22.096      182.191      -27.959       51.265       54.569       30.177     2628.064     2977.785      910.651        2.049        0.326      183.526       19.711        0.012      348.567       28.355      861.334
09/10/2014  16:42:00       10.751      216.596      -24.551       67.060       77.358       44.221     4497.038     5984.199     1955.482        3.003        0.622      216.863       49.016        0.051      348.558       28.338      861.331
09/10/2014  16:43:00       -8.982      250.717      -36.491       66.979      103.932       38.136     4486.140    10801.790     1454.356        4.050        0.837      250.878       50.189        0.040      348.439       28.130      861.327
09/10/2014  16:44:00      128.818      155.121        8.698      104.098       92.366       63.216    10836.308     8531.517     3996.217        3.204        1.168      201.635       56.787        0.079      348.506       28.248      861.332
09/10/2014  16:45:00      140.181       79.108       12.233       58.510       40.259       36.933     3423.394     1620.809     1364.081        1.623        0.320      160.962       16.974        0.011      348.441       28.138      861.332
09/10/2014  16:46:00       82.616       71.244       13.009       36.090       35.609       37.006     1302.460     1268.008     1369.417        0.800        0.197      109.093       15.557        0.020      348.492       28.226      861.325
09/10/2014  16:47:00      106.276      127.011       13.788       93.340       52.598       48.899     8712.278     2766.584     2391.098        2.074        0.693      165.609       47.289        0.082      348.576       28.369      861.309
09/10/2014  16:48:00       37.945       10.314       32.818       47.813       30.201       36.994     2286.127      912.097     1368.539        0.359        0.228       39.321       13.999        0.127      348.590       28.397      861.299
09/10/2014  16:49:00       47.010        9.165        6.992       56.514       48.751       26.423     3193.880     2376.705      698.197        0.430        0.313       47.895       13.620        0.081      348.730       28.639      861.304
09/10/2014  16:50:00       88.274       74.421       14.711       83.463       67.788       30.676     6966.006     4595.266      941.008        1.302        0.625      115.459       14.135        0.015      348.764       28.697      861.309
09/10/2014  16:51:00      140.111       87.906       38.979      101.028       74.199       39.287    10206.573     5505.554     1543.460        2.306        0.863      165.404       30.487        0.034      348.758       28.686      861.290
09/10/2014  16:52:00      103.322       81.571       33.111       87.238       67.122       52.914     7610.396     4505.364     2799.904        1.667        0.746      131.640       31.106        0.056      348.722       28.625      861.272
09/10/2014  16:53:00       24.689      208.224      -23.283       64.585       94.721       50.103     4171.185     8972.049     2510.267        3.008        0.783      209.682       51.942        0.061      348.740       28.653      861.282
09/10/2014  16:54:00      169.153      190.312        4.679      119.908      102.016       77.550    14378.030    10407.207     6013.991        4.782        1.540      254.620       64.992        0.065      348.608       28.424      861.273
09/10/2014  16:55:00       71.878      116.103        4.938       80.764      105.696       62.531     6522.772    11171.544     3910.127        2.013        1.080      136.551       59.919        0.193      348.649       28.498      861.267
09/10/2014  16:56:00       41.753      166.095       -8.978       71.397       93.946       54.089     5097.547     8825.884     2925.579        2.313        0.842      171.263       52.236        0.093      348.581       28.380      861.260
09/10/2014  16:57:00       71.748       65.796        7.212       78.285       68.010       47.476     6128.560     4625.423     2254.018        1.127        0.650       97.349       32.040        0.108      348.658       28.513      861.258
09/10/2014  16:58:00      135.574       85.528       19.336       74.526       63.777       39.238     5554.128     4067.565     1539.645        1.861        0.558      160.298       28.971        0.033      348.619       28.446      861.251
09/10/2014  16:59:00      135.791      101.230       12.334       83.818       46.198       51.828     7025.491     2134.214     2686.126        2.034        0.592      169.371       35.118        0.043      348.579       28.377      861.253
09/10/2014  17:00:00      111.560       85.548       12.426       66.334       60.109       36.768     4400.239     3613.059     1351.871        1.464        0.468      140.585       32.675        0.054      348.503       28.245      861.253
09/10/2014  17:01:00      114.336       75.681       12.832       43.194       35.248       32.247     1865.759     1242.431     1039.864        1.156        0.207      137.115       19.642        0.021      348.425       28.112      861.238
09/10/2014  17:02:00       72.765      121.694       -7.784       62.417       68.763       39.761     3895.862     4728.356     1580.959        1.518        0.510      141.789       40.736        0.083      348.506       28.251      861.249
09/10/2014  17:03:00       -7.538      271.241      -31.439       65.695      120.499       44.664     4315.837    14520.077     1994.864        4.772        1.042      271.346       53.225        0.038      348.513       28.260      861.246
09/10/2014  17:04:00       39.528      243.804      -18.074       63.533      156.794       75.507     4036.504    24584.367     5701.284        4.782        1.716      246.987       93.465        0.143      348.549       28.324      861.234
09/10/2014  17:05:00       86.375      134.618       -4.926       75.305      106.219       52.090     5670.838    11282.395     2713.347        2.263        0.983      159.946       56.574        0.125      348.583       28.382      861.246
09/10/2014  17:06:00       77.411       64.754       19.633       59.854       52.471       44.436     3582.446     2753.180     1974.575        0.944        0.416      100.923       30.678        0.092      348.585       28.390      861.240
09/10/2014  17:07:00       75.838       65.671        9.049       58.045       49.602       31.775     3369.246     2460.320     1009.665        0.849        0.342      100.320       22.913        0.052      348.527       28.287      861.231
09/10/2014  17:08:00       44.534        9.959      -10.108       16.889       27.871       16.881      285.230      776.817      284.977        0.177        0.067       45.634       16.727        0.134      348.398       28.068      861.212
09/10/2014  17:09:00       58.391       -2.996       -0.429       34.385       31.414       18.285     1182.302      986.869      334.338        0.296        0.125       58.468       10.850        0.034      348.298       27.891      861.204
09/10/2014  17:10:00       57.899       20.876        4.536       45.197       24.077       23.394     2042.802      579.715      547.299        0.349        0.158       61.548        5.327        0.007      348.485       28.215      861.196
09/10/2014  17:11:00       -9.122      -28.157        0.349       24.958       26.702       20.328      622.889      712.998      413.219        0.131        0.087       29.597       11.466        0.150      348.526       28.285      861.173
09/10/2014  17:12:00       28.549      -20.569       22.854       47.771       58.270       32.759     2282.109     3395.375     1073.172        0.425        0.338       35.188       33.225        0.892      348.626       28.459      861.142
09/10/2014  17:13:00       53.561       42.587        6.314       34.208       28.540       26.832     1170.200      814.504      719.935        0.371        0.135       68.428       12.076        0.031      348.576       28.374      861.139
09/10/2014  17:14:00       46.021       71.552       19.476       70.160       44.971       35.148     4922.368     2022.388     1235.392        0.790        0.409       85.074       25.514        0.090      348.758       28.687      861.135
09/10/2014  17:15:00       65.616      128.964       -7.526       95.752      105.266       53.608     9168.515    11080.981     2873.863        2.205        1.156      144.697       51.018        0.124      348.672       28.536      861.156
09/10/2014  17:16:00       79.831      215.150       -4.789       87.126      126.698       76.020     7590.890    16052.454     5778.967        4.105        1.471      229.483       78.039        0.116      348.581       28.378      861.162
09/10/2014  17:17:00       73.285      151.286       -4.389       70.668      108.300       64.359     4993.897    11728.806     4142.058        2.457        1.043      168.102       56.074        0.111      348.495       28.230      861.166
09/10/2014  17:18:00      120.497      161.600        1.257      103.031       79.772       61.489    10615.353     6363.531     3780.885        3.069        1.038      201.579       53.453        0.070      348.443       28.140      861.156
09/10/2014  17:19:00      215.772      115.583       51.334      110.859      101.850       56.153    12289.752    10373.390     3153.194        4.418        1.291      244.780       50.358        0.042      348.485       28.211      861.143
09/10/2014  17:20:00      212.922      168.600       15.280      103.617       80.804       69.120    10736.415     6529.287     4777.637        4.802        1.102      271.591       43.695        0.026      348.398       28.061      861.146
09/10/2014  17:21:00      208.869      156.899       14.981       97.933       69.570       63.124     9590.945     4839.965     3984.647        4.344        0.921      261.235       41.354        0.025      348.399       28.062      861.144
09/10/2014  17:22:00       81.307       72.098       23.408       68.200       48.458       42.061     4651.230     2348.187     1769.103        1.056        0.438      108.668       34.800        0.103      348.484       28.213      861.132
09/10/2014  17:23:00       99.656      128.760       16.823       71.435       56.945       60.690     5102.952     3242.767     3683.303        1.941        0.601      162.820       40.690        0.062      348.517       28.269      861.119
09/10/2014  17:24:00      188.308      126.244       31.621      117.785       90.813       57.277    13873.350     8247.050     3280.679        3.890        1.270      226.710       28.336        0.016      348.468       28.183      861.099
09/10/2014  17:25:00      217.626       64.299       16.594      147.673       99.982       75.751    21807.274     9996.442     5738.178        4.465        1.877      226.926       44.491        0.038      348.427       28.111      861.071
09/10/2014  17:26:00      190.160      104.327       40.770       92.460       71.481       61.853     8548.917     5109.592     3825.850        3.309        0.874      216.899       39.889        0.034      348.418       28.098      861.079
09/10/2014  17:27:00      184.518       96.427       49.227       78.200       60.482       67.548     6115.210     3658.124     4562.697        3.005        0.717      208.195       31.676        0.023      348.541       28.308      861.070
09/10/2014  17:28:00      144.814      150.984        6.330      104.655       95.416       63.974    10952.656     9104.149     4092.686        3.397        1.207      209.206       49.953        0.057      348.522       28.277      861.070
09/10/2014  17:29:00       85.299      116.232        7.150       92.208       64.033       52.183     8502.255     4100.275     2723.025        1.808        0.766      144.173       41.014        0.081      348.483       28.209      861.073
09/10/2014  17:30:00      133.648       87.598       11.736       60.888       54.546       40.785     3707.402     2975.290     1663.411        1.701        0.417      159.798       20.698        0.017      348.450       28.154      861.068
09/10/2014  17:31:00       90.869        6.507       38.486       88.833       97.615       47.005     7891.298     9528.621     2209.503        1.470        0.981       91.102       42.648        0.219      348.534       28.299      861.048
09/10/2014  17:32:00      115.704       82.126       35.696       80.286       64.774       45.679     6445.801     4195.691     2086.576        1.707        0.636      141.888       24.017        0.029      348.553       28.333      861.047
09/10/2014  17:33:00      236.610      168.683       20.612      104.502       90.258       67.639    10920.595     8146.593     4575.088        5.425        1.182      290.582       50.141        0.030      348.471       28.187      861.050
09/10/2014  17:34:00      122.108       60.986        7.091       85.866       72.196       51.826     7372.949     5212.193     2685.897        1.697        0.764      136.491       38.177        0.078      348.498       28.237      861.043
09/10/2014  17:35:00      129.234       81.302        8.352       83.422       72.523       47.653     6959.196     5259.529     2270.772        1.893        0.724      152.681       38.498        0.064      348.533       28.296      861.031
09/10/2014  17:36:00      171.792      114.115       41.242      101.364       81.455       75.148    10274.716     6634.958     5647.184        3.339        1.128      206.240       27.445        0.018      348.486       28.214      861.011
09/10/2014  17:37:00      154.307       58.228       94.487      121.547      109.349       97.561    14773.699    11957.191     9518.070        3.618        1.812      164.928       76.450        0.215      348.406       28.077      861.007
09/10/2014  17:38:00      147.876       87.487       88.261      114.406       69.555       81.511    13088.785     4837.877     6644.022        3.094        1.229      171.818       66.268        0.149      348.402       28.071      861.000
09/10/2014  17:39:00       72.220       47.239      104.594      112.297      145.262       69.343    12610.692    21101.004     4808.484        2.845        1.926       86.297       81.297        0.887      348.433       28.125      860.985
09/10/2014  17:40:00      138.026       95.731       50.079      118.772       83.866       78.313    14106.809     7033.481     6132.911        2.899        1.364      167.975       69.719        0.172      348.475       28.195      861.019
09/10/2014  17:41:00      143.092      103.177       21.586       69.085       54.890       53.471     4772.688     3012.909     2859.162        2.111        0.532      176.411       36.362        0.042      348.462       28.174      861.036
09/10/2014  17:42:00       99.762       75.585       60.314       96.350       83.206       57.886     9283.231     6923.243     3350.783        1.943        0.978      125.162       42.363        0.115      348.458       28.168      861.030
09/10/2014  17:43:00      113.428       72.833       18.580       98.221       48.588       42.488     9647.390     2360.813     1805.225        1.616        0.691      134.798       30.206        0.050      348.528       28.288      861.047
09/10/2014  17:44:00       54.534       48.410       12.699       58.635       49.934       45.219     3438.073     2493.378     2044.777        0.673        0.399       72.922       23.206        0.101      348.478       28.205      861.054
09/10/2014  17:45:00       54.728      128.168      -21.648       46.078       69.210       30.909     2123.210     4789.982      955.336        1.388        0.393      139.364       25.838        0.034      348.419       28.101      861.072
09/10/2014  17:46:00        5.952      124.634      -17.670       47.165       47.070       28.178     2224.570     2215.550      794.013        1.056        0.262      124.776       24.924        0.040      348.437       28.132      861.057
09/10/2014  17:47:00      175.528      103.318       34.863      123.673       56.222       59.433    15294.922     3160.939     3532.289        3.234        1.099      203.678       59.633        0.086      348.468       28.184      861.059
09/10/2014  17:48:00       91.591       72.027        9.322      110.053       52.000       42.517    12111.635     2704.010     1807.678        1.514        0.831      116.520       28.940        0.062      348.493       28.229      861.064
09/10/2014  17:49:00       36.915      137.119       -5.002       74.519       81.431       41.000     5553.060     6631.079     1681.026        1.702        0.693      142.001       34.746        0.060      348.484       28.212      861.064
09/10/2014  17:50:00      183.396       95.230       18.915      132.439       75.650       59.813    17540.063     5722.988     3577.619        3.495        1.342      206.647       29.156        0.020      348.425       28.110      861.069
09/10/2014  17:51:00      177.709      155.029        6.520       99.793       74.917       61.197     9958.592     5612.603     3745.072        3.748        0.966      235.827       45.707        0.038      348.344       27.967      861.088
09/10/2014  17:52:00      133.826      104.634        7.440       82.540       53.707       52.439     6812.895     2884.460     2749.885        2.068        0.622      169.876       33.390        0.039      348.328       27.942      861.097
09/10/2014  17:53:00      181.729      129.546       25.502      101.576       64.186       53.638    10317.736     4119.832     2877.021        3.388        0.866      223.176       29.832        0.018      348.358       27.993      861.099
09/10/2014  17:54:00      184.932      159.793      -11.725      129.427       76.280       57.818    16751.232     5818.607     3342.926        4.289        1.296      244.405       42.920        0.031      348.345       27.970      861.101
09/10/2014  17:55:00      138.737       66.541       32.469       90.349       54.550       50.757     8163.011     2975.662     2576.258        1.922        0.686      153.869       36.455        0.056      348.367       28.009      861.093
09/10/2014  17:56:00      236.059      134.253       45.181      117.953       76.745       62.802    13912.895     5889.741     3944.036        4.976        1.187      271.565       30.842        0.013      348.388       28.043      861.105
09/10/2014  17:57:00      173.297      120.188       56.271      116.556       99.990       74.047    13585.396     9998.071     5482.974        3.835        1.453      210.896       39.792        0.036      348.362       27.999      861.110
09/10/2014  17:58:00      179.863      120.850       42.255       86.352       66.877       59.299     7456.746     4472.514     3516.413        3.209        0.772      216.692       48.216        0.050      348.307       27.904      861.114
09/10/2014  17:59:00      187.361      118.156       67.045       81.984       68.517       44.452     6721.350     4694.514     1975.985        3.347        0.670      221.506       21.107        0.009      348.319       27.924      861.120
09/10/2014  18:00:00      146.723       65.078       54.263      126.588       94.993       80.237    16024.536     9023.702     6437.982        3.009        1.574      160.507       61.880        0.149      348.280       27.858      861.100
09/10/2014  18:01:00      176.522       77.543       45.077      127.218       86.326       72.540    16184.351     7452.151     5262.040        3.405        1.445      192.803       63.414        0.108      348.260       27.823      861.104
09/10/2014  18:02:00       95.251       54.818       51.260      105.261       66.958       50.931    11079.922     4483.323     2593.967        1.643        0.908      109.899       50.825        0.214      348.281       27.861      861.105
09/10/2014  18:03:00      103.717       75.026       35.400       76.661       73.732       57.600     5876.944     5436.471     3317.733        1.613        0.732      128.009       41.419        0.105      348.276       27.853      861.106
09/10/2014  18:04:00      228.055       98.666       26.172       95.757       83.692       57.242     9169.360     7004.394     3276.609        4.094        0.973      248.484       33.580        0.018      348.302       27.895      861.118
09/10/2014  18:05:00      180.792      139.519       16.479      117.304       85.482       71.813    13760.217     7307.178     5157.094        3.932        1.311      228.367       48.927        0.046      348.325       27.936      861.123
09/10/2014  18:06:00      239.170      143.233       60.994      147.598      113.159       77.664    21785.032    12805.037     6031.715        6.102        2.031      278.780       44.943        0.026      348.271       27.841      861.105
09/10/2014  18:07:00      144.154      112.890       43.772      102.996       77.346       72.111    10608.168     5982.457     5200.027        2.861        1.090      183.097       58.101        0.101      348.247       27.800      861.088
09/10/2014  18:08:00       82.339       95.374       -5.602       69.565       55.639       42.741     4839.324     3095.720     1826.754        1.283        0.488      126.000       28.589        0.051      348.270       27.842      861.110
09/10/2014  18:09:00       76.747      208.826      -26.559       74.974       76.008       54.644     5621.042     5777.154     2985.998        3.229        0.719      222.483       46.376        0.043      348.207       27.731      861.121
09/10/2014  18:10:00       77.487      261.908      -38.934       79.809      183.877       76.814     6369.554    33810.745     5900.429        6.109        2.304      273.130       92.935        0.116      348.195       27.712      861.118
09/10/2014  18:11:00       63.700      131.215       -2.725       72.066       93.228       68.682     5193.500     8691.370     4717.169        1.994        0.930      145.859       53.796        0.136      348.184       27.693      861.124
09/10/2014  18:12:00      268.724      154.434       34.023      115.194       92.802       70.973    13269.617     8612.189     5037.118        6.206        1.346      309.939       31.773        0.011      348.192       27.705      861.122
09/10/2014  18:13:00      236.293      203.372       14.588      134.210       90.695       86.551    18012.411     8225.650     7491.028        6.556        1.686      311.761       54.572        0.031      348.192       27.705      861.109
09/10/2014  18:14:00      289.033      223.494       21.622      118.592       92.104       83.977    14064.131     8483.087     7052.159        8.177        1.480      365.362       46.049        0.016      348.166       27.659      861.097
09/10/2014  18:15:00      240.132      137.946       40.138      107.748       65.620       70.124    11609.596     4305.995     4917.409        4.956        1.042      276.934       33.019        0.014      348.194       27.709      861.109
09/10/2014  18:16:00      360.822      228.358       22.995      119.122       79.554       68.934    14189.989     6328.910     4751.952       10.407        1.264      427.013       43.540        0.010      348.146       27.626      861.105
09/10/2014  18:17:00      238.293      200.111       23.855      151.425      113.289       95.667    22929.617    12834.395     9152.223        7.115        2.246      311.172       74.435        0.057      348.129       27.597      861.108
09/10/2014  18:18:00      217.724      125.882       34.684      129.888       80.840       72.246    16870.974     6535.106     5219.446        4.653        1.431      251.495       44.223        0.031      348.119       27.579      861.101
09/10/2014  18:19:00      153.814      125.293       31.667       96.578       54.994       55.461     9327.353     3024.291     3075.885        2.789        0.771      198.386       41.902        0.045      348.112       27.569      861.114
09/10/2014  18:20:00       71.451       66.665        1.629       74.975       47.874       37.210     5621.209     2291.938     1384.585        0.942        0.465       97.721       19.996        0.042      348.087       27.528      861.136
09/10/2014  18:21:00       91.757       89.972       10.376       70.821       57.290       43.143     5015.650     3282.113     1861.291        1.339        0.508      128.508       41.313        0.103      348.086       27.525      861.144
09/10/2014  18:22:00       89.610       72.410       17.817       95.474       65.672       42.620     9115.276     4312.761     1816.478        1.442        0.762      115.209       27.219        0.056      348.087       27.526      861.153
09/10/2014  18:23:00       59.330       80.015       12.448       72.082       55.580       47.761     5195.751     3089.104     2281.132        1.032        0.528       99.611       39.607        0.158      348.096       27.543      861.158
09/10/2014  18:24:00       94.717      254.403      -42.876       75.814      144.625       57.415     5747.765    20916.267     3296.494        5.274        1.498      271.463       73.649        0.074      348.083       27.516      861.164
09/10/2014  18:25:00       54.430       87.474       16.162       69.849       80.881       56.125     4878.904     6541.788     3149.989        1.272        0.729      103.026       51.201        0.247      348.063       27.484      861.174
09/10/2014  18:26:00       58.212      216.060      -14.275       78.221      133.593       69.641     6118.580    17847.199     4849.820        3.954        1.441      223.764       76.090        0.116      348.031       27.428      861.170
09/10/2014  18:27:00       45.857      186.891      -20.841       80.355       75.394       58.742     6456.998     5684.189     3450.595        2.653        0.780      192.435       45.344        0.056      348.001       27.376      861.172
09/10/2014  18:28:00       64.034      142.755        9.575       62.969      137.184       70.583     3965.113    18819.343     4981.970        2.616        1.388      156.459       81.554        0.272      348.000       27.377      861.177
09/10/2014  18:29:00       41.706      267.649      -25.551       91.403      148.709       76.331     8354.534    22114.340     5826.377        5.516        1.815      270.879       88.084        0.106      347.995       27.364      861.179
09/10/2014  18:30:00      -35.740      274.205      -27.829       75.251       99.428       41.548     5662.760     9885.997     1726.218        4.725        0.864      276.525       42.011        0.023      347.976       27.332      861.175
09/10/2014  18:31:00       49.782      308.885      -40.837       62.760      110.807       58.475     3938.832    12278.291     3419.383        5.959        0.982      312.871       66.840        0.046      347.990       27.355      861.169
09/10/2014  18:32:00      -20.704      221.480      -18.250       83.218      106.583       56.654     6925.251    11359.858     3209.713        3.565        1.075      222.445       61.142        0.076      347.925       27.245      861.181
09/10/2014  18:33:00       31.435      144.128        1.112       64.994       85.436       56.607     4224.157     7299.384     3204.349        1.824        0.736      147.516       53.044        0.129      347.937       27.266      861.181
09/10/2014  18:34:00       57.091      232.898      -32.251       71.254      100.017       48.839     5077.170    10003.493     2385.206        3.800        0.873      239.793       48.419        0.041      347.947       27.283      861.171
09/10/2014  18:35:00       37.612      273.237      -42.223       67.456       94.181       43.399     4550.326     8870.128     1883.440        4.658        0.765      275.814       42.413        0.024      347.957       27.300      861.169
09/10/2014  18:36:00       71.811      131.885       -5.330       73.095       81.746       60.180     5342.817     6682.484     3621.608        1.911        0.782      150.168       52.724        0.123      347.927       27.251      861.168
09/10/2014  18:37:00       31.497      169.494      -24.372       35.533       84.833       32.731     1262.573     7196.667     1071.310        1.992        0.477      172.395       42.139        0.060      347.917       27.231      861.173
09/10/2014  18:38:00       41.707       88.082        8.974       58.627       82.482       56.918     3437.083     6803.212     3239.659        1.153        0.674       97.457       54.067        0.308      347.883       27.174      861.164
09/10/2014  18:39:00        5.877      175.596      -25.874       43.615       79.240       32.925     1902.304     6278.925     1084.080        2.040        0.463      175.694       40.953        0.054      347.897       27.197      861.156
09/10/2014  18:40:00        5.859      147.010       -1.652       53.834       88.809       47.557     2898.088     7886.969     2261.697        1.735        0.652      147.126       50.972        0.120      347.849       27.114      861.155
09/10/2014  18:41:00       24.953      154.864       -9.654       53.970       73.159       46.527     2912.751     5352.197     2164.775        1.756        0.521      156.862       37.128        0.056      347.817       27.060      861.166
09/10/2014  18:42:00       48.335      100.842       -1.958       53.916       85.513       38.778     2906.964     7312.526     1503.734        1.211        0.586      111.828       42.332        0.143      347.804       27.038      861.158
09/10/2014  18:43:00       78.293      132.675      -28.605       45.592       66.574       37.285     2078.598     4432.126     1390.182        1.622        0.395      154.053       34.297        0.050      347.827       27.077      861.152
09/10/2014  18:44:00       74.845       67.020        4.466       46.185       44.186       40.793     2133.019     1952.436     1664.055        0.793        0.287      100.466       33.765        0.113      347.775       26.988      861.159
09/10/2014  18:45:00       56.044       56.176       16.048       44.820       47.018       36.975     2008.874     2210.712     1367.184        0.607        0.279       79.352       30.496        0.148      347.741       26.929      861.165
09/10/2014  18:46:00       59.829       74.987       11.262       49.604       45.372       34.535     2460.527     2058.615     1192.660        0.752        0.286       95.930       25.731        0.072      347.729       26.907      861.169
09/10/2014  18:47:00       39.069      155.156      -19.180       45.305       90.401       42.944     2052.552     8172.377     1844.154        1.902        0.603      160.000       51.051        0.102      347.752       26.948      861.180
09/10/2014  18:48:00       31.490      171.383      -23.875       32.930       45.852       20.776     1084.383     2102.371      431.627        1.728        0.181      174.252       19.546        0.013      347.752       26.948      861.194
09/10/2014  18:49:00       29.153      144.209      -16.885       33.261       44.600       27.437     1106.314     1989.159      752.780        1.289        0.192      147.126       23.875        0.026      347.711       26.879      861.208
09/10/2014  18:50:00       -4.027      115.702      -11.337       49.567       46.012       36.488     2456.887     2117.097     1331.342        0.972        0.295      115.772       29.722        0.066      347.694       26.848      861.211
09/10/2014  18:51:00       15.185      147.588      -20.908       56.428       60.001       35.583     3184.125     3600.072     1266.159        1.525        0.403      148.367       31.766        0.046      347.641       26.757      861.219
09/10/2014  18:52:00       27.267      239.764      -40.409       48.751       47.758       29.711     2376.613     2280.833      882.734        3.270        0.277      241.309       26.549        0.012      347.727       26.902      861.224
09/10/2014  18:53:00        5.118      173.951      -18.166       65.576       74.398       36.546     4300.239     5535.126     1335.616        2.089        0.559      174.026       39.568        0.052      347.689       26.837      861.219
09/10/2014  18:54:00      -17.533      210.642      -29.978       44.758       47.095       31.736     2003.292     2217.893     1007.200        2.540        0.261      211.370       30.875        0.021      347.674       26.812      861.214
09/10/2014  18:55:00       21.490      209.371      -33.022       42.512       47.650       26.878     1807.264     2270.501      722.434        2.509        0.240      210.471       28.683        0.019      347.663       26.792      861.228
09/10/2014  18:56:00       29.269      168.854      -12.496       63.325       90.341       55.291     4010.091     8161.461     3057.138        2.237        0.761      171.372       59.075        0.119      347.628       26.733      861.217
09/10/2014  18:57:00        0.410      177.887      -27.718       47.007       47.445       30.198     2209.699     2251.034      911.930        1.889        0.269      177.888       20.019        0.013      347.610       26.704      861.203
09/10/2014  18:58:00       -0.074      235.627      -38.683       69.827       71.143       38.250     4875.829     5061.331     1463.046        3.421        0.570      235.627       37.215        0.025      347.625       26.726      861.206
09/10/2014  18:59:00      -16.124      291.667      -38.004       61.730       71.612       36.315     3810.594     5128.259     1318.763        4.851        0.513      292.112       33.975        0.014      347.643       26.757      861.205
09/10/2014  19:00:00       28.014      232.888      -33.572       51.734       74.310       47.306     2676.364     5521.905     2237.854        3.329        0.522      234.567       49.292        0.044      347.553       26.602      861.197
09/10/2014  19:01:00        7.825      120.157      -12.000       51.659       64.974       28.222     2668.642     4221.650      796.472        1.116        0.384      120.412       32.884        0.075      347.455       26.435      861.197
09/10/2014  19:02:00       10.514      236.666      -32.903       56.408       88.876       42.579     3181.844     7899.019     1812.992        3.505        0.645      236.899       48.873        0.043      347.497       26.506      861.197
09/10/2014  19:03:00       -3.964      164.314      -13.565       47.728       60.722       39.132     2277.986     3687.175     1531.349        1.735        0.375      164.362       36.309        0.049      347.438       26.407      861.207
09/10/2014  19:04:00      -33.108      202.738      -25.904       39.201       36.682       21.733     1536.751     1345.553      472.340        2.311        0.168      205.423       14.967        0.005      347.472       26.462      861.195
09/10/2014  19:05:00      -24.790      198.916      -24.721       46.428       41.551       22.411     2155.519     1726.499      502.235        2.259        0.219      200.455       19.310        0.009      347.460       26.442      861.200
09/10/2014  19:06:00      -67.184      159.871      -24.696       48.951       47.131       27.515     2396.237     2221.297      757.067        1.803        0.269      173.414       21.814        0.016      347.426       26.385      861.211
09/10/2014  19:07:00      -61.505      134.488      -25.333       36.991       73.980       25.832     1368.324     5473.031      667.306        1.501        0.375      147.885       10.495        0.005      347.441       26.411      861.216
09/10/2014  19:08:00      -72.842      209.877      -33.251       80.650       70.095       33.950     6504.418     4913.260     1152.576        3.151        0.629      222.159       31.420        0.020      347.458       26.438      861.203
09/10/2014  19:09:00      -36.118      159.383      -23.057       43.551       61.863       26.115     1896.657     3827.067      682.013        1.682        0.320      163.424       22.262        0.019      347.352       26.258      861.205
09/10/2014  19:10:00      -40.788      200.268      -32.297       43.293       64.051       23.391     1874.296     4102.519      547.157        2.467        0.326      204.380       19.526        0.009      347.390       26.323      861.204
09/10/2014  19:11:00      -65.452      141.912      -23.952       38.452       42.655       25.241     1478.575     1819.434      637.102        1.447        0.197      156.278       17.209        0.012      347.338       26.234      861.198
09/10/2014  19:12:00      -47.698      164.582      -21.707       46.332       49.473       25.267     2146.611     2447.584      638.411        1.753        0.262      171.355       19.306        0.013      347.331       26.223      861.204
09/10/2014  19:13:00      -33.801      213.443      -33.321       29.260       57.364       21.547      856.150     3290.574      464.278        2.621        0.231      216.103       21.223        0.010      347.394       26.329      861.213
09/10/2014  19:14:00      -53.161      181.418      -23.227       46.512       50.319       28.430     2163.356     2531.965      808.267        2.089        0.275      189.047       19.534        0.011      347.285       26.142      861.211
09/10/2014  19:15:00      -47.642      197.753      -27.063       45.401       61.914       35.514     2061.271     3833.376     1261.274        2.463        0.358      203.411       31.984        0.025      347.241       26.066      861.214
09/10/2014  19:16:00      -32.432      211.489      -31.012       58.003       83.481       35.842     3364.310     6969.134     1284.618        2.918        0.581      213.961       39.933        0.035      347.240       26.063      861.215
09/10/2014  19:17:00      -58.067      217.833      -27.519       56.231       65.849       35.414     3161.922     4336.137     1254.123        3.016        0.438      225.439       37.312        0.027      347.214       26.019      861.209
09/10/2014  19:18:00      -34.840      250.722      -35.238       60.923       69.829       34.031     3711.602     4876.157     1158.109        3.753        0.487      253.131       33.105        0.017      347.296       26.159      861.211
09/10/2014  19:19:00      -28.483      262.435      -37.023       44.750       44.764       29.925     2002.534     2003.856      895.494        3.798        0.245      263.976       25.936        0.010      347.284       26.134      861.209
09/10/2014  19:20:00      -40.545      198.470      -27.372       46.803       61.562       29.363     2190.520     3789.842      862.201        2.431        0.342      202.569       23.000        0.013      347.187       25.971      861.214
09/10/2014  19:21:00      -36.460      208.061      -27.334       44.786       66.022       29.447     2005.804     4358.862      867.129        2.630        0.362      211.231       30.081        0.020      347.165       25.933      861.226
09/10/2014  19:22:00      -26.690      193.074      -28.760       45.390       51.312       27.894     2060.289     2632.891      778.068        2.214        0.274      194.910       25.866        0.018      347.168       25.939      861.231
09/10/2014  19:23:00      -61.890      175.826      -31.166       36.738       44.843       21.062     1349.680     2010.859      443.596        1.976        0.190      186.400       12.490        0.004      347.140       25.894      861.239
09/10/2014  19:24:00      -61.490      107.257      -16.016       41.509       37.795       24.278     1723.009     1428.461      589.414        0.964        0.187      123.633       18.061        0.021      347.061       25.757      861.257
09/10/2014  19:25:00      -60.318      122.772       -3.944       46.547       54.422       37.929     2166.626     2961.717     1438.595        1.265        0.328      136.789       27.967        0.042      347.000       25.652      861.267
09/10/2014  19:26:00      -45.388      128.053      -16.529       37.792       83.335       32.679     1428.233     6944.690     1067.890        1.408        0.472      135.859       42.789        0.099      347.045       25.729      861.281
09/10/2014  19:27:00      -72.132      104.662      -21.258       47.546       60.891       27.631     2260.640     3707.672      763.490        1.167        0.337      127.111       24.603        0.037      347.065       25.764      861.291
09/10/2014  19:28:00     -118.520      149.662      -24.201       53.910       66.366       40.096     2906.306     4404.483     1607.726        2.297        0.446      190.907       30.132        0.025      347.025       25.692      861.300
09/10/2014  19:29:00      -84.793      108.800      -15.395       61.655       74.698       30.608     3801.294     5579.848      936.833        1.479        0.516      137.939       34.458        0.062      346.991       25.635      861.294
09/10/2014  19:30:00      -91.394      134.012      -19.661       65.137       79.029       44.624     4242.781     6245.600     1991.261        1.959        0.624      162.210       45.474        0.079      346.981       25.619      861.303
09/10/2014  19:31:00     -134.570      141.154      -23.692       62.377       69.379       38.712     3890.873     4813.431     1498.649        2.440        0.510      195.022       37.405        0.037      346.990       25.632      861.290
09/10/2014  19:32:00     -114.323       96.178      -24.942       42.584       49.193       27.045     1813.439     2419.960      731.414        1.395        0.248      149.399       27.942        0.035      346.896       25.474      861.297
09/10/2014  19:33:00     -130.777      118.093      -31.582       72.154       59.367       37.174     5206.166     3524.457     1381.879        2.108        0.506      176.206       43.266        0.060      346.915       25.503      861.291
09/10/2014  19:34:00      -82.269       74.918      -19.392       39.753       55.494       29.005     1580.327     3079.586      841.301        0.913        0.275      111.270       29.118        0.068      346.864       25.419      861.292
09/10/2014  19:35:00     -103.736      110.129      -31.085       54.173       34.253       28.769     2934.717     1173.245      827.679        1.439        0.247      151.293       23.329        0.024      346.883       25.450      861.301
09/10/2014  19:36:00     -115.866      102.380      -27.909       34.172       52.912       23.749     1167.719     2799.697      563.999        1.461        0.227      154.618       23.001        0.022      346.819       25.340      861.314
09/10/2014  19:37:00      -89.138       83.892      -17.857       46.941       50.877       24.344     2203.435     2588.463      592.618        1.034        0.269      122.407       25.768        0.044      346.764       25.247      861.326
09/10/2014  19:38:00      -64.458       44.952       -5.783       39.030       34.109       23.813     1523.317     1163.446      567.075        0.473        0.163       78.584       21.066        0.072      346.708       25.150      861.342
09/10/2014  19:39:00      -94.104       66.894      -19.625       29.744       35.305       23.449      884.729     1246.452      549.856        0.820        0.134      115.458       18.042        0.024      346.718       25.167      861.351
09/10/2014  19:40:00     -141.987       91.078      -33.985       39.729       37.046       25.535     1578.388     1372.389      652.014        1.661        0.180      168.688       19.636        0.014      346.699       25.133      861.362
09/10/2014  19:41:00     -142.124       89.096      -25.347       52.171       73.706       31.613     2721.846     5432.581      999.410        1.897        0.458      167.742       37.004        0.049      346.677       25.097      861.366
09/10/2014  19:42:00     -153.240      101.530      -29.816       51.187       61.463       33.070     2620.124     3777.731     1093.596        2.108        0.375      183.823       32.512        0.031      346.668       25.079      861.381
09/10/2014  19:43:00     -158.797      121.064      -46.447       36.945       49.480       27.499     1364.944     2448.232      756.188        2.330        0.228      199.682       24.961        0.016      346.670       25.082      861.396
09/10/2014  19:44:00     -125.699      100.144      -22.091       57.210       51.340       31.913     3273.013     2635.835     1018.438        1.662        0.346      160.715       29.873        0.035      346.577       24.924      861.407
09/10/2014  19:45:00     -130.841      102.619      -21.602       53.737       46.678       37.410     2887.624     2178.797     1399.539        1.729        0.323      166.283       31.924        0.037      346.571       24.914      861.419
09/10/2014  19:46:00     -158.455      124.802      -37.257       44.880       49.298       28.721     2014.239     2430.250      824.875        2.367        0.263      201.702       28.405        0.020      346.575       24.919      861.427
09/10/2014  19:47:00     -137.962      149.655      -44.480       49.754       69.243       30.556     2475.479     4794.545      933.662        2.580        0.410      203.544       34.501        0.029      346.511       24.809      861.444
09/10/2014  19:48:00     -147.088      132.896      -27.873       68.215       65.021       44.320     4653.229     4227.716     1964.272        2.546        0.542      198.233       39.585        0.040      346.430       24.670      861.437
09/10/2014  19:49:00     -158.369      119.478      -34.804       41.784       65.208       28.592     1745.944     4252.042      817.499        2.369        0.341      198.383       27.344        0.019      346.458       24.718      861.457
09/10/2014  19:50:00     -141.529      111.284      -27.436       63.028       43.862       31.090     3972.524     1923.875      966.611        2.001        0.343      180.041       26.774        0.022      346.431       24.673      861.458
09/10/2014  19:51:00     -162.962      112.630      -36.488       38.997       60.730       31.135     1520.798     3688.180      969.371        2.337        0.309      198.096       32.850        0.027      346.451       24.705      861.462
09/10/2014  19:52:00     -161.059       93.263      -26.617       60.804       40.321       36.520     3697.081     1625.801     1333.741        2.100        0.333      186.113       31.442        0.029      346.426       24.663      861.464
09/10/2014  19:53:00     -145.705      109.837      -30.545       51.315       53.694       36.506     2633.254     2883.081     1332.658        2.054        0.342      182.467       25.274        0.019      346.415       24.646      861.464
09/10/2014  19:54:00     -138.260      118.410      -25.567       53.763       62.070       37.156     2890.473     3852.663     1380.543        2.096        0.406      182.035       30.608        0.028      346.420       24.653      861.459
09/10/2014  19:55:00     -163.467      159.349      -38.234       58.673       76.479       36.792     3442.535     5849.069     1353.687        3.211        0.532      228.284       38.928        0.029      346.469       24.737      861.467
09/10/2014  19:56:00     -159.665      140.020      -27.331       73.178       75.637       48.846     5354.972     5720.949     2385.934        2.965        0.673      212.364       51.558        0.059      346.458       24.718      861.460
09/10/2014  19:57:00     -112.125      113.405      -20.596       70.400       72.156       44.925     4956.195     5206.428     2018.251        1.902        0.609      159.476       45.267        0.081      346.384       24.591      861.474
09/10/2014  19:58:00     -133.433       98.351      -26.620       50.990       60.767       41.284     2600.011     3692.629     1704.392        1.809        0.400      165.763       19.144        0.013      346.423       24.659      861.474
09/10/2014  19:59:00     -180.291      171.717      -39.557       64.434       80.920       44.589     4151.789     6548.015     1988.166        3.812        0.634      248.981       45.071        0.033      346.511       24.808      861.483
09/10/2014  20:00:00     -150.101      120.524      -24.601       70.838       63.989       44.853     5018.009     4094.615     2011.793        2.439        0.556      192.500       45.771        0.057      346.454       24.711      861.485
09/10/2014  20:01:00     -154.243      126.901      -25.186       58.362       63.999       42.826     3406.128     4095.920     1834.087        2.493        0.467      199.736       31.730        0.025      346.540       24.859      861.492
09/10/2014  20:02:00     -154.265      159.567      -46.255       45.748       70.497       35.368     2092.850     4969.864     1250.889        2.985        0.416      221.944       35.861        0.026      346.556       24.884      861.495
09/10/2014  20:03:00     -151.255      170.339      -38.880       54.639       69.416       39.969     2985.390     4818.553     1597.548        3.140        0.470      227.801       36.871        0.026      346.492       24.777      861.506
09/10/2014  20:04:00     -208.174      188.418      -43.022       74.820       81.662       52.117     5598.014     6668.683     2716.152        4.783        0.749      280.781       52.904        0.036      346.527       24.835      861.501
09/10/2014  20:05:00     -163.109      182.497      -47.023       65.249       80.926       42.714     4257.389     6548.969     1824.480        3.737        0.632      244.765       43.935        0.032      346.621       24.997      861.512
09/10/2014  20:06:00     -176.812      209.847      -48.718       72.282       99.538       47.061     5224.744     9907.782     2214.716        4.751        0.867      274.405       48.120        0.031      346.650       25.047      861.518
09/10/2014  20:07:00     -124.741      138.732      -35.058       62.107       64.481       37.740     3857.252     4157.738     1424.274        2.274        0.472      186.565       34.226        0.034      346.645       25.039      861.528
09/10/2014  20:08:00      -69.042      129.357      -16.572       62.959       71.909       40.522     3963.853     5170.911     1641.997        1.627        0.539      146.629       33.362        0.052      346.580       24.928      861.537
09/10/2014  20:09:00      -78.297      117.392      -14.533       47.774       70.751       34.599     2282.384     5005.735     1197.062        1.430        0.424      141.107       32.881        0.054      346.492       24.779      861.548
09/10/2014  20:10:00      -43.187       88.283      -14.582       63.086       57.687       26.523     3979.799     3327.793      703.469        0.894        0.401       98.280       33.554        0.117      346.422       24.658      861.565
09/10/2014  20:11:00     -139.459      128.110      -35.896       48.520       46.929       30.190     2354.160     2202.336      911.430        2.131        0.273      189.370       25.519        0.018      346.501       24.793      861.568
09/10/2014  20:12:00      -96.107       98.932      -27.578       41.391       53.864       25.126     1713.253     2901.355      631.317        1.251        0.262      137.928       25.776        0.035      346.431       24.673      861.589
09/10/2014  20:13:00      -63.914       35.065      -15.910       34.468       43.327       18.089     1188.017     1877.244      327.202        0.448        0.170       72.901       16.062        0.049      346.369       24.567      861.598
09/10/2014  20:14:00      -83.732       47.723      -12.367       35.118       42.081       30.116     1233.283     1770.791      906.944        0.668        0.196       96.377       19.697        0.042      346.489       24.772      861.611
09/10/2014  20:15:00      -81.524       31.280       -9.737       33.891       55.552       28.732     1148.619     3086.025      825.524        0.639        0.253       87.318       21.433        0.060      346.357       24.547      861.610
09/10/2014  20:16:00      -86.168       18.517       -5.130       32.743       41.001       27.885     1072.134     1681.111      777.559        0.566        0.177       88.135       14.757        0.028      346.345       24.525      861.627
09/10/2014  20:17:00      -71.828       47.888      -10.883       50.712       51.449       29.903     2571.693     2647.039      894.208        0.684        0.306       86.328       25.414        0.087      346.430       24.672      861.635
09/10/2014  20:18:00      -33.587       15.619        3.328       43.574       43.177       23.538     1898.723     1864.263      554.059        0.285        0.216       37.041       20.263        0.299      346.254       24.369      861.650
09/10/2014  20:19:00      -58.690       26.315      -13.063       17.433       23.719       15.806      303.900      562.610      249.844        0.271        0.056       64.320       11.055        0.030      346.265       24.388      861.665
09/10/2014  20:20:00      -32.936      -27.527       -7.973       34.727       25.587       18.455     1205.951      654.696      340.598        0.205        0.110       42.924       15.997        0.139      346.360       24.552      861.673
09/10/2014  20:21:00      -29.347      -15.365        0.911       36.466       29.622       20.747     1329.782      877.445      430.445        0.187        0.132       33.126       20.962        0.400      346.112       24.125      861.678
09/10/2014  20:22:00      -13.478      -14.858        3.429       35.747       24.409       21.364     1277.857      595.802      456.439        0.137        0.117       20.060       14.065        0.492      345.927       23.809      861.699
09/10/2014  20:23:00      -57.527      -37.276        2.583       45.922       32.421       17.469     2108.845     1051.098      305.170        0.408        0.173       68.548        9.742        0.020      345.900       23.762      861.706
09/10/2014  20:24:00      -92.717     -103.661       -6.038       44.287       45.125       23.180     1961.313     2036.274      537.327        1.196        0.227      139.075       17.564        0.016      345.840       23.660      861.714
09/10/2014  20:25:00      -63.945     -116.020      -11.904       54.084       46.728       29.014     2925.036     2183.525      841.799        1.182        0.298      132.475       20.663        0.024      345.761       23.523      861.733
09/10/2014  20:26:00     -127.021     -104.926       -4.017       62.209       42.274       29.427     3869.988     1787.077      865.930        1.684        0.326      164.754       23.187        0.020      345.641       23.316      861.749
09/10/2014  20:27:00     -145.471      -65.327       -0.129       75.123       61.301       39.416     5643.483     3757.817     1553.632        1.819        0.548      159.466       37.757        0.056      345.671       23.367      861.768
09/10/2014  20:28:00     -165.386     -125.125        7.174       79.847       64.858       44.515     6375.527     4206.506     1981.584        2.781        0.628      207.385       40.482        0.038      345.765       23.527      861.772
09/10/2014  20:29:00     -143.652     -111.828        3.691       67.481       65.332       38.499     4553.752     4268.217     1482.176        2.173        0.515      182.048       37.457        0.042      345.906       23.770      861.796
09/10/2014  20:30:00      -96.047     -103.540       -3.560       60.896       46.261       29.821     3708.340     2140.069      889.313        1.335        0.337      141.229       28.664        0.041      345.917       23.792      861.819
09/10/2014  20:31:00     -106.426     -106.127       -4.252       51.293       44.046       26.268     2630.964     1940.036      690.017        1.393        0.263      150.298       20.458        0.019      345.942       23.833      861.835
09/10/2014  20:32:00      -70.522      -50.417       17.483       58.805       47.927       26.644     3458.039     2296.977      709.905        0.714        0.323       86.691       31.732        0.134      345.899       23.760      861.857
09/10/2014  20:33:00      -97.975      -53.676        1.364       37.972       29.425       25.578     1441.891      865.808      654.229        0.772        0.148      111.715       18.034        0.026      345.896       23.755      861.867
09/10/2014  20:34:00      -96.074      -88.390        2.090       56.961       47.320       27.881     3244.504     2239.144      777.354        1.165        0.313      130.549       29.688        0.052      345.975       23.889      861.883
09/10/2014  20:35:00     -147.614      -78.322        4.267       85.512       43.288       34.450     7312.331     1873.832     1186.791        1.916        0.519      167.105       42.955        0.066      345.950       23.845      861.880
09/10/2014  20:36:00     -166.384      -51.605       -8.431       40.153       34.247       23.157     1612.299     1172.870      536.254        1.687        0.166      174.203       18.301        0.011      346.191       24.260      861.901
09/10/2014  20:37:00     -146.388      -91.903      -12.186       42.283       40.441       22.891     1787.860     1635.505      523.979        1.699        0.197      172.846       20.878        0.015      346.153       24.195      861.894
09/10/2014  20:38:00     -124.451      -12.587       -2.806       48.786       50.932       25.707     2380.093     2594.072      660.858        1.064        0.282      125.086       19.645        0.025      345.973       23.887      861.896
09/10/2014  20:39:00     -144.147      -35.805       -5.590       72.254       46.610       29.057     5220.686     2172.528      844.302        1.516        0.412      148.528       22.123        0.022      346.138       24.170      861.908
09/10/2014  20:40:00      -30.447      -44.366        4.434       36.064       35.805       21.307     1300.615     1281.997      453.993        0.298        0.152       53.809       15.175        0.080      346.365       24.560      861.897
09/10/2014  20:41:00      -86.556      -38.641       -0.575       39.531       29.971       14.628     1562.709      898.278      213.982        0.583        0.134       94.790       11.406        0.014      345.968       23.876      861.895
09/10/2014  20:42:00      -83.721      -53.701        0.891       41.660       34.725       21.953     1735.555     1205.798      481.953        0.666        0.171       99.464       18.278        0.034      345.873       23.714      861.898
09/10/2014  20:43:00      -91.425      -50.970       -6.685       39.669       41.878       14.277     1573.667     1753.804      203.831        0.727        0.177      104.673       12.501        0.014      345.874       23.717      861.900
09/10/2014  20:44:00      -82.831      -37.496       10.486       40.442       30.084       20.958     1635.537      905.027      439.227        0.568        0.149       90.922       16.408        0.033      345.774       23.545      861.909
09/10/2014  20:45:00     -120.103       -2.488       -1.078       35.420       33.092       20.772     1254.611     1095.063      431.472        0.861        0.139      120.129       12.675        0.011      345.711       23.435      861.916
09/10/2014  20:46:00     -108.928      -36.091       -0.009       46.197       27.181       19.411     2134.158      738.790      376.803        0.821        0.162      114.751       23.836        0.043      345.481       23.043      861.935
09/10/2014  20:47:00      -23.403      -38.995        2.308       48.522       39.376       21.097     2354.346     1550.494      445.084        0.321        0.217       45.479       23.107        0.258      345.662       23.353      861.952
09/10/2014  20:48:00       -5.480      -19.375        9.622       33.927       23.799       16.041     1151.012      566.410      257.307        0.124        0.099       20.135       13.618        0.457      345.719       23.452      861.967
09/10/2014  20:49:00      -27.893       55.947       -2.528       26.402       37.525       14.707      697.055     1408.127      216.295        0.312        0.116       62.514       16.607        0.071      345.470       23.022      861.988
09/10/2014  20:50:00      -79.844       49.548      -10.527       25.960       31.500       16.811      673.924      992.231      282.602        0.544        0.097       93.968       10.243        0.012      345.503       23.080      862.023
09/10/2014  20:51:00      -66.109        4.920       -5.967       17.371       20.188       11.826      301.742      407.572      139.861        0.264        0.042       66.292        8.367        0.016      345.564       23.183      862.031
09/10/2014  20:52:00      -26.699      -25.180        5.234       24.892       18.725       13.344      619.607      350.643      178.074        0.126        0.057       36.699       10.589        0.083      345.512       23.096      862.049
09/10/2014  20:53:00      -52.249      -36.586       -1.796       29.118       20.883       13.556      847.886      436.116      183.765        0.277        0.073       63.785       15.155        0.056      345.434       22.960      862.068
09/10/2014  20:54:00      -75.362      -46.609       -0.584       13.038       17.506       13.573      169.998      306.464      184.218        0.426        0.033       88.611        9.478        0.011      345.485       23.048      862.068
09/10/2014  20:55:00      -32.539      -26.193        6.333       27.725       21.071       19.292      768.693      443.988      372.185        0.168        0.079       41.772        9.964        0.057      345.328       22.780      862.082
09/10/2014  20:56:00      -34.454      -42.169        8.870       35.756       32.353       16.911     1278.517     1046.684      285.995        0.283        0.131       54.454       19.997        0.135      345.435       22.962      862.097
09/10/2014  20:57:00      -45.371      -37.229        5.641       33.904       21.290       18.774     1149.488      453.262      352.473        0.272        0.098       58.690       14.897        0.064      345.347       22.811      862.099
09/10/2014  20:58:00      -33.406      -26.007        5.879       33.807       22.535       17.097     1142.901      507.820      292.322        0.188        0.097       42.336       18.046        0.182      345.392       22.889      862.110
09/10/2014  20:59:00      -37.113      -40.276        4.350       28.542       20.976       18.523      814.632      439.976      343.092        0.231        0.080       54.768       15.145        0.076      345.327       22.778      862.121
09/10/2014  21:00:00      -79.095      -46.585       -1.685       36.099       24.105       16.024     1303.137      581.069      256.758        0.528        0.107       91.794       16.565        0.033      345.276       22.689      862.121
09/10/2014  21:01:00     -112.568      -55.876       -4.360       21.394       16.157        9.756      457.688      261.041       95.171        0.831        0.041      125.673        7.373        0.003      345.385       22.877      862.127
09/10/2014  21:02:00     -137.568      -31.274       -2.210       41.578       22.955       23.154     1728.731      526.945      536.085        1.135        0.140      141.078       23.417        0.028      345.455       22.997      862.137
09/10/2014  21:03:00     -162.225        5.677      -14.428       33.617       27.088       17.890     1130.122      733.782      320.046        1.437        0.109      162.324       15.676        0.009      345.525       23.117      862.137
09/10/2014  21:04:00     -177.291       20.596      -14.696       23.164       24.497       14.732      536.564      600.093      217.027        1.671        0.068      178.483       14.963        0.007      345.723       23.458      862.154
09/10/2014  21:05:00     -109.122      -23.424       -5.088       38.415       28.266       22.178     1475.684      798.970      491.878        0.762        0.138      111.608       20.539        0.034      345.524       23.117      862.160
09/10/2014  21:06:00      -97.053      -33.201       -6.213       31.757       36.735       18.471     1008.485     1349.466      341.190        0.663        0.135      102.575       14.351        0.020      345.389       22.885      862.156
09/10/2014  21:07:00      -95.505      -48.566      -14.118       34.465       21.819       20.986     1187.811      476.083      440.402        0.689        0.105      107.144       21.072        0.039      345.315       22.757      862.156
09/10/2014  21:08:00      -95.482      -51.180       -9.557       13.658       16.331        9.346      186.532      266.689       87.343        0.618        0.027      108.334        4.727        0.002      345.229       22.610      862.156
09/10/2014  21:09:00      -62.406      -29.720        3.347       27.120       26.722       16.082      735.515      714.089      258.638        0.325        0.085       69.122       14.027        0.041      345.161       22.496      862.157
09/10/2014  21:10:00     -100.695      -20.358      -11.362       30.646       26.844       14.649      939.203      720.575      214.594        0.628        0.094      102.732       14.921        0.021      345.188       22.541      862.171
09/10/2014  21:11:00     -117.341        8.590       -9.183       40.267       31.971       19.701     1621.465     1022.142      388.133        0.848        0.152      117.655       21.900        0.035      345.141       22.459      862.171
09/10/2014  21:12:00     -133.221       -5.371      -15.155       32.240       27.806       21.022     1039.443      773.179      441.928        1.013        0.113      133.329       20.780        0.024      345.136       22.449      862.180
09/10/2014  21:13:00     -146.290       -7.176      -15.423       36.370       44.204       21.363     1322.769     1953.970      456.358        1.271        0.187      146.466       19.400        0.018      345.147       22.469      862.178
09/10/2014  21:14:00     -154.621        2.543      -20.332       37.205       31.453       25.088     1384.232      989.295      629.424        1.366        0.150      154.642       22.720        0.022      345.085       22.364      862.172
09/10/2014  21:15:00     -122.600       35.702      -11.851       41.988       32.794       20.142     1762.999     1075.417      405.711        0.984        0.162      127.692       16.917        0.018      345.101       22.391      862.177
09/10/2014  21:16:00     -108.706        4.299       -5.707       22.254       29.383       16.744      495.257      863.363      280.369        0.675        0.082      108.791       12.118        0.012      345.088       22.369      862.174
09/10/2014  21:17:00     -107.576       -7.031      -10.523       45.317       35.727       22.509     2053.607     1276.436      506.658        0.778        0.192      107.805       21.465        0.040      344.929       22.097      862.186
09/10/2014  21:18:00     -142.392       11.972      -10.391       41.629       22.434       18.011     1733.000      503.269      324.381        1.154        0.128      142.894       13.448        0.009      344.979       22.182      862.188
09/10/2014  21:19:00     -154.917        5.737      -17.994       33.709       24.360       17.907     1136.279      593.392      320.663        1.320        0.103      155.023       13.895        0.008      344.944       22.122      862.184
09/10/2014  21:20:00     -120.168      -22.610       -2.758       48.842       33.227       26.157     2385.547     1104.013      684.172        0.957        0.209      122.277       26.970        0.049      344.803       21.882      862.193
09/10/2014  21:21:00     -126.635      -13.951      -11.383       40.930       24.242       21.811     1675.280      587.692      475.721        0.955        0.137      127.402       20.969        0.027      344.848       21.957      862.193
09/10/2014  21:22:00     -121.676       -9.159      -17.316       23.420       17.994       13.086      548.511      323.797      171.241        0.812        0.052      122.020        8.242        0.005      344.815       21.901      862.208
09/10/2014  21:23:00     -118.731        7.139      -14.624       28.739       20.806       17.256      825.907      432.883      297.768        0.796        0.078      118.945       17.644        0.022      344.752       21.792      862.219
09/10/2014  21:24:00     -128.541       15.132       -9.121       24.287       18.831       14.192      589.845      354.595      201.408        0.899        0.057      129.429       11.639        0.008      344.832       21.930      862.234
09/10/2014  21:25:00      -62.285      -16.701        0.516       38.561       29.337       16.150     1486.969      860.664      260.821        0.338        0.130       64.485       18.135        0.079      344.782       21.846      862.237
09/10/2014  21:26:00      -82.136      -29.391       -5.392       18.420       17.967       12.601      339.280      322.824      158.792        0.423        0.041       87.236        9.120        0.011      344.839       21.942      862.241
09/10/2014  21:27:00      -75.321      -31.882       -0.692       22.488       14.416       11.003      505.710      207.831      121.062        0.376        0.042       81.791       10.879        0.018      344.851       21.964      862.234
09/10/2014  21:28:00     -108.255      -48.237       -1.205       21.922       15.246        9.641      480.567      232.426       92.941        0.743        0.040      118.516        9.248        0.006      344.949       22.132      862.224
09/10/2014  21:29:00     -100.806      -30.998       -2.876       19.678       19.462       13.325      387.213      378.767      177.563        0.604        0.047      105.464       12.101        0.013      344.759       21.805      862.215
09/10/2014  21:30:00      -92.076      -20.076        1.360       36.245       28.023       14.080     1313.674      785.303      198.243        0.559        0.115       94.239       12.507        0.018      344.704       21.710      862.210
09/10/2014  21:31:00      -97.701      -29.863        1.113       24.760       20.587       13.866      613.042      423.842      192.275        0.583        0.061      102.163       13.113        0.016      344.655       21.627      862.209
09/10/2014  21:32:00      -85.802      -16.198       -5.456       25.005       23.653       17.004      625.249      559.453      289.129        0.456        0.074       87.318       14.829        0.029      344.649       21.617      862.199
09/10/2014  21:33:00     -118.183      -26.234       -2.949       34.101       23.898       18.413     1162.856      571.126      339.040        0.837        0.104      121.060       16.513        0.019      344.492       21.349      862.204
09/10/2014  21:34:00     -126.757      -29.275        1.463       31.538       26.409       18.690      994.620      697.448      349.323        0.948        0.102      130.094       17.192        0.017      344.365       21.131      862.211
09/10/2014  21:35:00     -125.636      -31.304       -9.700       29.220       21.150       14.501      853.798      447.316      210.268        0.918        0.076      129.477       12.931        0.010      344.412       21.213      862.220
09/10/2014  21:36:00      -83.746       -5.834       -2.000       34.337       30.078       22.303     1179.029      904.713      497.408        0.482        0.129       83.949       21.447        0.065      344.253       20.941      862.228
09/10/2014  21:37:00     -104.656       14.136       -7.383       42.280       33.349       24.734     1787.558     1112.165      611.750        0.736        0.176      105.606       19.850        0.035      344.491       21.347      862.237
09/10/2014  21:38:00      -63.631      -24.728       -3.677       57.539       43.772       26.171     3310.734     1915.975      684.915        0.529        0.296       68.267       27.650        0.164      344.428       21.240      862.263
09/10/2014  21:39:00     -134.613      -64.352       -5.902       33.980       22.538       20.606     1154.610      507.954      424.592        1.219        0.104      149.204       17.760        0.014      344.379       21.156      862.269
09/10/2014  21:40:00     -122.680      -59.568       -7.299       33.705       28.515       22.577     1136.043      813.079      509.735        1.056        0.123      136.377       14.888        0.012      344.406       21.202      862.283
09/10/2014  21:41:00     -129.794      -76.024       -6.803       31.925       34.469       20.329     1019.176     1188.117      413.266        1.265        0.131      150.420       15.148        0.010      344.459       21.293      862.284
09/10/2014  21:42:00     -101.897      -56.098       -1.706       52.229       33.020       22.397     2727.818     1090.307      501.648        0.893        0.216      116.318       22.031        0.036      344.330       21.072      862.296
09/10/2014  21:43:00      -96.899      -26.093        0.070       30.070       26.674       15.507      904.222      711.522      240.474        0.596        0.093      100.350       15.726        0.025      344.382       21.161      862.296
09/10/2014  21:44:00      -95.057      -29.527        0.453       37.604       27.172       19.328     1414.081      738.321      373.558        0.622        0.126       99.537       18.137        0.033      344.454       21.283      862.296
09/10/2014  21:45:00      -98.518      -19.165       -2.992       46.352       27.513       19.935     2148.503      756.990      397.409        0.669        0.165      100.365       23.917        0.057      344.416       21.219      862.307
09/10/2014  21:46:00      -93.566      -16.716       -3.366       37.476       23.368       19.265     1404.414      546.060      371.159        0.568        0.116       95.048       18.893        0.040      344.381       21.159      862.311
09/10/2014  21:47:00     -141.394      -34.833       -2.877       33.624       23.616       19.269     1130.547      557.732      371.304        1.164        0.103      145.621       16.217        0.012      344.419       21.223      862.318
09/10/2014  21:48:00      -98.935      -14.388       -3.102       24.153       19.416       13.292      583.369      376.980      176.670        0.557        0.057       99.976        6.703        0.004      344.333       21.077      862.312
09/10/2014  21:49:00     -124.385      -16.073       -9.648       27.230       22.886       17.868      741.496      523.791      319.257        0.870        0.079      125.419       15.318        0.015      344.395       21.183      862.313
09/10/2014  21:50:00     -137.349      -36.032       -7.205       27.612       24.286       15.323      762.432      589.829      234.804        1.090        0.079      141.997       12.154        0.007      344.348       21.101      862.304
09/10/2014  21:51:00     -121.707      -36.931       -0.105       29.276       25.457       15.592      857.077      648.042      243.117        0.896        0.087      127.187       11.762        0.009      344.250       20.935      862.308
09/10/2014  21:52:00     -122.144      -24.039       -2.857       39.328       26.867       17.644     1546.688      721.847      311.321        0.904        0.129      124.487       19.325        0.024      344.256       20.945      862.305
09/10/2014  21:53:00     -132.583      -35.669        1.518       40.103       29.581       22.573     1608.226      875.048      509.560        1.092        0.150      137.297       23.865        0.030      344.199       20.848      862.313
09/10/2014  21:54:00     -143.647      -43.929       -0.572       40.763       32.390       25.040     1661.649     1049.107      627.002        1.295        0.167      150.214       19.627        0.017      344.099       20.678      862.314
09/10/2014  21:55:00     -153.729      -57.966       -6.783       27.826       33.432       23.772      774.283     1117.668      565.121        1.475        0.123      164.294       10.897        0.004      344.069       20.627      862.316
09/10/2014  21:56:00      -92.098      -57.302       -5.629       32.122       27.051       19.035     1031.837      731.777      362.321        0.696        0.106      108.469       10.718        0.010      344.005       20.517      862.334
09/10/2014  21:57:00     -115.191      -40.145       -8.085       24.389       19.258       18.698      594.829      370.857      349.615        0.813        0.066      121.986       16.694        0.019      343.949       20.421      862.337
09/10/2014  21:58:00     -127.069      -39.175       -6.440       20.743       21.612       15.415      430.265      467.081      237.629        0.943        0.057      132.970        9.459        0.005      343.914       20.361      862.350
09/10/2014  21:59:00      -96.471      -55.208        1.477       43.653       32.064       21.962     1905.571     1028.083      482.323        0.789        0.171      111.152       14.301        0.017      343.855       20.261      862.363
09/10/2014  22:00:00      -95.541      -47.746       -5.913       40.237       27.372       17.368     1619.052      749.210      301.663        0.706        0.133      106.807       14.177        0.018      343.883       20.308      862.373
09/10/2014  22:01:00      -68.291      -54.633       -1.234       24.193       29.715       15.571      585.309      882.985      242.444        0.468        0.086       87.455        7.980        0.008      343.890       20.321      862.393
09/10/2014  22:02:00      -82.906      -54.555       -6.653       25.452       24.518       14.724      647.826      601.136      216.797        0.568        0.073       99.245       13.115        0.017      343.902       20.341      862.393
09/10/2014  22:03:00      -85.300      -43.481       -3.391       23.466       17.339       14.267      550.672      300.631      203.559        0.512        0.053       95.743        7.530        0.006      343.928       20.385      862.404
09/10/2014  22:04:00     -101.500      -29.476      -11.799       15.771       12.830        9.597      248.714      164.607       92.104        0.591        0.025      105.694        8.197        0.006      343.944       20.414      862.419
09/10/2014  22:05:00     -107.264      -36.237      -12.770       21.080       16.787        9.340      444.384      281.808       87.237        0.690        0.041      113.220        5.234        0.002      343.932       20.392      862.421
09/10/2014  22:06:00     -117.816      -49.504       -7.111       22.145       18.076       14.414      490.418      326.725      207.770        0.870        0.051      127.794       13.119        0.011      343.842       20.238      862.438
09/10/2014  22:07:00      -85.364      -50.465       -1.029       36.363       25.038       20.963     1322.292      626.904      439.466        0.611        0.119       99.165       12.766        0.017      343.824       20.206      862.439
09/10/2014  22:08:00      -43.860      -31.835        6.958       28.984       23.449       14.610      840.052      549.846      213.457        0.229        0.080       54.195       12.006        0.049      343.778       20.130      862.443
09/10/2014  22:09:00      -63.512      -32.544       -0.453       28.139       16.757       12.403      791.818      280.792      153.837        0.316        0.061       71.364       10.651        0.022      343.807       20.178      862.453
09/10/2014  22:10:00      -62.512      -42.116       -2.912       26.559       18.533       13.483      705.373      343.479      181.801        0.346        0.062       75.376       10.434        0.019      343.782       20.134      862.445
09/10/2014  22:11:00      -78.724      -54.513      -12.265       15.073       19.913       12.092      227.210      396.546      146.217        0.504        0.038       95.756       10.833        0.013      343.800       20.168      862.451
09/10/2014  22:12:00      -35.215      -24.550        6.974       34.955       20.109       17.709     1221.841      404.379      313.595        0.192        0.097       42.928       14.774        0.118      343.683       19.966      862.461
09/10/2014  22:13:00     -106.141      -40.713       -8.926       18.303       19.261       10.815      335.003      370.978      116.974        0.691        0.041      113.682       10.492        0.009      343.725       20.038      862.450
09/10/2014  22:14:00     -119.386      -26.332      -14.873       12.994       13.549       10.656      168.854      183.568      113.561        0.782        0.023      122.256        4.031        0.001      343.716       20.024      862.461
09/10/2014  22:15:00     -142.593      -52.688       -8.602       11.557       13.106        8.642      133.564      171.773       74.676        1.178        0.019      152.015        4.610        0.001      343.710       20.013      862.465
09/10/2014  22:16:00     -120.214      -56.272      -12.780       32.630       18.631       14.015     1064.731      347.131      196.428        0.969        0.080      132.733        7.616        0.003      343.571       19.775      862.463
09/10/2014  22:17:00     -114.002      -17.462      -15.355       14.091       13.387       10.584      198.547      179.214      112.019        0.701        0.024      115.332        5.099        0.002      343.500       19.655      862.469
09/10/2014  22:18:00      -83.493      -24.787      -14.945       17.492       13.315        9.413      305.976      177.284       88.608        0.419        0.029       87.095        8.685        0.010      343.448       19.564      862.454
09/10/2014  22:19:00      -41.510       -1.111      -13.106       13.955       20.821        9.789      194.736      433.506       95.817        0.131        0.036       41.525        8.328        0.040      343.429       19.534      862.443
09/10/2014  22:20:00      -40.692      -17.186       -1.366       10.750       15.180       15.889      115.554      230.438      252.449        0.128        0.030       44.173        6.087        0.019      343.561       19.760      862.446
09/10/2014  22:21:00      -33.240      -27.087      -12.482       22.727       17.825       13.683      516.525      317.744      187.214        0.151        0.051       42.879       10.866        0.064      343.475       19.612      862.438
09/10/2014  22:22:00      -11.156      -19.282       -7.488       24.896       15.334       10.890      619.827      235.119      118.596        0.076        0.049       22.276        8.169        0.134      343.412       19.505      862.443
09/10/2014  22:23:00      -79.880      -49.276      -11.513       15.682       18.373       10.572      245.931      337.549      111.768        0.482        0.035       93.856        8.073        0.007      343.427       19.531      862.440
09/10/2014  22:24:00      -87.632      -49.284      -10.754       19.371       13.856       11.211      375.248      191.992      125.692        0.546        0.035      100.540        4.767        0.002      343.382       19.456      862.435
09/10/2014  22:25:00      -88.781      -58.477      -13.576       16.184       17.809       14.034      261.919      317.159      196.950        0.613        0.039      106.309        6.863        0.004      343.362       19.419      862.439
09/10/2014  22:26:00      -93.277      -50.412      -14.034       18.882       16.287       16.225      356.532      265.255      263.254        0.616        0.044      106.028       12.868        0.015      343.255       19.238      862.434
09/10/2014  22:27:00     -115.789      -58.605      -19.841       14.660       18.259       10.965      214.906      333.374      120.226        0.895        0.033      129.775       10.507        0.007      343.310       19.332      862.443
09/10/2014  22:28:00     -108.584      -54.807      -15.502       27.069       18.083       15.299      732.712      327.005      234.068        0.816        0.065      121.631       14.409        0.014      343.353       19.405      862.449
09/10/2014  22:29:00      -71.891      -63.526       -1.494       47.647       29.092       20.475     2270.206      846.372      419.220        0.637        0.177       95.936       20.145        0.044      343.302       19.317      862.458
09/10/2014  22:30:00     -113.454      -64.898       -3.567       50.167       30.482       21.327     2516.695      929.145      454.845        1.050        0.195      130.704       22.065        0.029      343.289       19.296      862.452
09/10/2014  22:31:00     -115.295      -80.091       -2.584       28.804       22.504       16.853      829.696      506.417      284.018        1.067        0.081      140.383       13.755        0.010      343.350       19.401      862.446
09/10/2014  22:32:00      -71.067      -64.406        1.674       43.035       28.643       16.646     1852.049      820.444      277.076        0.608        0.147       95.910       16.464        0.029      343.287       19.292      862.455
09/10/2014  22:33:00     -102.957      -88.145        0.230       40.780       39.013       25.127     1662.977     1522.013      631.372        1.109        0.191      135.534       20.461        0.023      343.216       19.172      862.463
09/10/2014  22:34:00     -113.792      -65.906        5.066       59.737       32.553       31.885     3568.512     1059.680     1016.663        1.148        0.282      131.500       27.143        0.043      343.229       19.194      862.468
09/10/2014  22:35:00     -123.912      -65.132        7.426       57.130       44.300       34.244     3263.826     1962.511     1172.619        1.302        0.320      139.987       31.775        0.052      343.291       19.300      862.460
09/10/2014  22:36:00     -109.858      -56.160        5.037       53.867       43.461       25.414     2901.644     1888.872      645.846        1.034        0.272      123.381       25.013        0.041      343.306       19.324      862.460
09/10/2014  22:37:00     -139.158      -50.328       -2.322       38.167       35.054       19.733     1456.686     1228.806      389.407        1.249        0.154      147.979       19.511        0.017      343.338       19.380      862.450
09/10/2014  22:38:00     -156.693      -55.076        0.521       35.793       34.593       21.537     1281.120     1196.673      463.833        1.526        0.147      166.090       15.569        0.009      343.368       19.430      862.454
09/10/2014  22:39:00     -126.176      -17.698       -8.929       39.996       32.546       19.988     1599.697     1059.248      399.536        0.969        0.153      127.411       15.955        0.016      343.257       19.242      862.438
09/10/2014  22:40:00     -103.334      -44.923        3.322       31.625       31.751       21.607     1000.117     1008.107      466.877        0.759        0.124      112.676       16.335        0.021      343.024       18.844      862.445
09/10/2014  22:41:00     -116.920      -72.775       -6.246       31.446       28.021       19.761      988.859      785.179      390.490        1.058        0.108      137.718        9.758        0.005      343.021       18.840      862.435
09/10/2014  22:42:00     -113.621      -48.549       -4.142       34.419       26.015       19.362     1184.644      676.781      374.885        0.876        0.112      123.559       18.234        0.022      342.982       18.773      862.437
09/10/2014  22:43:00      -88.260      -67.183       -5.163       43.276       32.611       22.518     1872.821     1063.490      507.076        0.789        0.172      110.920       16.239        0.021      343.019       18.837      862.442
09/10/2014  22:44:00     -122.019      -67.559       -7.279       40.217       25.069       18.967     1617.399      628.472      359.755        1.106        0.130      139.474       15.760        0.013      342.983       18.775      862.444
09/10/2014  22:45:00     -120.333      -36.193        1.429       40.473       22.934       17.500     1638.027      525.977      306.233        0.913        0.124      125.658       20.614        0.027      342.929       18.683      862.451
09/10/2014  22:46:00      -95.343      -22.091        1.427       30.843       24.693       18.503      951.283      609.741      342.365        0.574        0.095       97.869       17.667        0.033      343.037       18.866      862.447
09/10/2014  22:47:00      -85.921      -23.261        2.669       38.045       26.397       15.402     1447.424      696.807      237.234        0.516        0.119       89.014       13.222        0.022      343.081       18.941      862.451
09/10/2014  22:48:00      -75.258      -35.851        0.808       31.081       29.072       17.203      966.017      845.176      295.940        0.453        0.105       83.361       16.262        0.038      342.976       18.762      862.459
09/10/2014  22:49:00      -87.685      -46.117       -6.117       18.029       11.560       13.726      325.061      133.642      188.400        0.525        0.032       99.073       11.998        0.015      343.025       18.847      862.461
09/10/2014  22:50:00     -102.499      -17.484      -10.948       25.362       21.888       15.908      643.211      479.071      253.051        0.615        0.069      103.980       12.208        0.014      343.001       18.805      862.483
09/10/2014  22:51:00     -105.010      -15.192        0.299       22.479       20.336       16.949      505.324      413.564      287.275        0.623        0.060      106.103       11.065        0.011      342.929       18.685      862.488
09/10/2014  22:52:00      -82.366      -38.533       -6.535       28.729       28.765       22.649      825.342      827.451      512.962        0.524        0.108       90.934       18.978        0.044      343.024       18.845      862.481
09/10/2014  22:53:00     -106.535      -63.412       -4.142       33.670       23.554       18.742     1133.687      554.787      351.279        0.871        0.102      123.979       19.295        0.024      342.974       18.759      862.491
09/10/2014  22:54:00     -125.265      -54.550       -9.325       30.752       18.521       20.681      945.660      343.017      427.707        1.023        0.086      136.627       16.813        0.015      342.908       18.647      862.485
09/10/2014  22:55:00     -130.470      -32.981      -13.010       27.534       24.133       15.182      758.120      582.412      230.485        0.992        0.079      134.574       14.371        0.011      342.940       18.703      862.487
09/10/2014  22:56:00      -97.962      -13.215       -7.406       33.553       19.525       14.789     1125.788      381.238      218.720        0.578        0.086       98.850       11.961        0.015      342.885       18.605      862.494
09/10/2014  22:57:00     -126.222       -2.684      -14.095       26.961       25.237       14.548      726.886      636.913      211.649        0.886        0.079      126.251       11.156        0.008      342.874       18.590      862.486
09/10/2014  22:58:00     -102.413      -12.639      -11.870       36.290       27.976       18.124     1316.937      782.655      328.494        0.661        0.121      103.190       18.621        0.033      342.881       18.601      862.490
09/10/2014  22:59:00      -96.582      -20.428      -13.847       43.802       28.404       18.999     1918.597      806.778      360.953        0.651        0.154       98.719       18.627        0.036      342.932       18.688      862.494
09/10/2014  23:00:00        3.207      -35.324       -0.930       41.549       19.689       16.132     1726.330      387.667      260.229        0.182        0.119       35.469        6.116        0.030      342.924       18.673      862.492
09/10/2014  23:01:00      -16.712      -33.538        0.678       33.639       16.617       16.117     1131.555      276.133      259.772        0.154        0.083       37.471        8.084        0.047      342.821       18.498      862.503
09/10/2014  23:02:00      -46.522      -52.982        3.811       23.621       14.042       15.722      557.971      197.174      247.188        0.299        0.050       70.508       15.136        0.046      342.802       18.466      862.512
09/10/2014  23:03:00      -21.550      -15.360        0.343       21.075       12.753        7.900      444.147      162.627       62.409        0.068        0.033       26.463        9.329        0.124      342.784       18.438      862.519
09/10/2014  23:04:00      -16.228      -14.327       -2.810       20.895       16.725       13.188      436.600      279.742      173.923        0.068        0.045       21.648        6.764        0.098      342.896       18.628      862.527
09/10/2014  23:05:00      -19.012      -35.746        6.199       16.634       17.012       15.361      276.689      289.409      235.949        0.124        0.040       40.488       10.029        0.061      342.886       18.610      862.532
09/10/2014  23:06:00      -25.466      -28.274        4.902       27.729       22.376       14.853      768.877      500.671      220.622        0.148        0.075       38.052       12.054        0.100      342.874       18.590      862.533
09/10/2014  23:07:00      -40.190      -32.328        6.366       31.031       18.166       11.971      962.922      329.998      143.305        0.207        0.072       51.578       14.007        0.074      342.906       18.644      862.546
09/10/2014  23:08:00      -29.653      -26.885        1.275       29.361       18.266       13.854      862.041      333.639      191.922        0.150        0.069       40.026       15.863        0.157      342.966       18.748      862.548
09/10/2014  23:09:00      -55.547      -27.412        1.151       33.392       16.031       15.734     1115.039      256.993      247.550        0.273        0.081       61.942        6.021        0.009      342.855       18.558      862.556
09/10/2014  23:10:00     -106.260      -66.925       -8.304       30.632       37.610       18.739      938.332     1414.475      351.167        0.927        0.135      125.579       15.707        0.016      342.842       18.533      862.566
09/10/2014  23:11:00      -53.963      -34.011        2.675       36.669       38.482       23.497     1344.620     1480.900      552.111        0.373        0.169       63.787       23.054        0.131      342.779       18.427      862.573
09/10/2014  23:12:00     -102.182      -70.515        1.449       38.671       34.127       24.321     1495.448     1164.627      591.513        0.933        0.163      124.151       21.944        0.031      342.822       18.499      862.584
09/10/2014  23:13:00     -108.879      -77.370       -1.295       34.920       32.392       22.140     1219.439     1049.258      490.163        1.030        0.138      133.569       16.109        0.015      342.836       18.523      862.607
09/10/2014  23:14:00      -50.733      -41.283        6.679       46.329       30.337       22.122     2146.343      920.333      489.384        0.394        0.178       65.408       23.430        0.128      342.740       18.361      862.611
09/10/2014  23:15:00      -56.158      -71.566        4.281       34.198       41.948       20.162     1169.531     1759.614      406.495        0.581        0.167       90.969       19.056        0.044      342.778       18.426      862.617
09/10/2014  23:16:00      -92.306      -52.756        4.052       31.306       26.301       17.475      980.050      691.733      305.366        0.665        0.099      106.319       17.497        0.027      342.762       18.399      862.625
09/10/2014  23:17:00      -73.639      -47.256        0.013       31.690       25.079       15.771     1004.260      628.972      248.722        0.477        0.094       87.497       13.708        0.025      342.800       18.464      862.631
09/10/2014  23:18:00      -70.841      -40.763       -0.681       51.828       19.944       19.534     2686.120      397.753      381.593        0.507        0.173       81.731       21.614        0.070      342.749       18.376      862.629
09/10/2014  23:19:00      -62.910      -48.909        6.213       51.464       34.549       19.864     2648.558     1193.654      394.570        0.531        0.212       79.685       25.860        0.105      342.730       18.344      862.631
09/10/2014  23:20:00      -97.793      -37.576        3.500       32.900       22.437       17.356     1082.411      503.440      301.230        0.644        0.094      104.764       12.108        0.013      342.746       18.371      862.640
09/10/2014  23:21:00      -93.187      -44.349       -0.490       29.266       27.869       17.141      856.489      776.706      293.812        0.629        0.096      103.202       14.205        0.019      342.704       18.300      862.635
09/10/2014  23:22:00      -69.960      -36.210        6.648       35.113       27.836       18.501     1232.906      774.851      342.302        0.430        0.118       78.775       13.568        0.030      342.629       18.172      862.629
09/10/2014  23:23:00     -112.080      -63.533       -2.306       35.599       26.840       20.021     1267.286      720.378      400.856        0.950        0.119      128.834       11.912        0.009      342.668       18.238      862.628
09/10/2014  23:24:00      -93.097      -68.131        2.764       36.356       32.448       25.649     1321.731     1052.861      657.865        0.817        0.152      115.364       14.236        0.015      342.635       18.183      862.625
09/10/2014  23:25:00     -101.809      -58.509        3.760       44.708       34.341       20.986     1998.833     1179.277      440.417        0.871        0.181      117.424       23.410        0.040      342.543       18.026      862.613
09/10/2014  23:26:00      -76.707      -72.753        7.689       41.245       47.427       23.960     1701.160     2249.296      574.059        0.788        0.226      105.721       23.430        0.049      342.579       18.087      862.609
09/10/2014  23:27:00      -84.751      -65.021        2.596       61.355       42.668       27.230     3764.403     1820.576      741.495        0.887        0.316      106.820       32.382        0.092      342.564       18.061      862.614
09/10/2014  23:28:00     -118.641      -68.791       -4.916       53.299       35.354       28.421     2840.806     1249.886      807.770        1.186        0.245      137.142       21.956        0.026      342.587       18.099      862.614
09/10/2014  23:29:00     -148.776      -52.400      -18.353       29.932       33.264       18.961      895.900     1106.504      359.519        1.379        0.118      157.734       15.508        0.010      342.616       18.149      862.603
09/10/2014  23:30:00     -127.435      -39.584       -3.093       32.744       31.805       24.816     1072.146     1011.580      615.814        1.026        0.135      133.441       21.165        0.025      342.517       17.982      862.616
09/10/2014  23:31:00     -142.761      -30.708       -6.942       39.337       33.157       20.346     1547.362     1099.377      413.953        1.222        0.153      146.026       18.421        0.016      342.354       17.704      862.621
09/10/2014  23:32:00     -133.101      -65.438      -13.683       28.542       23.639       13.681      814.673      558.789      187.167        1.187        0.078      148.317       11.159        0.006      342.249       17.526      862.615
09/10/2014  23:33:00      -87.140      -58.857       -4.263       58.972       26.589       23.044     3477.671      706.996      531.044        0.789        0.236      105.155       32.183        0.094      342.187       17.421      862.617
09/10/2014  23:34:00     -112.926      -50.582      -11.918       35.114       25.369       18.841     1232.965      643.589      354.981        0.884        0.112      123.737       11.782        0.009      342.178       17.406      862.623
09/10/2014  23:35:00     -124.309      -33.410       -8.489       29.668       35.079       19.701      880.210     1230.559      388.135        0.957        0.125      128.721       15.237        0.014      342.218       17.473      862.614
09/10/2014  23:36:00     -129.252      -23.562       -8.060       52.237       31.545       24.013     2728.653      995.078      576.611        1.081        0.215      131.382       28.437        0.047      342.136       17.334      862.602
09/10/2014  23:37:00     -142.158      -25.605       -3.762       34.950       31.984       23.999     1221.484     1022.992      575.938        1.185        0.141      144.446       19.003        0.017      342.113       17.296      862.604
09/10/2014  23:38:00     -136.126      -26.194       -6.975       66.150       37.766       27.077     4375.778     1426.271      733.137        1.290        0.327      138.623       30.004        0.047      342.182       17.412      862.600
09/10/2014  23:39:00     -137.797      -35.307       -9.019       58.422       44.630       24.786     3413.101     1991.828      614.358        1.317        0.301      142.248       25.291        0.032      342.148       17.354      862.598
09/10/2014  23:40:00     -176.585      -40.784      -12.942       42.674       40.956       24.729     1821.080     1677.410      611.521        1.856        0.206      181.233       19.725        0.012      342.118       17.304      862.607
09/10/2014  23:41:00     -161.106      -17.102      -15.754       52.917       41.133       24.138     2800.223     1691.959      582.666        1.578        0.254      162.011       24.467        0.023      342.193       17.430      862.595
09/10/2014  23:42:00     -195.412       25.305      -16.547       31.312       27.752       16.189      980.442      770.149      262.076        2.056        0.101      197.043       12.506        0.004      342.276       17.571      862.599
09/10/2014  23:43:00     -187.938        1.368      -19.688       40.261       30.504       25.014     1620.984      930.522      625.719        1.944        0.159      187.943       19.751        0.011      342.337       17.675      862.599
09/10/2014  23:44:00     -183.761      -27.787      -18.342       47.581       37.486       25.171     2263.977     1405.189      633.558        1.959        0.215      185.850       24.767        0.018      342.304       17.619      862.587
09/10/2014  23:45:00     -161.803       -6.911      -13.568       42.941       37.874       18.784     1843.953     1434.403      352.857        1.502        0.182      161.951       20.892        0.017      342.316       17.639      862.587
09/10/2014  23:46:00     -164.608      -13.776      -22.236       44.030       39.916       26.025     1938.654     1593.310      677.281        1.599        0.210      165.183       24.043        0.021      342.342       17.684      862.594
09/10/2014  23:47:00     -114.994      -19.980       -3.473       54.271       38.604       21.186     2945.321     1490.237      448.838        0.926        0.244      116.716       24.949        0.046      342.359       17.712      862.593
09/10/2014  23:48:00     -178.887       -9.331      -17.934       44.657       30.804       18.819     1994.290      948.915      354.171        1.785        0.165      179.131       18.266        0.010      342.632       18.175      862.609
09/10/2014  23:49:00     -134.900      -32.896      -14.003       31.068       34.151       18.325      965.212     1166.288      335.824        1.097        0.123      138.853       12.334        0.008      342.470       17.902      862.620
09/10/2014  23:50:00     -110.649      -56.766       -1.374       51.071       25.005       19.076     2608.203      625.263      363.891        0.953        0.180      124.360       22.987        0.034      342.359       17.713      862.624
09/10/2014  23:51:00      -50.235      -48.753        4.864       49.325       47.774       21.120     2432.938     2282.392      446.034        0.504        0.258       70.003       29.912        0.183      342.268       17.560      862.639
09/10/2014  23:52:00      -99.624      -74.069        4.156       50.101       43.786       26.629     2510.136     1917.197      709.130        1.028        0.257      124.141       27.382        0.049      342.262       17.549      862.643
09/10/2014  23:53:00      -66.179      -60.616        9.395       53.170       40.457       25.844     2827.021     1636.795      667.934        0.664        0.257       89.744       28.189        0.099      342.303       17.617      862.639
09/10/2014  23:54:00      -44.442      -49.460       14.046       55.854       47.806       33.049     3119.701     2285.428     1092.221        0.556        0.325       66.494       37.331        0.315      342.242       17.516      862.649
09/10/2014  23:55:00     -103.035     -117.041       -8.222       40.340       40.998       25.609     1627.305     1680.812      655.835        1.417        0.198      155.932       18.825        0.015      342.376       17.741      862.654
09/10/2014  23:56:00      -93.713      -67.447       -2.087       64.496       46.122       30.117     4159.714     2127.196      907.019        1.026        0.360      115.462       33.276        0.083      342.280       17.579      862.666
09/10/2014  23:57:00      -47.987      -52.023       11.165       60.302       49.913       34.093     3636.350     2491.328     1162.359        0.621        0.365       70.776       29.977        0.179      342.195       17.435      862.668
09/10/2014  23:58:00      -88.619      -54.515        3.202       71.031       39.860       36.501     5045.345     1588.841     1332.309        0.940        0.398      104.044       34.085        0.107      342.103       17.278      862.664
09/10/2014  23:59:00     -135.762      -92.989       -7.321       54.839       50.412       36.694     3007.264     2541.387     1346.475        1.701        0.345      164.555       24.080        0.021      342.094       17.261      862.672
